GFSSW_sfc_thetae_000.txt.gz
Theta_e
323 323 323 322 323 324 324 325 327 328 328 327 328 331 332 330 328 317 314 321 328 338 338 330 325 326 327 329 332 332 314 307 310 313 312 312 309 312 313 310 313 313 312 313 316
326 326 324 324 324 325 325 326 326 326 328 330 331 332 331 330 316 314 321 333 334 338 325 320 319 322 321 324 324 318 310 311 315 315 312 311 309 308 308 309 310 310 312 313 314
326 326 326 326 326 326 327 327 327 328 329 331 331 330 330 326 312 311 329 329 332 332 325 320 321 320 318 324 317 316 312 316 314 314 316 310 309 310 307 306 310 309 309 311 310
326 326 326 326 326 326 326 327 327 328 329 331 331 330 330 316 301 313 328 332 334 324 321 317 317 316 315 311 316 309 314 314 316 313 314 309 311 307 308 310 313 312 311 310 308
325 326 326 325 326 326 326 327 327 328 329 330 331 332 320 308 306 316 331 331 320 319 317 316 313 314 310 312 312 308 310 313 313 312 310 312 307 307 308 313 313 312 311 308 307
325 325 325 325 325 325 326 327 327 327 328 329 331 330 313 303 312 315 315 315 316 317 317 318 315 315 311 313 308 311 310 310 310 308 311 308 307 308 309 312 311 309 307 307 307
324 325 325 324 324 325 326 326 326 326 327 328 331 321 311 305 312 314 314 314 316 317 316 319 318 312 315 311 312 311 304 306 306 307 306 308 304 304 309 310 306 306 306 307 307
322 324 324 323 324 324 325 326 326 326 327 329 330 317 306 312 315 312 314 313 317 319 319 322 320 316 314 312 309 304 304 299 305 306 307 306 297 306 308 307 305 305 305 306 306
322 322 322 322 323 324 324 325 325 328 329 330 318 314 305 314 309 313 314 311 315 316 321 317 318 314 314 304 301 302 296 298 302 307 306 303 299 307 308 307 305 305 305 306 305
320 321 321 321 322 323 323 322 325 325 323 322 318 306 306 304 310 311 314 313 312 314 312 311 310 306 304 301 294 297 296 299 299 304 304 301 300 306 307 306 304 305 306 306 306
320 321 320 320 321 322 318 317 311 310 311 307 308 306 307 309 311 308 312 311 312 310 304 308 302 299 302 303 303 303 300 299 303 306 302 300 301 303 307 305 304 304 305 306 306
319 321 321 321 321 321 316 313 313 313 302 311 310 309 310 310 303 306 312 306 307 302 306 304 298 305 307 307 304 302 299 298 302 305 302 301 300 304 305 305 305 304 305 306 307
318 319 320 320 320 315 313 314 320 316 304 308 309 307 307 308 303 304 308 307 305 303 303 301 305 307 305 304 302 301 298 298 298 303 302 300 297 299 303 305 307 307 307 307 307
319 317 318 318 311 314 311 318 322 319 298 301 302 306 307 308 302 310 309 309 306 302 304 304 306 303 302 300 302 296 303 302 301 297 291 299 289 297 301 302 303 306 306 306 307
321 318 317 316 312 310 316 321 321 314 292 303 302 310 308 303 305 305 313 309 302 302 304 301 301 300 300 300 303 300 304 302 301 296 294 296 291 294 301 299 302 304 305 306 307
321 319 316 315 315 319 321 319 314 299 292 300 303 300 301 303 304 306 305 309 311 303 303 302 305 304 302 305 304 304 301 301 299 295 288 293 294 293 298 300 302 304 305 306 306
317 318 314 315 315 326 322 312 298 293 304 299 299 301 300 300 300 303 301 299 297 294 295 300 301 303 305 300 303 301 296 289 288 288 287 297 293 296 301 301 300 302 303 304 305
314 316 319 317 319 325 317 302 292 300 302 305 302 301 297 301 301 301 300 297 301 300 297 295 292 300 303 300 297 297 296 290 284 286 290 295 289 294 302 302 302 304 304 305 304
313 322 319 321 321 322 309 294 297 302 304 302 301 298 298 301 301 300 299 298 301 301 295 295 295 304 303 303 302 298 293 299 292 293 289 292 296 300 301 299 300 301 302 303 303
313 315 316 323 320 314 303 297 301 306 306 305 297 301 297 301 299 299 299 303 301 304 304 300 294 302 302 303 302 299 302 292 292 283 282 289 290 293 297 298 298 298 298 301 303
314 308 318 323 318 305 297 300 304 309 309 302 300 298 298 298 299 299 299 304 306 305 305 302 298 298 298 296 295 295 294 296 295 291 284 284 289 298 297 298 299 298 299 301 302
309 299 318 319 304 304 300 302 305 306 309 306 304 302 299 299 299 299 298 303 307 307 301 304 299 293 295 301 302 300 296 297 290 288 291 291 291 302 299 299 300 299 300 301 303
301 303 317 316 296 297 301 300 303 303 305 303 301 304 304 300 296 300 301 306 307 305 302 303 297 290 293 296 299 296 298 298 297 295 290 288 291 300 298 299 299 299 300 301 301
301 293 302 307 306 300 298 298 298 305 303 304 302 304 302 300 302 298 300 305 304 306 314 308 299 295 289 294 297 293 296 298 296 291 291 291 294 298 297 297 298 298 300 300 301
300 297 300 292 296 297 296 295 294 295 301 303 298 298 298 295 297 297 301 301 304 306 305 303 294 296 298 299 300 299 297 296 294 295 291 294 295 299 301 301 299 300 300 300 300
297 296 298 294 295 292 292 290 290 293 295 295 296 298 298 294 297 294 297 297 297 300 296 299 293 297 294 298 298 296 299 299 296 296 296 297 296 303 303 301 300 301 301 300 300
305 303 297 294 292 291 291 291 292 293 294 295 294 293 295 297 299 300 301 299 297 293 290 290 290 291 289 296 296 292 297 299 299 299 297 293 298 301 301 302 303 302 301 300 300

GFSSW_sfc_thetae_003.txt.gz
Theta_e
324 323 323 323 322 323 324 326 327 327 328 327 328 331 332 330 328 315 311 318 325 337 338 328 326 321 322 318 321 317 304 299 302 304 305 306 304 308 309 306 309 309 307 308 312
326 326 325 324 325 326 327 326 326 327 329 330 331 331 331 330 315 309 324 332 332 337 324 319 315 317 312 312 314 309 299 303 310 307 304 306 304 304 305 305 305 305 307 310 311
326 327 326 326 326 327 328 328 327 329 330 331 331 330 330 327 308 309 331 332 332 334 322 321 316 317 309 310 309 307 304 311 310 312 310 306 305 306 303 301 306 304 305 308 307
326 326 326 325 326 326 326 327 327 328 329 331 330 330 330 317 298 312 333 333 336 328 319 316 313 308 305 304 309 302 309 309 311 310 309 304 306 303 304 304 309 307 307 306 305
326 326 326 325 325 325 326 326 327 328 328 329 330 332 318 305 303 315 333 328 324 317 314 314 308 307 303 306 306 302 305 309 308 308 306 307 304 303 305 308 308 308 308 306 304
324 325 325 325 325 325 326 327 327 327 328 328 330 331 310 298 309 315 315 312 314 315 313 314 310 309 304 304 302 305 306 306 307 305 305 304 303 304 305 309 306 306 305 304 304
323 324 324 324 324 324 325 326 327 326 326 327 330 323 309 304 308 309 312 310 314 315 313 315 314 308 306 302 307 305 300 301 302 303 302 304 300 301 305 308 305 303 302 303 304
322 323 323 323 323 323 324 325 325 325 326 328 329 314 302 309 307 309 310 310 314 314 317 315 315 311 307 306 304 299 297 292 300 303 304 302 292 302 305 305 302 301 300 302 303
321 321 322 322 322 323 323 324 323 325 327 329 316 309 301 314 306 309 309 309 312 313 314 317 314 306 305 297 293 294 288 292 297 303 303 299 294 302 305 305 301 299 300 302 301
321 321 321 321 321 322 322 322 322 323 321 319 318 301 304 301 307 308 307 312 310 310 311 307 303 298 297 293 287 290 290 293 293 299 301 297 296 301 302 303 301 300 301 301 302
319 320 321 321 321 321 316 311 307 306 308 304 306 302 304 306 308 304 309 309 309 305 298 302 295 292 295 296 297 296 295 294 296 302 298 297 298 299 302 302 300 300 300 302 303
320 319 320 321 320 319 314 308 308 307 298 308 308 308 309 306 300 303 308 302 302 297 300 297 293 299 302 301 299 297 294 293 297 302 299 296 297 300 300 302 303 302 301 302 303
322 320 318 320 318 311 307 310 314 311 299 304 307 306 305 305 301 300 305 302 299 297 298 294 299 304 301 300 298 297 294 294 294 298 298 296 292 296 300 302 304 304 304 304 303
319 320 319 317 311 310 307 314 313 311 293 298 302 304 305 306 300 306 306 304 300 297 298 297 303 301 299 297 298 293 300 299 297 293 287 294 286 292 297 298 299 303 302 302 304
317 318 319 315 303 308 312 314 311 307 284 301 301 308 305 300 303 304 308 305 299 299 298 296 297 297 297 298 299 295 300 298 297 292 289 290 287 289 295 295 297 299 303 303 304
316 316 318 310 309 310 317 313 307 293 285 297 300 299 298 300 301 305 303 305 305 300 299 297 302 300 299 301 301 301 298 296 294 291 283 289 289 291 292 296 297 298 300 304 304
315 315 315 314 310 318 316 305 291 285 300 296 297 298 297 296 297 301 298 295 292 289 289 295 298 299 302 297 299 297 291 284 283 283 282 291 289 293 295 298 299 300 299 302 304
313 315 317 313 311 314 309 296 284 296 297 302 301 298 294 297 296 297 296 292 296 293 290 288 287 296 299 298 293 293 292 284 279 281 286 293 286 292 299 303 300 301 301 300 302
313 313 312 314 314 311 301 287 290 296 302 300 300 294 293 297 296 295 293 294 297 297 290 289 290 299 299 300 299 293 290 295 287 286 283 287 290 295 297 296 298 298 299 300 301
304 308 309 316 311 306 296 293 295 302 303 302 294 297 292 295 294 294 292 297 297 301 300 294 290 297 299 299 299 295 296 288 287 280 278 284 286 288 293 298 296 295 298 299 300
307 300 312 316 309 297 289 293 300 305 305 300 296 295 295 294 295 293 294 299 302 302 301 298 292 293 295 293 293 292 292 292 290 286 280 280 283 293 296 297 295 298 297 299 300
300 293 312 312 297 295 291 297 302 300 303 302 301 299 297 297 295 295 295 298 304 303 298 300 295 290 293 297 299 297 294 295 288 283 287 288 288 295 295 297 297 296 298 298 301
295 294 306 308 289 289 295 298 300 300 300 301 300 303 302 298 294 296 298 304 304 303 300 302 295 288 290 292 294 292 295 294 295 289 288 286 289 298 300 299 296 297 296 298 301
294 286 293 298 297 293 292 291 291 297 296 297 297 299 298 296 298 297 297 303 304 303 306 303 297 293 288 291 294 290 293 295 293 288 290 290 292 294 294 294 295 295 296 298 300
294 289 293 287 289 289 287 288 287 287 293 293 292 293 290 289 293 293 296 297 300 303 297 295 291 293 292 292 294 295 295 294 292 293 289 292 292 296 298 296 295 296 296 296 297
291 290 291 289 289 287 288 285 288 290 289 288 288 290 290 286 288 286 291 292 293 295 293 295 286 287 284 290 290 288 293 294 295 295 294 295 294 298 300 298 297 295 297 297 298
298 299 296 292 287 285 286 288 290 291 291 293 291 289 288 290 292 293 293 294 295 292 290 290 288 284 280 288 286 282 290 295 297 297 296 291 297 299 300 301 302 300 296 297 298

GFSSW_sfc_thetae_006.txt.gz
Theta_e
323 323 323 323 323 324 325 326 327 327 328 327 328 331 331 330 327 312 309 318 323 335 336 325 326 320 320 316 318 315 302 298 301 302 305 306 303 306 307 306 307 306 304 307 311
326 326 325 325 325 326 327 327 327 327 329 330 330 330 330 330 313 306 322 331 333 335 322 317 313 315 310 311 312 306 296 299 308 306 303 304 303 304 305 304 303 303 306 308 309
325 326 326 326 326 326 327 327 327 328 329 331 330 329 330 327 306 308 334 333 335 332 320 319 316 315 306 308 307 305 301 308 308 310 307 305 303 305 303 301 304 303 305 307 307
324 326 325 325 325 326 326 327 327 328 329 329 329 330 330 315 296 310 336 338 337 325 316 315 312 306 303 302 307 301 307 308 309 309 307 303 305 301 304 303 308 307 307 306 305
324 325 326 325 325 325 326 326 327 328 328 328 329 331 315 303 303 313 337 332 320 316 313 312 306 305 301 304 304 301 303 308 308 306 305 306 302 301 301 307 307 307 306 305 304
323 324 324 324 324 324 325 326 327 327 327 326 329 330 308 297 308 312 316 311 314 313 311 311 308 308 303 302 301 303 304 305 305 305 304 303 302 302 303 305 304 305 304 303 304
323 324 323 323 323 323 324 325 325 325 325 327 329 324 307 303 306 310 311 308 311 313 311 313 312 307 304 300 305 304 299 300 301 302 301 303 299 300 303 304 303 302 301 302 303
322 322 322 322 322 322 324 324 325 325 326 328 328 313 300 309 306 307 308 307 311 312 314 314 314 310 305 304 301 298 296 290 297 301 302 300 292 299 303 304 301 301 300 301 302
322 322 321 322 321 322 323 323 324 325 327 328 315 306 301 314 302 307 306 306 309 310 311 314 312 305 304 296 292 292 286 290 294 301 301 297 293 298 302 305 303 301 301 301 301
320 320 321 321 322 322 322 321 322 320 319 319 317 301 303 300 305 306 305 309 308 308 308 305 301 297 295 292 285 288 288 290 291 297 299 296 295 298 301 304 304 302 302 301 302
322 321 320 321 321 321 313 310 305 305 306 302 304 300 302 304 306 302 307 306 307 303 296 300 293 291 294 295 294 292 291 291 294 299 297 296 297 299 300 300 301 300 300 300 302
320 320 321 319 320 319 312 307 306 306 298 306 306 306 308 303 299 300 306 300 300 295 298 295 291 297 299 298 296 294 291 290 295 299 297 295 295 299 298 300 301 302 300 300 302
318 318 319 320 318 310 305 307 312 309 296 301 306 304 304 303 299 298 303 300 297 295 296 291 296 301 299 297 296 295 293 291 293 296 296 294 293 294 298 300 303 304 304 303 302
317 318 317 319 310 306 307 313 311 308 291 297 301 303 304 304 299 305 305 302 297 295 296 295 301 299 297 296 297 292 297 297 296 292 286 294 287 290 294 296 297 301 303 303 303
317 316 316 316 300 307 311 312 309 305 282 299 300 306 302 299 300 302 305 303 296 297 295 293 296 296 296 297 297 294 299 297 295 290 287 289 285 287 292 292 296 297 300 303 305
316 316 316 310 307 308 314 311 305 292 283 296 299 297 296 298 298 303 302 304 303 298 297 296 300 298 297 300 299 299 296 294 292 288 282 289 288 291 291 295 298 300 298 300 303
315 315 313 315 307 312 313 302 290 284 297 294 296 297 295 294 295 298 296 294 291 287 286 291 294 298 300 295 298 296 290 283 281 281 283 290 287 292 292 294 295 298 299 297 302
314 315 317 314 308 311 304 294 283 293 295 301 301 298 293 295 295 295 294 291 294 292 288 286 286 294 298 297 294 292 291 284 279 280 285 289 284 290 296 301 302 300 299 297 300
312 308 310 313 313 310 297 286 289 292 300 299 299 293 291 295 294 293 292 292 295 295 288 287 288 297 298 300 298 292 288 293 286 283 281 285 289 293 295 296 296 296 297 298 300
304 307 309 315 308 304 294 291 292 301 300 300 292 296 291 293 293 292 291 295 295 298 297 291 287 295 298 297 296 295 295 286 285 280 278 283 283 287 290 296 297 295 296 298 299
302 300 310 313 305 296 289 291 297 301 301 297 294 294 294 293 294 292 293 298 302 301 301 294 290 292 294 291 291 291 291 290 288 286 283 282 286 291 295 296 295 295 297 299 299
296 293 307 309 296 292 290 295 301 299 300 300 299 299 295 294 294 293 293 296 304 302 297 300 296 289 292 297 298 297 294 294 288 285 283 287 288 293 293 294 295 298 297 297 299
293 292 301 304 287 288 292 294 296 293 292 294 295 298 296 294 290 296 297 303 304 300 296 299 293 288 290 293 293 291 293 294 293 292 288 285 289 297 298 298 296 295 295 297 299
292 287 292 292 291 287 286 287 288 293 291 292 290 293 289 287 291 289 291 297 296 299 304 300 293 292 286 288 288 287 287 292 289 287 289 289 291 296 295 293 295 295 295 295 298
292 288 290 284 285 286 286 286 285 286 290 290 288 289 287 284 285 286 288 289 293 296 298 296 287 289 289 290 290 288 287 286 286 287 283 288 291 296 299 299 300 299 294 294 295
289 288 290 287 287 285 286 283 286 288 288 287 286 289 288 284 286 284 287 288 287 292 291 292 284 288 285 288 287 284 287 289 288 287 289 293 292 300 301 299 299 299 295 295 295
295 295 292 289 285 283 284 286 288 289 290 291 289 288 287 289 290 292 292 292 290 288 287 287 285 281 278 285 285 280 285 287 289 291 291 287 293 296 293 296 299 298 298 298 298

GFSSW_sfc_thetae_009.txt.gz
Theta_e
323 322 322 323 323 323 324 325 326 327 327 327 327 330 331 330 327 310 307 316 320 333 336 323 322 319 316 313 316 312 301 297 299 300 303 305 302 305 306 304 305 306 304 306 310
326 326 325 324 325 325 326 326 327 327 328 329 329 329 329 330 312 305 319 333 330 333 319 315 311 313 309 309 309 302 296 299 306 306 304 305 302 303 304 303 302 302 304 306 309
323 325 325 325 325 325 326 326 326 327 328 329 330 329 329 326 305 305 334 333 330 330 318 316 315 313 305 308 306 304 298 302 308 308 307 304 302 304 302 300 303 303 304 306 306
324 324 325 325 325 325 325 326 326 327 328 328 328 329 329 313 292 308 338 336 332 324 313 313 310 304 301 301 306 300 306 307 308 308 305 302 303 300 303 303 306 306 307 307 305
323 324 324 324 324 324 325 325 326 327 327 326 327 330 315 301 302 311 337 333 318 314 311 310 304 303 299 302 302 300 302 307 307 306 304 305 302 301 301 304 305 306 306 307 307
323 323 323 323 323 323 324 324 325 326 325 325 327 329 306 295 307 311 316 310 313 311 309 310 307 307 302 300 300 302 303 303 304 303 303 301 301 301 301 304 304 304 304 306 306
323 323 323 323 322 322 323 324 325 325 325 326 327 322 305 303 305 307 311 306 309 311 309 312 310 305 303 299 303 302 298 299 300 301 301 301 298 298 302 303 303 302 303 304 305
322 322 322 322 322 322 323 324 324 325 324 327 327 309 298 309 304 307 306 305 308 310 312 312 312 308 304 303 299 296 294 290 296 300 301 299 291 298 301 301 301 300 300 301 303
321 321 321 322 322 322 323 323 323 324 325 327 311 305 300 312 300 304 304 304 306 308 309 313 310 303 302 295 291 291 286 288 293 299 299 297 291 297 299 302 301 300 300 301 302
320 321 321 320 321 322 321 320 321 320 320 319 315 297 301 299 302 304 303 307 305 306 306 303 300 295 293 291 286 286 287 288 288 294 296 294 294 297 298 301 301 301 301 301 302
319 319 319 321 320 320 312 308 303 302 303 297 299 296 300 302 304 301 305 304 305 302 294 298 292 290 293 294 291 290 289 288 291 296 296 294 296 298 299 299 300 300 301 301 302
318 318 319 319 320 318 311 306 303 304 297 305 304 305 307 302 297 299 305 298 298 294 296 293 290 295 297 297 295 292 289 289 292 296 295 294 294 298 300 297 301 301 301 302 303
317 317 318 319 319 309 303 306 311 308 295 299 304 303 303 304 298 297 302 298 296 293 294 290 294 300 297 294 293 293 291 290 290 294 294 292 293 293 297 299 300 301 303 304 303
316 316 317 317 309 303 306 311 310 306 290 295 300 302 302 303 298 304 303 300 296 293 293 293 298 297 295 294 295 290 296 295 294 290 287 292 286 289 293 295 297 300 301 301 302
317 316 316 315 298 305 309 312 307 303 281 297 298 305 301 298 298 301 304 301 294 295 294 292 294 294 294 295 296 293 297 295 294 289 287 288 285 286 290 291 294 297 298 301 303
316 316 316 309 305 307 314 308 304 289 282 294 298 296 295 297 297 302 300 302 300 296 295 294 298 297 296 298 298 298 294 293 290 287 282 288 287 290 292 293 295 298 298 298 300
315 315 313 315 305 307 310 301 289 284 296 293 295 297 293 292 294 296 295 292 289 286 285 290 292 296 298 293 296 294 289 282 281 280 283 288 286 291 291 293 294 297 299 299 296
314 315 316 316 311 309 302 294 282 291 293 300 299 298 292 293 293 294 292 290 294 290 286 285 286 292 296 294 292 291 291 285 278 279 284 287 283 290 295 297 299 298 299 299 299
312 308 309 314 312 307 296 286 286 292 296 296 296 291 290 294 295 294 290 290 293 292 287 286 286 295 297 297 296 290 287 294 286 289 280 287 288 293 294 294 296 295 296 297 300
306 306 307 313 305 302 292 290 291 298 298 297 290 293 288 292 292 292 291 295 297 301 300 291 286 294 296 296 295 293 294 286 284 280 280 285 282 286 289 292 295 295 296 296 298
300 301 308 308 304 297 288 289 295 300 297 295 292 292 292 290 291 291 292 297 301 300 300 297 291 292 294 292 292 292 289 289 288 286 283 281 285 292 294 296 296 295 294 296 297
294 293 303 304 294 290 289 293 299 295 293 293 294 295 292 290 290 292 292 295 297 299 294 298 295 289 292 298 300 297 292 290 286 285 285 286 287 293 292 294 294 294 295 296 296
291 291 298 300 286 286 288 289 292 289 289 291 290 292 290 289 284 291 288 296 295 292 293 296 291 283 285 290 291 288 290 290 288 287 284 282 286 296 295 295 298 298 297 297 296
290 284 289 290 288 284 283 284 286 291 290 290 288 290 287 285 288 285 286 291 293 293 299 297 290 286 281 286 289 286 288 289 287 281 281 282 284 288 291 292 296 297 299 299 295
290 287 288 282 283 284 284 284 284 284 289 289 286 287 285 282 283 283 286 288 291 295 293 291 283 285 285 286 287 286 287 288 285 285 281 283 284 287 291 294 294 296 297 296 298
288 287 289 285 285 283 284 281 284 287 287 286 284 288 287 283 284 283 286 286 285 289 288 289 282 284 281 284 284 283 285 286 286 286 285 286 285 292 294 297 295 294 295 296 297
293 293 289 286 283 281 282 285 287 287 288 290 288 287 285 287 290 290 290 290 289 286 285 284 282 279 277 282 282 278 282 283 285 287 287 284 290 294 293 293 292 292 295 296 297

GFSSW_sfc_thetae_012.txt.gz
Theta_e
323 322 322 323 323 323 324 325 326 326 327 327 328 329 329 330 326 308 304 314 318 334 333 321 319 315 314 311 315 310 300 296 299 299 302 305 303 304 305 302 304 305 304 305 309
326 325 325 324 324 325 326 326 326 326 327 328 329 329 328 330 310 303 316 333 329 334 317 313 309 311 306 306 307 302 296 298 304 304 303 305 302 302 302 301 302 302 304 305 311
322 324 324 324 324 324 325 325 326 326 327 328 328 328 329 325 301 301 331 333 329 326 316 314 313 310 302 305 304 301 296 299 305 307 307 304 301 304 302 299 303 304 304 305 308
323 323 324 324 324 324 324 325 326 327 327 327 326 329 329 310 290 305 337 334 329 321 312 311 307 302 299 298 304 298 304 306 307 307 305 302 303 300 302 304 306 306 305 305 306
323 323 323 323 323 323 323 324 325 325 326 325 326 329 311 299 300 309 336 329 313 312 309 308 302 301 297 300 301 299 301 305 307 306 303 303 301 301 300 303 304 305 305 305 307
323 323 324 323 323 323 323 324 325 325 325 325 326 327 304 293 305 311 313 308 311 309 307 308 305 305 300 298 298 300 301 302 303 303 302 301 300 300 301 302 303 304 303 304 307
323 323 323 323 323 323 323 324 324 325 324 325 326 318 302 299 304 306 309 304 307 309 307 310 309 304 301 298 301 300 297 298 298 300 301 300 297 297 301 301 300 302 301 303 305
322 322 322 322 322 322 323 323 324 324 324 325 326 306 297 306 304 306 306 304 306 308 310 310 310 306 302 302 298 294 293 290 295 299 301 299 293 298 299 300 300 299 299 301 303
321 320 321 321 321 322 323 322 323 323 324 326 308 304 297 313 299 302 303 302 304 306 307 311 307 301 300 294 291 290 286 287 291 298 297 296 292 296 296 298 298 298 299 300 302
319 319 320 321 321 320 320 320 319 319 320 318 312 294 298 297 301 302 300 305 304 304 304 302 298 294 292 291 285 286 285 287 287 292 295 293 292 297 296 298 298 299 298 298 300
318 318 318 319 320 320 312 307 300 299 301 295 296 294 298 301 303 300 303 303 303 301 292 296 291 287 290 292 292 288 287 287 289 294 293 292 294 296 299 297 298 298 299 299 301
317 317 317 318 319 318 309 304 301 302 297 303 302 303 306 303 298 297 304 296 296 291 294 292 288 293 295 294 294 292 289 289 291 294 293 292 292 296 298 297 299 300 300 301 302
317 317 317 318 318 308 303 305 309 305 293 297 303 301 302 304 299 296 301 297 294 291 292 289 291 298 295 292 291 291 289 289 289 292 292 291 291 293 295 298 297 299 302 303 302
317 317 317 317 306 301 306 311 309 304 289 294 298 300 301 302 297 302 302 298 294 291 291 291 296 295 292 292 292 287 293 293 292 288 286 290 285 288 291 294 294 297 299 300 301
316 316 316 311 299 304 308 312 306 301 281 296 297 304 300 297 297 299 302 299 292 293 293 290 292 292 292 293 294 291 296 293 292 288 286 287 284 291 290 289 293 295 296 299 301
315 315 316 310 304 307 308 307 302 289 280 293 297 296 295 295 296 300 298 300 298 294 293 294 296 295 295 297 296 296 292 291 289 286 281 288 286 289 290 291 293 295 296 297 298
315 315 312 313 305 307 306 299 288 283 294 293 295 298 293 292 293 295 294 290 289 285 283 288 291 295 296 291 293 293 288 281 280 280 282 288 286 291 291 290 293 295 297 299 297
314 316 316 314 311 309 300 293 282 290 291 298 297 296 291 295 293 294 291 289 292 288 285 283 284 290 294 291 288 288 288 282 278 277 281 285 282 289 292 294 294 296 296 296 297
313 308 308 307 309 304 296 285 285 290 295 294 294 290 290 293 293 293 290 289 293 296 287 286 284 296 299 298 294 288 285 290 285 288 283 286 288 294 295 294 294 295 295 296 298
306 304 304 304 305 300 292 289 290 296 296 295 288 291 287 290 290 289 289 296 297 299 298 293 288 295 296 298 296 291 292 285 284 279 279 283 283 286 291 294 294 293 295 297 298
301 299 305 302 304 296 287 288 294 297 292 291 291 290 291 287 288 287 289 294 297 295 298 294 291 290 294 292 291 292 290 288 288 288 282 280 284 289 287 290 292 294 296 298 299
294 291 301 301 292 288 288 290 295 291 291 290 291 291 288 288 285 287 289 292 294 292 290 294 291 284 286 292 296 294 292 291 284 282 282 281 282 292 292 292 293 293 296 299 300
290 289 296 298 285 281 284 286 291 288 288 288 287 290 288 285 281 286 287 292 292 290 287 291 284 277 279 282 288 286 290 290 287 285 280 278 281 294 293 291 292 292 296 298 299
289 281 286 288 286 282 281 281 284 289 289 289 287 289 286 284 286 283 285 290 291 291 297 294 285 282 277 280 285 282 284 285 283 278 278 280 283 287 289 289 291 293 296 296 296
289 285 286 280 282 282 282 283 282 283 288 288 285 286 284 281 282 282 285 286 289 293 291 287 280 282 283 284 284 283 282 283 281 281 278 281 282 286 290 291 292 295 295 295 294
287 284 286 283 284 280 283 279 283 286 286 284 282 286 286 281 283 281 284 285 285 287 286 286 281 283 280 283 282 280 282 283 283 283 282 283 283 290 294 295 295 294 295 293 293
291 291 286 284 282 279 280 282 286 286 286 288 286 285 284 286 288 289 291 289 288 285 284 283 280 276 275 281 280 276 281 283 284 286 285 281 286 288 288 289 292 294 294 294 294

GFSSW_sfc_thetae_015.txt.gz
Theta_e
322 322 322 322 322 323 324 325 326 326 326 327 328 329 329 330 327 312 306 315 321 334 333 321 320 318 319 318 320 316 309 303 306 305 310 310 309 308 310 309 309 312 311 313 316
325 325 324 324 324 324 325 325 325 326 327 328 328 327 327 329 314 307 317 329 330 333 319 315 314 315 312 313 314 311 305 305 309 309 309 310 308 308 307 307 308 309 311 311 318
323 324 324 324 324 324 324 324 325 326 327 328 327 327 328 327 305 304 330 332 330 323 318 316 315 314 310 312 309 305 304 304 307 311 311 309 306 308 307 305 309 310 312 311 316
324 324 324 323 323 324 324 324 325 326 327 327 326 328 328 313 295 307 336 334 329 321 315 314 312 310 306 304 308 304 307 308 311 311 308 307 307 305 307 313 311 312 311 310 314
322 324 324 323 323 323 324 324 325 326 326 325 326 329 313 302 303 310 333 325 315 314 312 312 308 307 303 304 306 304 305 307 310 310 308 307 306 306 305 309 310 310 310 310 313
322 323 323 323 323 323 323 324 325 325 325 325 326 327 308 297 307 314 313 309 313 313 312 313 309 309 305 303 303 303 304 305 306 307 306 304 306 305 306 308 307 308 309 310 311
323 323 322 322 323 323 323 324 324 324 324 325 326 316 304 299 308 308 310 307 310 313 311 314 313 309 307 303 304 302 300 302 303 305 305 305 302 301 308 307 307 306 309 309 310
322 321 321 322 321 322 323 323 323 324 324 324 325 309 299 307 310 308 310 308 310 313 314 316 316 311 307 307 303 299 299 296 300 302 305 305 298 304 305 305 306 306 307 307 309
320 320 320 321 321 321 321 322 322 322 323 326 312 307 297 314 302 305 308 305 308 311 312 312 311 305 304 300 297 296 292 292 295 300 301 301 299 303 302 301 302 304 304 305 307
319 318 318 319 320 321 321 319 320 320 320 318 310 298 301 300 303 304 306 308 306 308 306 305 302 299 297 297 289 290 291 291 292 297 298 298 297 301 304 302 303 304 305 304 305
318 318 318 319 319 320 312 307 301 300 304 297 298 296 300 303 304 302 305 306 307 303 296 300 295 291 294 297 295 293 291 291 295 297 295 296 296 299 302 301 302 303 304 304 305
318 318 318 318 319 318 308 304 303 305 298 304 303 303 305 306 301 300 306 300 301 296 298 295 292 295 295 295 295 294 292 292 295 297 295 295 294 298 300 301 303 303 304 305 306
317 318 318 319 318 309 307 307 310 308 296 299 303 303 303 305 300 300 303 300 298 294 295 291 293 297 296 294 293 293 291 291 291 295 296 293 293 297 299 301 302 302 305 306 306
317 317 317 317 306 303 307 313 311 307 291 295 299 301 302 304 300 303 303 302 299 294 293 294 297 296 294 293 294 289 295 294 293 291 288 295 287 295 298 299 299 301 303 304 306
316 316 316 312 301 306 309 312 308 302 283 297 298 305 301 300 300 301 303 303 295 295 296 293 295 295 294 295 296 294 296 294 294 291 291 292 290 295 298 297 299 303 303 302 304
316 315 315 311 306 307 308 308 303 290 284 295 300 298 297 297 297 300 301 303 301 297 296 295 298 298 296 298 297 299 296 294 292 291 286 291 290 292 295 296 298 301 302 303 303
316 316 314 312 306 311 306 301 289 284 295 293 295 297 296 294 295 296 295 293 290 288 287 290 292 297 298 294 296 296 291 285 284 284 285 291 290 293 297 300 299 299 300 300 303
314 316 315 306 308 308 301 293 284 291 291 297 296 295 292 295 295 295 294 291 297 292 288 286 287 293 298 297 294 293 292 286 280 282 285 291 286 292 298 298 298 299 299 301 303
313 308 304 303 307 303 296 285 287 291 294 294 294 290 291 294 294 292 291 292 296 297 291 290 288 298 299 299 296 292 290 293 287 290 285 289 292 297 300 296 295 296 296 297 300
306 304 301 302 303 300 293 289 292 294 292 295 289 292 289 290 290 289 289 297 296 296 299 294 286 295 298 299 297 295 295 287 288 281 279 286 288 289 295 291 294 294 295 295 299
302 297 302 300 303 296 288 290 295 295 291 291 292 290 291 287 288 287 288 290 292 291 295 294 291 289 292 289 289 289 286 287 289 287 281 280 285 291 291 293 291 292 295 296 299
295 289 299 300 292 288 288 291 295 290 291 291 292 289 288 287 285 288 289 289 292 292 287 292 290 282 283 290 292 290 289 286 279 278 280 277 276 291 293 291 291 293 295 297 298
290 288 294 294 281 279 283 286 290 288 288 288 287 289 289 286 281 285 287 292 291 289 286 290 284 277 278 283 287 284 286 285 285 283 277 274 276 289 290 290 293 293 296 297 299
287 282 286 288 286 282 281 283 283 290 289 289 287 289 286 284 287 283 285 289 290 290 295 293 286 282 276 279 285 281 283 285 283 277 278 279 280 285 288 289 292 294 296 297 298
287 286 287 279 283 284 283 283 282 284 288 287 286 286 285 282 283 283 285 285 289 292 290 288 281 283 283 284 284 283 282 283 281 282 278 281 281 286 288 289 290 292 294 295 297
286 284 284 284 284 281 282 281 284 285 286 283 284 286 285 282 283 281 284 285 284 287 287 288 280 283 280 283 283 280 283 283 283 283 283 284 283 290 290 292 291 292 293 294 296
290 291 284 284 282 279 281 284 285 286 286 288 287 285 284 285 288 289 289 289 288 285 284 284 282 280 275 281 280 277 281 282 282 284 284 280 286 290 289 290 291 292 293 294 296

GFSSW_sfc_thetae_018.txt.gz
Theta_e
322 322 322 322 322 323 323 325 326 327 327 327 328 329 329 330 328 314 308 319 324 335 334 323 322 323 323 323 326 324 311 307 310 311 312 318 318 318 321 324 319 321 322 321 325
324 324 323 323 324 325 325 325 326 326 327 328 328 328 328 329 315 310 322 329 330 333 321 318 315 318 316 316 319 315 308 308 314 315 314 316 316 318 314 317 317 319 321 319 327
324 324 324 324 324 324 324 325 325 326 327 328 328 327 328 327 309 311 333 329 329 326 321 320 319 317 310 315 312 311 305 309 309 313 316 315 314 316 314 314 318 318 321 320 324
321 322 324 323 323 324 324 324 325 326 327 327 327 329 328 316 299 312 331 328 328 322 318 317 315 311 308 306 312 306 309 311 311 313 313 312 314 313 315 317 319 319 321 321 320
321 322 323 324 323 324 324 324 325 326 326 326 327 329 318 306 307 315 329 324 318 317 315 314 310 311 305 307 309 308 308 310 312 312 312 313 311 311 312 316 319 318 316 317 319
322 323 323 323 323 323 324 324 325 326 326 326 327 327 311 302 312 317 316 313 315 315 314 315 312 313 309 307 307 308 308 308 309 310 311 309 309 311 311 316 315 316 316 317 318
322 322 322 322 322 323 323 324 324 324 324 325 326 317 307 304 315 314 314 312 314 314 313 316 316 312 311 306 309 308 304 307 307 308 308 310 305 307 313 314 312 312 314 316 318
321 321 321 321 322 322 322 323 323 324 324 324 325 313 304 312 315 312 313 310 313 315 315 317 317 313 310 311 308 303 303 300 305 306 308 307 300 308 311 310 310 311 312 314 315
320 320 320 320 321 322 322 322 322 322 323 325 314 310 303 318 307 309 312 308 311 314 315 315 315 310 309 303 301 302 296 299 301 305 305 305 302 307 309 308 307 309 310 311 313
319 319 319 319 320 321 321 319 323 323 321 319 314 304 307 304 307 308 310 311 309 311 309 309 308 304 304 301 293 296 296 297 297 302 302 300 300 304 307 307 307 308 309 310 311
319 319 319 319 320 320 317 318 311 309 310 302 303 301 304 309 309 307 309 309 310 307 301 305 300 298 300 301 300 298 296 296 300 303 301 300 300 303 306 306 306 308 308 309 310
318 318 319 319 319 317 317 311 310 311 303 307 307 307 309 311 305 305 310 303 303 299 302 301 298 301 299 299 299 298 296 296 300 301 300 300 300 304 306 306 308 308 308 310 311
318 318 318 319 318 316 315 312 317 313 304 303 306 307 307 308 303 304 306 304 300 298 299 297 299 300 298 298 297 298 296 297 297 300 302 301 300 304 307 307 308 309 310 311 311
317 317 317 317 313 314 315 318 319 313 302 300 303 305 306 307 302 307 307 304 301 298 299 299 301 298 298 298 299 296 300 299 298 297 294 301 292 301 305 305 306 308 310 310 310
317 316 316 312 313 314 313 317 317 313 292 301 302 309 307 303 303 305 307 304 299 299 299 299 298 298 297 299 300 297 301 299 298 297 297 297 294 299 304 302 303 306 306 307 309
317 315 316 316 316 314 317 316 313 299 291 299 304 302 303 303 302 305 305 306 304 299 300 300 303 300 300 300 300 301 299 300 299 297 290 296 295 296 299 300 303 304 305 304 304
317 318 318 316 313 317 317 311 299 294 300 297 298 301 300 300 301 302 300 302 299 295 295 298 298 300 302 299 302 301 298 291 290 290 290 296 294 297 302 302 301 300 301 301 302
315 315 314 308 313 315 312 304 292 294 296 300 299 299 297 299 299 299 298 297 302 300 297 294 291 297 302 299 296 298 296 290 283 286 288 295 290 296 304 305 304 303 302 300 300
313 317 309 307 312 313 307 297 295 296 296 296 297 294 295 298 296 295 297 298 296 297 294 293 292 300 299 301 300 296 293 297 291 292 287 291 295 300 302 302 298 299 299 297 299
319 314 304 306 311 311 304 294 296 296 293 296 292 296 291 293 292 292 291 296 295 294 297 295 286 293 298 298 300 293 295 285 288 279 280 286 287 289 293 291 293 294 295 297 299
316 306 304 306 312 307 298 297 298 295 295 294 293 291 293 291 291 288 290 291 293 292 295 292 290 290 292 288 287 287 287 289 289 287 280 279 283 293 289 290 290 293 296 297 299
308 297 304 307 301 299 296 295 296 292 295 294 295 293 291 289 286 287 289 291 293 293 288 291 287 282 285 290 291 290 289 287 281 279 282 281 280 291 291 291 293 294 297 298 300
299 298 303 302 291 289 290 291 292 292 292 291 290 292 292 288 284 287 289 293 293 291 288 290 286 280 283 288 291 286 287 287 286 286 279 277 280 292 292 292 294 295 296 298 299
298 293 295 297 295 291 288 287 287 294 291 292 291 292 288 286 289 286 287 290 292 291 294 293 287 284 280 282 286 283 284 286 285 280 281 281 282 287 289 291 294 295 296 297 298
298 292 292 289 290 290 290 288 287 287 291 291 289 289 287 284 285 284 288 288 290 292 292 290 283 285 286 286 285 284 284 284 283 284 280 283 283 287 289 292 293 295 295 295 296
295 294 294 292 291 289 289 287 287 288 288 286 287 288 288 284 285 283 286 287 287 289 288 290 282 284 281 284 284 282 284 285 285 285 284 284 284 291 293 295 294 294 294 294 295
300 300 295 288 289 288 288 288 288 288 289 291 289 288 287 288 291 292 293 292 291 288 287 287 284 281 277 283 283 279 284 284 285 286 285 282 287 291 292 292 293 293 294 294 295

GFSSW_sfc_thetae_021.txt.gz
Theta_e
322 322 322 322 322 323 324 324 326 327 327 328 329 330 329 331 329 321 312 322 328 340 336 323 322 320 322 321 325 325 310 306 309 310 312 317 316 320 324 322 323 326 325 325 328
324 324 323 323 323 324 325 326 326 326 327 328 329 329 328 330 320 312 325 328 332 339 320 317 315 317 315 315 318 313 308 307 312 314 313 315 315 316 316 316 316 320 325 325 326
324 324 324 324 324 324 325 325 325 326 327 329 328 328 329 327 313 313 331 329 332 331 320 320 318 316 312 315 313 311 306 310 311 311 313 312 312 315 314 313 314 314 319 324 324
321 321 324 323 323 324 324 325 325 326 327 328 327 329 330 322 303 315 331 329 332 323 319 316 315 312 310 308 313 307 310 310 311 312 312 310 313 311 313 314 317 318 322 322 323
322 323 323 324 324 324 324 325 325 326 327 327 327 330 322 311 310 319 326 324 319 318 315 314 311 311 307 309 310 308 310 311 312 312 312 312 310 310 311 315 317 318 318 319 321
323 323 323 324 323 324 324 324 325 326 326 326 327 327 316 305 314 318 316 314 316 316 315 316 313 314 310 309 308 310 310 309 310 310 311 308 310 311 312 315 314 315 316 317 318
322 322 322 322 323 323 324 324 325 325 325 326 327 320 310 308 316 316 315 313 315 315 313 316 317 312 313 308 312 309 305 308 309 309 309 311 306 307 313 315 313 313 314 315 316
321 321 321 322 322 323 323 323 323 324 324 325 326 317 307 315 318 314 315 312 314 316 314 318 318 314 311 312 308 305 306 301 307 308 309 307 300 308 312 312 310 311 312 313 314
320 320 320 320 321 322 322 322 323 323 323 325 317 312 306 316 310 312 314 310 312 314 316 315 315 311 310 305 303 304 299 301 303 307 305 305 302 308 311 310 309 310 311 312 313
320 320 320 319 320 321 321 321 323 322 320 318 314 307 307 306 310 310 313 312 310 311 311 310 309 306 306 303 296 298 298 299 299 304 305 303 302 306 309 309 308 309 310 311 312
319 319 319 320 320 320 319 319 315 312 313 306 305 305 307 311 312 309 311 310 310 309 303 308 301 300 302 303 302 300 298 297 301 305 303 302 302 305 309 310 310 310 311 311 312
319 319 319 319 320 319 320 313 312 315 306 310 309 309 311 312 306 308 312 306 305 302 305 303 301 303 302 302 300 300 299 299 304 306 304 303 302 306 309 310 311 310 310 311 312
319 318 318 319 318 316 317 315 320 317 308 307 309 308 308 311 305 306 308 306 304 302 302 301 304 303 300 301 300 301 300 300 299 302 304 303 301 305 309 311 310 310 311 311 310
318 317 317 317 312 319 317 320 322 317 305 302 305 307 309 309 304 309 310 306 305 301 303 303 304 300 301 300 302 298 302 301 299 298 294 303 292 301 305 306 306 307 307 306 306
317 316 316 310 316 317 316 321 322 316 295 303 305 313 310 306 306 307 310 307 302 302 301 300 301 300 299 300 302 298 302 300 300 298 298 299 296 301 305 302 304 304 304 303 303
319 317 317 318 319 318 322 321 317 302 294 301 306 304 305 306 306 308 307 309 308 302 303 302 306 302 301 302 302 303 302 302 302 300 292 298 297 298 300 302 302 303 304 305 302
317 317 320 319 316 320 322 314 302 296 302 300 301 303 302 302 303 304 303 303 300 296 297 301 300 302 305 301 304 302 297 291 291 292 292 299 294 298 303 303 301 299 301 301 301
315 316 312 312 319 318 316 306 295 298 299 303 301 300 299 301 301 299 300 299 300 299 298 296 294 299 302 299 297 298 296 290 284 287 290 296 290 296 304 303 302 299 299 299 300
312 318 312 310 316 318 310 300 299 299 298 298 299 297 298 300 296 296 299 299 297 297 293 293 294 300 299 301 299 296 292 296 291 292 288 291 295 300 302 298 296 295 296 296 299
320 313 306 310 317 315 306 298 298 297 296 297 295 296 293 294 294 293 293 296 295 296 298 295 286 294 297 297 299 297 294 286 289 281 281 287 288 289 292 291 292 293 294 296 299
318 309 305 310 315 309 302 300 298 296 297 296 294 292 294 292 291 290 291 294 295 294 296 293 289 290 296 291 290 290 288 290 290 288 282 280 284 294 291 291 291 293 294 296 298
312 301 305 309 304 304 300 296 296 293 296 296 296 294 292 291 288 289 290 293 295 295 289 292 288 283 287 293 293 291 289 288 283 282 284 283 282 293 293 293 293 293 295 298 299
303 301 306 306 296 294 295 292 294 293 293 292 292 293 292 290 286 289 290 296 295 292 290 291 287 282 287 290 292 289 291 289 288 288 281 278 280 293 293 293 293 293 295 297 298
303 299 300 301 299 295 292 290 290 295 292 293 292 293 290 289 291 288 289 292 294 292 294 293 287 284 281 285 289 285 287 288 286 282 282 282 283 288 290 290 292 294 295 297 297
303 296 296 295 293 294 294 291 289 289 293 293 291 290 288 286 288 287 290 290 292 293 292 291 285 287 288 288 287 286 285 286 284 285 281 283 283 287 289 291 293 295 295 295 296
300 299 298 294 293 293 291 290 290 289 290 288 288 290 290 287 288 286 288 289 288 291 290 291 284 286 283 286 286 283 286 286 286 286 285 285 284 291 292 293 293 294 294 294 295
303 301 300 290 292 293 292 291 290 290 291 292 291 289 289 291 293 293 294 293 292 290 289 288 287 284 279 285 284 280 285 286 286 287 286 282 287 291 291 292 293 293 294 294 296

GFSSW_sfc_thetae_024.txt.gz
Theta_e
322 322 321 321 322 323 324 324 326 327 328 328 329 330 331 331 329 321 315 321 329 344 340 327 324 326 324 326 329 332 310 303 305 307 311 315 311 316 319 317 318 317 320 321 327
324 324 323 323 323 324 325 326 326 326 327 328 329 329 329 330 322 316 327 335 340 343 321 318 318 319 317 320 321 315 308 308 311 311 309 311 310 312 310 311 311 312 318 322 326
324 324 324 324 324 324 325 325 325 326 327 329 330 330 329 327 318 316 336 338 339 333 320 319 318 318 315 319 314 314 307 312 310 312 311 310 309 311 308 306 312 311 312 317 320
321 322 323 324 323 324 324 325 325 326 327 329 329 329 330 321 303 317 337 336 339 326 318 316 316 316 315 310 315 308 310 309 312 312 311 308 311 308 308 309 313 312 313 314 318
323 323 324 324 324 324 324 325 326 326 327 328 328 330 321 313 309 321 335 332 319 318 315 315 312 315 309 310 310 306 308 311 312 311 310 311 308 308 308 312 313 313 313 312 314
323 323 324 324 324 324 324 325 325 326 327 327 328 327 318 305 314 318 315 315 315 316 316 316 313 314 308 309 307 309 309 308 308 308 309 307 307 308 309 312 311 311 310 310 311
322 323 323 322 323 323 324 324 325 325 326 326 328 319 311 307 316 316 315 314 315 314 314 316 316 312 312 309 313 310 303 305 307 307 308 309 303 304 309 311 309 309 307 310 311
322 322 321 321 322 322 323 324 324 325 325 327 328 316 306 315 318 313 315 313 315 317 316 320 318 314 311 312 307 303 303 298 307 308 309 306 297 307 308 307 306 306 305 307 308
321 321 321 320 321 322 323 323 324 325 325 326 316 313 306 318 310 312 314 310 312 315 320 314 316 312 312 304 301 303 295 299 301 307 307 304 298 305 308 306 305 304 304 305 306
320 320 320 320 321 321 322 322 324 322 320 318 314 306 307 306 310 310 314 312 311 312 311 311 309 305 304 301 293 295 295 296 295 301 303 301 300 304 306 306 305 305 304 305 306
320 320 319 320 320 321 319 315 313 311 313 306 306 306 308 311 312 309 311 310 310 309 304 310 301 298 300 301 300 298 296 295 299 304 302 301 301 303 306 306 305 306 306 306 307
319 319 319 319 320 320 317 315 312 315 305 311 309 310 311 312 306 308 312 305 307 302 306 303 299 303 303 303 301 299 297 297 301 305 301 299 299 303 305 306 305 304 303 303 303
319 319 318 319 319 314 317 315 321 318 308 306 310 309 308 311 306 306 309 307 304 302 303 300 303 305 301 301 299 299 297 297 297 300 301 299 297 301 304 305 304 302 301 300 299
318 318 317 317 313 319 316 320 323 319 303 302 305 308 310 309 304 310 310 306 305 301 302 301 304 301 301 299 300 295 301 299 298 295 290 299 287 296 300 300 300 299 299 299 298
317 316 317 313 316 315 317 322 323 316 295 303 305 314 310 306 307 307 311 308 301 301 302 299 301 300 298 299 301 296 302 299 299 295 294 295 291 295 300 297 298 299 299 297 298
319 319 318 317 319 318 322 321 317 301 292 301 307 305 305 306 306 309 308 311 310 303 303 301 306 303 300 303 303 303 300 298 296 294 288 294 294 293 295 296 294 295 295 295 296
317 318 318 319 315 321 321 314 301 295 303 300 301 303 302 301 302 303 303 300 296 292 296 300 301 303 304 297 304 300 294 286 286 287 288 295 291 292 296 295 292 292 293 294 295
315 315 317 313 319 321 317 306 296 299 299 303 301 300 299 300 300 298 299 298 297 295 294 293 292 299 300 297 294 294 293 287 281 283 286 293 286 292 296 294 294 294 294 294 294
312 318 312 310 318 318 310 299 297 298 298 297 300 297 298 300 296 296 297 298 296 295 289 290 293 299 298 299 298 294 289 292 287 289 285 288 292 296 293 291 292 292 293 293 294
317 310 307 311 318 314 305 298 296 296 297 297 295 296 294 294 293 293 294 296 295 295 296 292 283 292 297 298 297 294 295 285 285 278 277 283 284 285 286 288 290 291 291 292 294
315 309 305 311 313 309 300 298 295 296 298 295 294 292 294 291 290 290 292 294 295 294 295 292 287 289 292 291 288 289 287 288 287 284 277 277 281 289 288 289 289 291 292 292 293
312 302 307 309 302 303 298 298 296 294 296 296 296 294 292 291 289 289 291 294 296 294 288 291 286 281 285 292 293 290 287 287 282 280 281 278 279 291 290 291 292 291 292 293 295
304 303 309 307 295 293 295 293 295 293 293 294 293 293 292 290 287 290 290 296 296 292 289 290 285 279 284 289 291 289 290 290 287 285 280 276 278 292 291 291 292 291 291 293 295
304 299 301 301 300 296 293 291 290 295 293 294 293 293 291 289 291 288 289 294 295 292 294 292 285 282 278 282 287 284 286 287 285 279 279 280 281 286 288 289 290 290 292 293 294
303 296 298 294 293 294 294 292 291 290 293 293 291 291 288 286 288 288 290 291 293 295 292 291 283 285 286 287 286 285 284 285 283 283 279 281 282 286 288 288 289 291 292 293 293
301 299 299 295 294 294 292 291 291 290 291 290 288 291 290 287 288 286 288 288 288 292 290 291 283 285 283 286 286 283 285 285 285 285 284 284 283 289 290 290 290 291 292 292 293
304 303 300 291 294 293 292 292 291 291 291 293 291 289 289 291 292 292 292 292 291 289 288 287 285 282 277 284 283 279 284 285 285 286 285 280 285 289 289 290 290 291 292 292 293

GFSSW_sfc_thetae_027.txt.gz
Theta_e
321 322 322 321 322 323 324 324 326 327 327 328 329 330 331 330 329 321 312 320 329 345 342 325 325 320 319 315 319 315 299 296 298 301 304 308 306 310 310 310 313 312 315 318 324
324 323 323 323 323 324 325 326 326 326 327 328 329 329 329 330 320 314 326 336 341 344 321 315 313 313 308 310 312 306 299 299 305 304 302 306 306 306 305 304 305 307 310 319 323
323 324 324 324 324 324 324 325 325 326 327 328 330 329 329 327 315 313 337 338 339 337 320 316 315 315 307 308 306 304 299 305 306 307 309 306 305 308 303 301 303 305 309 315 318
321 322 323 323 323 323 324 325 325 326 327 329 329 329 329 319 299 316 337 335 338 330 319 313 311 307 304 303 307 300 306 307 307 310 308 305 307 304 305 305 307 308 307 310 315
323 323 323 323 324 324 324 325 325 326 327 328 328 329 319 309 304 319 335 329 326 316 313 311 306 305 301 302 303 300 303 307 308 307 306 306 304 304 305 307 308 309 310 307 307
322 322 323 323 323 323 324 324 325 326 327 327 327 328 314 301 310 317 313 312 314 312 311 311 308 309 303 302 301 303 305 304 305 305 304 303 303 304 305 307 307 307 306 306 307
322 322 322 322 322 323 324 324 324 325 326 325 327 319 309 303 311 309 312 310 312 313 310 312 311 307 306 302 307 304 300 301 302 303 303 304 299 300 304 304 303 303 298 300 303
321 321 321 321 321 322 323 324 325 324 325 327 327 312 300 312 310 311 312 310 311 312 314 314 313 309 305 306 304 297 296 291 300 303 305 301 293 302 305 302 301 301 300 302 304
321 320 320 321 321 321 322 323 324 325 327 327 314 308 300 317 308 308 309 308 309 310 311 314 312 305 304 298 293 295 288 291 294 300 303 299 294 300 303 302 300 299 299 304 304
320 320 320 320 320 322 322 322 324 323 320 317 314 300 303 303 308 308 306 310 309 308 308 308 303 297 296 294 287 287 287 290 289 296 299 297 296 300 301 302 300 301 301 300 301
320 320 320 319 320 321 318 310 308 305 308 302 303 303 306 307 309 306 308 307 307 304 296 302 294 290 293 295 295 293 291 291 295 300 297 295 296 299 302 300 297 296 295 296 297
320 320 319 319 320 319 314 311 308 308 300 309 308 307 310 309 304 305 308 301 301 296 299 295 292 298 302 300 297 295 292 291 296 301 297 295 295 298 297 296 296 295 294 295 297
319 319 319 319 318 311 312 312 316 313 301 305 308 307 307 309 303 302 306 302 298 296 297 292 298 303 300 298 296 294 292 292 292 297 297 294 291 295 296 297 297 296 295 296 296
318 318 318 318 311 314 311 316 317 313 294 299 305 306 308 309 303 309 308 304 300 297 297 295 301 300 297 296 296 290 298 297 296 292 285 294 284 291 293 294 295 292 291 293 295
319 317 317 316 307 310 313 315 314 309 287 302 304 312 307 304 305 306 309 304 298 298 296 294 296 296 296 297 299 294 299 296 295 291 289 291 286 288 294 289 288 289 291 291 294
318 318 317 314 311 312 316 314 310 295 287 300 306 303 302 304 304 308 306 306 305 300 299 296 301 299 297 300 299 300 297 293 291 289 282 289 289 287 288 286 287 288 290 291 292
317 317 316 315 309 313 313 307 293 288 300 298 299 301 299 297 299 300 297 293 290 286 288 295 296 300 299 294 298 294 287 281 281 282 282 290 286 284 286 288 289 289 289 290 291
315 315 314 310 312 313 309 298 288 297 296 302 300 298 296 296 297 295 296 292 293 290 287 285 286 296 295 294 290 289 288 282 277 278 282 289 282 285 289 290 290 290 290 290 291
313 310 305 302 311 309 302 291 289 292 295 294 296 293 295 298 292 292 292 293 291 290 284 285 288 293 297 296 293 289 284 288 282 284 279 283 286 286 289 288 289 289 290 289 290
307 301 297 303 309 306 296 293 289 294 295 295 291 292 288 289 288 286 290 293 293 293 291 286 280 289 295 295 293 289 291 282 280 274 273 278 280 282 283 285 288 289 290 289 290
307 299 298 301 305 300 292 290 292 295 296 293 291 290 290 287 286 285 290 292 294 292 292 286 283 283 287 286 283 284 282 283 282 279 273 272 277 284 283 287 288 290 291 291 291
301 292 299 299 293 291 288 293 296 294 295 294 293 291 288 288 286 286 289 290 294 292 286 286 282 277 281 288 291 287 283 283 275 276 277 272 276 287 288 290 290 290 291 290 292
291 291 298 297 285 285 289 292 293 293 292 292 291 291 290 287 283 287 290 295 294 290 286 286 279 273 279 285 288 285 286 286 283 280 274 271 278 290 289 289 290 290 289 290 292
294 290 292 291 289 287 286 287 288 293 291 292 290 291 288 286 287 285 287 294 293 291 296 290 282 277 273 278 283 281 284 285 281 270 277 278 280 284 287 288 289 287 287 289 291
293 287 290 284 286 286 286 288 288 288 290 289 288 288 286 282 284 285 288 288 292 295 291 287 280 282 284 285 285 284 283 284 281 281 276 280 281 284 286 285 286 289 291 291 292
292 289 289 286 287 286 287 284 288 287 287 287 286 289 287 283 285 283 286 284 284 288 286 286 279 282 280 284 284 282 284 284 283 283 283 283 281 286 288 289 289 289 290 290 291
295 295 291 289 286 285 284 287 289 289 289 291 289 286 286 288 289 288 287 287 286 284 284 283 280 277 272 282 281 276 282 283 283 284 283 279 283 288 288 289 289 290 290 291 292

GFSSW_sfc_thetae_030.txt.gz
Theta_e
322 322 322 321 322 323 324 324 325 327 327 328 329 330 330 330 328 318 310 319 327 345 341 324 323 321 318 312 317 312 296 295 296 298 300 305 303 307 308 303 305 310 308 316 321
323 322 323 323 323 324 324 325 326 326 326 327 329 329 328 330 319 312 325 336 341 342 318 314 311 312 306 309 311 304 296 295 302 302 300 304 303 304 303 302 301 303 308 318 322
323 323 324 324 324 324 324 324 325 325 326 328 330 329 328 326 312 311 337 338 338 334 319 316 312 313 305 307 306 304 297 302 305 306 307 304 303 307 302 299 301 301 306 307 316
322 322 323 323 323 323 324 324 325 325 327 328 329 328 328 317 296 313 335 336 339 327 317 313 310 305 302 301 306 299 304 305 306 308 306 303 305 302 303 303 305 305 305 306 315
321 323 323 323 323 324 324 324 325 326 327 327 327 329 317 305 302 316 335 327 318 315 311 310 305 303 299 301 301 298 301 305 306 306 304 305 302 301 303 305 306 306 306 304 304
322 322 322 322 322 323 323 324 324 325 327 326 326 327 312 298 309 316 313 310 312 310 310 309 306 307 302 300 299 301 303 303 304 303 303 302 301 302 303 304 303 304 302 302 303
321 321 321 321 321 322 323 324 324 325 325 325 326 319 306 301 309 308 310 308 309 311 309 311 310 304 304 300 305 302 297 298 300 302 301 302 298 299 304 302 301 299 300 302 302
321 321 321 321 321 321 322 323 324 325 325 326 326 311 297 310 308 309 309 308 309 310 311 311 310 308 303 304 302 296 294 290 298 299 303 299 292 299 302 300 299 299 298 300 300
320 320 320 320 320 321 322 323 323 325 326 327 312 305 299 316 305 306 307 306 307 308 309 313 309 303 302 296 291 291 286 289 292 298 299 298 293 299 301 300 297 296 296 298 298
320 320 319 319 320 321 322 322 323 321 320 316 314 298 301 301 306 306 304 308 307 306 306 306 300 295 293 292 285 286 286 288 288 295 298 296 293 295 298 297 295 293 292 296 296
320 320 319 319 319 320 316 310 305 301 305 300 301 301 304 305 307 304 306 305 305 301 295 300 293 289 292 293 294 291 289 289 292 298 295 293 292 293 294 293 292 291 292 293 295
320 320 319 319 319 318 312 308 306 306 299 307 305 306 308 307 301 303 307 299 299 294 296 294 290 297 298 298 296 294 290 290 294 299 295 293 290 293 293 292 292 292 291 293 294
319 319 319 319 317 310 310 310 315 310 298 303 306 304 305 307 301 301 304 301 296 295 295 291 296 301 299 296 294 292 290 290 291 295 294 292 289 290 293 292 292 292 293 293 293
318 318 318 318 311 311 309 314 315 311 293 297 303 305 307 307 301 307 306 302 299 295 295 293 299 298 296 294 294 289 296 296 294 291 284 293 281 288 290 287 288 287 288 291 292
318 317 317 316 305 308 312 313 311 307 286 300 302 309 305 302 303 304 307 303 296 297 295 292 294 294 294 295 297 293 297 295 294 290 287 288 285 285 287 284 285 287 288 288 291
318 318 317 312 309 310 313 312 308 292 285 299 304 301 300 302 301 305 301 302 301 297 296 296 299 297 296 298 298 297 293 290 289 287 280 286 287 285 282 283 285 287 288 289 289
316 316 315 314 308 311 312 306 290 288 299 296 297 299 297 296 296 298 294 290 288 284 285 292 295 297 297 292 295 292 286 280 280 280 280 288 284 281 284 286 286 287 288 289 289
314 315 313 309 310 311 306 296 286 295 293 299 297 297 295 294 294 295 294 290 291 288 285 283 284 291 294 292 288 288 286 280 275 276 280 287 280 281 287 288 288 288 289 289 289
313 308 301 300 309 308 300 290 289 290 293 292 295 291 293 295 290 293 289 290 289 289 283 281 284 291 295 294 291 286 283 287 281 280 278 281 281 285 286 286 286 287 288 288 289
306 297 296 300 307 304 295 291 287 292 294 294 289 290 288 287 286 285 288 291 291 291 289 284 278 286 291 293 290 287 289 282 280 274 273 276 277 280 282 283 286 287 286 288 289
305 294 297 299 305 298 290 288 290 293 295 292 289 288 287 285 284 283 288 290 292 290 289 284 281 282 285 284 282 284 282 282 281 278 273 271 276 283 283 284 286 287 289 290 287
296 287 296 298 291 286 286 291 296 292 293 292 291 289 286 286 284 285 288 289 293 290 285 285 281 277 279 285 289 285 282 281 275 275 276 272 275 287 285 288 289 288 289 288 290
289 289 295 295 285 283 287 290 291 291 290 291 290 290 288 285 281 285 289 294 292 289 284 284 278 273 276 283 286 283 284 284 282 278 273 271 277 287 289 289 289 286 287 288 290
293 289 291 288 286 286 284 286 286 292 290 290 289 289 286 284 286 284 287 292 292 290 296 289 280 276 274 277 281 280 282 283 281 270 276 278 280 285 286 287 286 287 288 288 290
289 286 288 283 285 284 284 287 286 286 288 288 287 287 284 281 283 283 286 287 290 294 289 285 279 280 282 283 283 283 282 283 280 281 276 280 280 284 286 284 286 288 289 290 291
291 287 287 284 285 284 286 283 287 286 286 285 285 288 285 282 283 282 285 283 283 287 286 285 278 280 278 283 282 281 283 283 283 283 282 282 281 287 286 287 287 288 289 289 290
293 294 289 288 283 284 284 285 288 287 287 289 288 285 284 286 288 287 286 286 285 284 283 282 280 276 272 280 279 275 280 282 282 283 282 278 283 285 286 287 287 288 288 288 290

GFSSW_sfc_thetae_033.txt.gz
Theta_e
321 321 322 321 322 323 324 324 325 326 327 327 328 329 329 330 328 317 309 317 326 345 341 320 320 316 314 311 315 309 295 293 295 296 298 303 301 305 305 301 302 303 304 311 318
322 322 322 323 323 323 324 324 325 326 326 327 328 328 327 329 317 311 327 336 341 343 315 312 309 310 305 307 309 302 292 293 299 300 298 302 301 302 302 300 298 300 303 307 322
323 323 323 323 324 324 324 324 324 325 326 327 328 328 327 326 310 309 338 337 339 331 317 315 312 310 304 306 305 302 296 300 303 305 305 303 302 304 301 298 300 300 302 304 315
321 322 323 323 323 323 323 324 324 325 326 327 327 328 327 316 295 310 337 337 340 323 313 311 308 303 301 300 303 298 303 303 305 306 304 301 303 301 301 302 303 302 302 303 302
321 322 323 323 323 323 324 324 325 325 326 326 326 328 316 301 301 313 335 323 310 311 309 308 303 302 298 299 300 297 299 303 304 304 303 303 300 299 301 301 302 303 302 301 301
320 322 322 323 323 323 323 323 324 325 326 325 326 326 310 296 307 313 311 308 309 309 308 308 305 305 300 299 298 300 301 301 300 301 301 300 299 300 301 300 300 300 299 299 300
321 321 322 322 321 322 322 323 324 324 324 324 326 320 302 300 308 306 308 306 307 309 307 309 308 301 302 298 303 301 295 297 297 298 300 300 295 298 299 300 298 297 296 298 298
321 321 321 321 321 321 322 323 324 324 324 325 325 309 296 307 307 307 308 306 308 308 309 309 308 305 301 302 299 295 292 289 296 298 299 298 290 295 298 298 295 295 293 296 297
320 320 320 320 320 320 321 322 323 325 325 326 310 303 296 313 304 305 305 304 306 306 307 311 307 301 300 294 290 290 286 287 291 297 299 297 290 293 297 295 293 291 292 295 295
320 320 319 319 319 320 321 321 322 321 319 316 312 296 300 300 304 305 303 306 304 304 304 303 298 293 292 290 283 285 285 287 287 294 297 291 289 291 293 292 290 290 290 292 294
320 319 319 318 319 320 315 308 303 300 303 298 299 299 302 305 305 302 305 304 303 300 293 298 293 288 291 293 292 290 288 288 291 296 293 289 288 290 291 291 290 290 290 292 293
320 319 319 318 318 317 311 305 303 303 298 305 304 304 306 305 299 302 306 298 297 292 295 293 289 295 297 296 294 292 289 288 292 297 293 288 287 290 291 290 291 290 290 291 292
319 319 318 318 317 310 309 309 313 308 297 301 305 302 303 305 299 300 303 299 295 293 293 290 294 299 297 294 293 291 288 288 289 293 293 289 286 287 289 289 290 290 291 291 291
317 317 318 318 311 310 308 312 313 308 292 296 301 303 305 305 300 306 304 300 297 293 294 292 297 297 294 293 293 287 294 294 293 289 284 290 280 285 285 285 286 285 286 289 291
318 316 317 316 306 308 310 312 309 305 283 299 301 308 303 301 302 302 305 303 295 296 294 290 293 293 292 293 296 292 296 293 292 288 285 286 283 283 284 283 284 286 287 287 290
317 317 316 311 308 309 311 310 305 289 282 297 302 299 298 300 299 303 299 299 299 295 293 294 298 296 294 296 296 294 290 288 288 285 280 283 285 282 283 283 284 285 288 288 288
316 316 314 313 307 310 310 303 289 284 297 295 296 297 296 294 295 296 292 288 286 283 284 289 293 295 295 291 293 291 284 278 278 279 279 286 283 280 283 285 286 285 287 288 288
314 314 312 307 308 310 304 296 285 293 292 296 295 296 293 292 292 294 293 288 289 286 283 282 282 289 294 290 286 286 284 278 275 275 277 284 279 280 285 287 287 288 288 288 289
313 306 298 299 309 306 299 289 287 290 292 291 294 290 291 292 289 291 288 287 287 286 281 280 281 289 292 291 289 285 281 285 280 278 276 279 281 282 285 285 285 286 287 287 288
305 294 294 298 306 302 294 290 287 291 293 292 289 289 289 286 285 285 287 289 289 289 287 282 277 284 289 291 289 285 288 281 278 274 273 275 276 279 281 282 285 285 285 287 288
304 290 295 299 302 296 289 287 288 292 294 290 288 287 286 285 283 283 286 289 291 288 287 283 280 280 283 282 281 282 280 281 280 277 274 271 275 282 282 284 284 285 286 287 287
293 287 294 297 291 284 286 289 295 291 292 291 289 288 285 285 282 284 286 288 291 288 283 284 280 276 279 284 286 283 280 280 275 274 274 271 274 285 285 285 286 286 287 288 289
288 288 294 294 284 282 286 289 290 290 288 289 288 288 287 284 280 284 287 292 291 287 284 283 277 273 276 282 284 282 283 283 280 277 272 271 275 284 284 285 288 285 286 288 290
291 288 289 287 284 285 283 284 285 290 289 289 287 288 285 283 284 283 286 291 291 289 295 288 278 276 276 277 280 278 281 282 280 270 274 277 280 285 286 285 287 287 286 288 289
288 286 287 283 284 283 284 286 284 284 287 287 285 286 284 280 282 282 286 288 289 293 288 284 277 279 280 281 281 281 281 282 279 278 275 278 278 283 285 286 287 286 288 289 289
290 287 285 283 283 282 285 283 286 285 284 284 283 286 283 281 282 281 284 282 283 286 285 283 277 279 278 281 281 280 282 282 282 282 281 281 281 287 288 284 286 287 287 287 289
292 292 289 287 282 283 283 284 287 286 286 288 287 285 283 285 287 285 285 285 284 285 282 281 279 276 271 278 278 275 279 281 281 282 282 278 283 284 284 285 285 286 287 289 290

GFSSW_sfc_thetae_036.txt.gz
Theta_e
321 321 321 322 322 323 324 324 324 325 327 327 327 329 329 329 328 316 310 316 325 345 339 317 315 312 312 310 313 306 294 292 294 295 296 301 300 303 304 299 300 301 302 304 310
322 322 322 322 323 323 323 324 324 325 326 326 328 328 327 328 319 312 327 337 341 340 314 311 308 309 304 306 307 300 291 292 298 298 297 301 299 301 300 299 298 298 302 304 310
323 323 323 323 324 323 324 324 324 324 325 327 328 327 327 325 312 309 335 337 340 329 315 313 311 309 302 305 304 301 295 298 302 303 303 301 301 303 299 296 296 296 299 300 301
321 322 322 323 323 323 323 324 324 324 326 327 327 328 327 314 294 308 334 337 338 319 311 309 306 302 300 298 301 297 302 302 304 305 303 300 302 297 296 296 300 299 299 300 299
320 322 323 323 323 323 323 324 324 325 326 326 326 327 314 300 300 310 332 320 309 310 309 307 302 301 297 298 299 295 298 302 303 302 301 302 299 296 296 299 298 299 299 298 299
319 322 322 322 322 322 323 323 323 324 325 324 325 326 308 295 306 309 308 307 308 309 307 307 303 304 299 297 296 298 299 299 298 299 300 299 298 297 297 298 296 296 295 296 297
320 322 321 321 321 321 322 323 323 324 324 324 325 318 300 298 306 306 307 305 306 307 305 307 306 299 300 295 301 299 294 295 295 296 298 298 293 292 296 296 294 292 292 295 296
320 321 321 321 321 321 321 322 323 323 324 325 324 309 294 305 306 305 306 305 307 307 308 307 307 304 299 300 297 293 291 287 294 298 299 297 287 292 295 293 291 291 291 293 295
320 320 320 320 320 320 321 322 323 324 325 325 307 300 293 312 302 303 303 302 305 306 307 310 306 299 299 292 288 289 285 285 290 297 297 293 287 291 293 293 290 289 290 293 293
319 319 319 319 319 320 321 321 321 321 318 315 310 295 299 298 302 303 301 304 303 303 303 302 296 292 291 289 282 285 286 286 286 293 292 288 286 289 291 290 289 288 289 291 292
320 319 319 318 318 319 314 306 301 299 302 295 297 297 300 304 304 302 304 303 302 299 292 296 292 287 289 291 291 289 287 286 289 294 289 286 286 288 290 289 289 288 289 290 291
320 319 319 318 318 317 309 304 300 300 297 303 302 302 304 303 298 302 304 297 296 291 293 292 287 293 295 295 293 291 287 286 291 295 289 286 285 288 289 289 289 289 288 289 291
319 319 318 317 317 309 307 307 312 306 297 300 303 301 302 303 298 300 301 297 294 292 292 289 293 298 295 293 291 289 287 287 288 292 289 286 284 285 287 288 289 289 290 291 291
317 317 317 318 310 308 306 311 311 306 291 294 299 301 303 303 299 304 304 299 296 292 293 291 296 295 293 291 292 286 293 293 291 288 282 288 280 283 284 284 285 285 285 287 290
317 316 317 316 305 307 308 311 308 303 280 297 299 306 301 300 300 301 303 302 294 294 293 289 291 292 291 292 294 291 293 291 290 287 283 284 283 283 283 282 283 285 286 287 287
317 316 315 310 307 307 309 308 303 289 281 295 300 298 297 298 297 301 297 298 297 293 293 292 296 294 293 295 294 293 289 287 286 284 279 281 283 281 280 282 283 284 287 287 288
316 316 314 311 306 309 308 300 288 283 295 293 294 296 295 292 293 295 292 287 286 284 282 288 291 292 294 289 291 289 281 277 277 278 279 284 282 282 284 284 285 285 285 287 288
315 314 310 306 307 308 303 295 282 290 291 295 294 295 292 291 290 293 291 287 287 285 282 282 283 288 292 288 285 285 283 278 275 274 276 283 279 282 284 286 287 286 286 287 287
313 302 296 298 307 305 298 287 285 289 291 290 293 289 289 290 288 289 287 286 286 285 279 279 280 287 289 289 288 283 281 284 279 277 275 277 281 282 283 284 285 284 286 286 287
302 293 294 296 305 301 294 291 286 289 292 291 288 288 287 286 283 284 285 288 288 288 285 281 277 283 287 289 287 284 287 279 278 274 273 274 275 278 280 282 284 284 284 286 287
300 290 294 296 301 296 290 287 287 292 293 289 288 286 286 284 282 282 284 288 290 287 285 281 279 279 282 281 280 281 280 280 279 277 274 271 275 281 283 284 283 284 285 286 287
291 288 293 296 291 283 286 288 294 290 292 290 288 287 285 284 281 283 285 287 290 287 281 282 278 275 278 282 284 282 279 280 276 274 273 271 274 284 283 285 285 285 286 286 288
287 287 294 293 284 282 284 288 289 289 287 288 286 287 286 283 280 284 286 291 289 286 283 282 277 274 277 280 283 280 282 281 278 276 272 271 275 284 282 283 284 285 285 286 288
290 286 288 286 283 285 283 283 284 289 287 288 286 286 284 282 283 282 285 290 289 288 295 287 277 277 277 277 279 279 280 281 279 271 274 276 279 283 283 283 284 286 285 286 288
288 286 286 283 283 282 283 284 283 283 286 286 284 285 283 279 281 281 285 286 288 293 286 283 277 277 279 280 279 279 279 280 278 278 276 280 277 282 283 283 285 285 286 287 287
288 286 284 282 282 283 284 283 285 284 283 282 283 285 282 280 282 281 283 282 283 285 284 282 277 278 277 280 279 279 281 281 281 281 280 281 280 287 287 282 284 284 285 286 288
291 290 288 285 282 283 282 283 286 286 285 286 285 284 282 284 285 284 284 284 283 284 282 280 278 275 271 277 277 275 278 280 280 281 281 277 282 283 282 284 284 284 286 287 288

GFSSW_sfc_thetae_039.txt.gz
Theta_e
321 321 321 321 322 322 323 324 324 324 326 327 327 329 329 329 328 319 310 317 328 345 337 318 318 316 317 318 318 310 305 300 301 301 302 306 305 308 308 306 305 305 304 306 311
322 321 322 322 322 323 324 324 324 324 325 326 328 328 328 329 320 311 328 338 340 341 316 314 313 314 312 313 314 307 302 299 302 304 304 305 305 305 306 302 302 303 305 306 309
323 323 323 323 323 323 323 323 324 324 325 327 328 327 328 326 311 310 336 338 341 332 317 315 313 313 309 311 309 306 302 303 305 306 306 305 302 302 302 299 299 299 301 303 305
321 322 322 322 323 323 323 323 324 324 326 327 327 328 327 317 299 309 339 337 336 318 314 313 311 309 306 305 305 304 305 305 307 306 304 303 302 299 299 299 301 301 302 303 303
320 321 322 322 323 323 323 323 324 324 325 326 326 327 317 304 303 309 330 320 311 314 311 311 307 306 303 303 303 302 302 304 305 304 303 302 299 298 297 299 300 301 301 301 302
319 321 322 322 323 322 322 323 323 324 325 325 325 326 312 300 308 309 308 309 309 312 310 310 308 308 304 302 301 303 302 302 301 301 302 299 297 300 298 299 298 299 299 300 301
319 321 321 322 321 321 321 322 323 324 324 324 325 318 304 302 310 308 308 308 309 311 309 311 311 305 305 301 304 302 299 300 299 301 301 301 295 294 298 297 296 297 298 299 300
319 320 321 321 320 321 321 322 323 323 324 325 324 311 299 307 309 306 308 308 309 310 311 313 311 307 304 304 300 297 297 295 297 301 301 301 292 294 297 296 295 296 297 298 299
319 320 321 320 320 320 321 321 322 323 325 326 312 306 299 313 304 306 308 306 309 309 311 310 309 303 303 297 294 294 292 292 294 298 299 298 292 293 296 295 294 295 296 297 298
319 320 319 319 319 319 320 320 320 321 317 316 309 300 302 300 304 305 307 307 305 307 307 305 300 297 296 295 289 290 291 292 292 296 296 292 290 292 294 294 293 294 295 296 297
320 319 319 318 318 318 314 307 302 301 304 298 300 299 301 306 306 304 306 306 306 302 298 300 297 294 295 296 295 294 292 292 294 297 293 290 290 292 293 293 293 294 294 295 296
319 319 319 318 317 317 310 305 301 303 299 304 303 303 305 305 300 304 307 301 300 296 299 296 294 298 298 297 297 295 293 292 294 296 294 289 289 291 293 293 294 294 294 295 296
319 319 319 317 317 310 308 309 313 309 298 301 304 302 304 304 300 301 304 301 298 297 296 294 297 299 298 296 295 293 292 291 292 294 291 289 288 289 292 293 294 295 295 296 296
318 318 317 317 311 309 307 312 312 309 291 295 300 304 304 305 301 305 304 303 300 296 296 296 298 297 296 295 295 291 295 295 293 292 289 291 285 287 288 289 290 292 291 292 293
316 316 317 316 307 307 309 312 310 303 283 297 301 308 303 302 302 303 302 304 297 297 298 295 295 295 295 295 298 294 294 293 293 291 289 288 287 290 287 285 288 290 291 292 293
317 315 315 310 307 309 310 309 303 290 283 296 301 299 299 299 298 301 298 299 299 295 297 295 298 297 296 297 296 294 291 290 290 288 284 286 288 289 284 286 288 291 291 292 293
315 316 314 311 305 309 308 301 290 285 297 294 296 298 296 294 295 296 293 289 289 289 289 291 293 294 296 293 294 292 286 284 283 283 284 288 286 291 289 288 290 290 291 293 293
315 315 308 304 307 308 303 295 284 291 293 295 295 296 294 292 292 294 293 288 289 288 286 285 287 291 293 292 289 289 287 284 280 280 281 284 284 289 289 290 291 292 292 292 292
312 298 296 297 306 305 297 287 286 291 292 292 294 292 292 292 290 291 290 288 289 288 285 283 284 289 290 291 291 288 285 289 282 281 280 283 285 288 287 287 288 290 290 291 292
298 293 294 295 303 302 294 290 289 290 292 292 290 291 289 290 287 288 288 291 289 289 289 285 282 286 289 291 290 289 289 283 283 279 277 280 280 284 284 286 287 288 290 291 292
295 292 295 294 300 297 290 288 289 292 293 291 290 288 289 287 286 286 286 290 292 288 288 286 283 284 286 285 285 286 285 283 284 282 280 277 282 286 287 288 288 289 290 291 291
290 289 294 297 292 285 287 289 294 290 292 291 290 289 288 286 284 285 287 289 291 289 285 286 281 280 283 285 287 286 284 285 283 279 278 278 280 288 288 288 289 289 290 291 291
288 288 294 294 286 284 286 288 290 289 288 289 288 288 288 285 283 286 288 292 290 288 285 286 281 280 283 284 287 284 284 282 282 281 278 279 283 287 287 287 288 289 289 291 291
289 286 288 286 284 286 285 285 285 289 288 288 287 288 286 284 285 284 287 291 291 291 294 288 280 281 282 283 283 282 283 283 283 279 280 281 285 288 287 287 289 289 290 290 291
288 286 285 284 284 283 284 284 283 284 287 287 285 286 284 282 283 283 287 288 290 295 288 286 281 280 280 281 281 281 281 282 281 283 281 285 282 286 287 287 288 289 289 289 290
288 286 284 283 283 283 286 284 284 285 285 284 284 286 284 282 283 282 285 286 285 288 287 284 281 281 279 281 281 280 283 282 282 283 281 283 283 289 290 288 287 288 288 288 290
290 289 289 284 282 283 284 285 287 286 286 287 286 285 284 285 286 287 286 285 286 286 284 283 281 278 277 278 279 278 280 283 282 283 284 280 286 287 286 287 288 288 289 289 290

GFSSW_sfc_thetae_042.txt.gz
Theta_e
322 322 322 322 322 322 323 323 324 324 325 326 327 329 330 330 329 323 311 320 326 345 338 321 321 321 323 323 323 317 314 308 305 304 306 310 308 312 312 310 309 310 310 312 320
322 322 322 322 322 323 323 324 324 324 325 326 327 329 328 329 323 311 327 339 342 345 318 317 315 318 318 318 320 315 312 304 307 309 308 309 308 309 309 308 307 308 311 315 320
323 322 322 323 323 323 323 323 324 324 325 326 328 328 328 327 315 310 338 341 342 334 319 319 317 316 313 317 314 312 308 308 309 311 310 308 306 307 308 306 304 304 307 312 315
322 322 322 322 323 323 323 324 324 325 326 327 327 328 328 322 301 313 339 335 337 320 317 316 315 312 311 309 311 308 309 309 310 308 307 306 307 304 305 303 305 306 307 310 310
320 321 322 323 323 323 323 324 324 325 325 326 326 328 321 309 307 314 331 324 316 317 315 314 311 311 308 309 308 307 307 308 307 307 307 307 304 303 302 303 305 306 307 307 308
319 320 322 322 322 322 323 323 323 324 325 325 326 326 316 304 313 315 313 312 314 316 314 315 312 312 310 307 306 307 306 305 307 307 306 304 303 304 301 304 304 304 305 306 306
318 320 321 322 322 322 322 322 323 324 324 324 325 320 309 307 315 315 313 312 312 314 311 313 312 308 309 305 308 306 303 305 305 306 304 306 301 299 302 303 302 303 304 304 304
318 320 321 321 322 321 321 322 323 323 324 325 325 316 305 312 316 311 313 312 314 315 315 315 315 311 307 309 305 303 303 300 303 305 304 305 299 300 302 302 301 301 302 302 302
319 320 320 321 321 321 320 321 322 324 325 326 316 310 303 318 309 311 312 309 312 313 315 314 313 309 308 304 301 302 298 298 299 303 303 303 300 301 301 301 300 301 301 301 301
319 319 320 320 320 319 320 320 322 323 319 319 313 306 307 304 309 309 312 311 309 310 310 310 309 305 305 302 295 296 297 298 298 301 302 300 298 299 300 300 300 300 300 301 301
319 320 320 319 318 318 317 315 311 308 311 304 304 304 305 310 311 310 311 309 309 308 303 306 303 300 301 302 301 300 299 298 300 301 300 298 298 298 299 299 299 300 300 300 300
320 320 320 318 317 317 317 311 308 312 304 308 307 308 309 310 305 310 312 305 304 301 303 303 300 302 302 301 300 300 298 298 299 300 300 299 298 299 298 298 299 299 300 300 300
320 320 319 317 317 316 316 314 319 315 305 305 308 307 308 309 305 307 309 306 303 301 301 300 301 302 301 300 299 299 297 297 296 299 298 297 297 296 297 298 299 299 300 300 300
320 320 318 317 314 317 314 318 320 315 301 300 304 307 308 309 305 308 308 306 304 300 301 301 302 301 300 299 300 296 299 298 297 296 294 296 291 295 297 295 297 298 299 299 300
318 317 317 315 316 313 315 320 319 314 290 301 304 312 309 305 306 306 306 307 302 302 302 299 299 299 298 299 300 298 298 297 297 296 294 294 292 297 296 293 295 297 298 299 299
316 316 315 315 318 315 318 317 314 298 290 299 304 303 303 303 302 305 303 305 303 301 302 300 302 300 300 300 299 298 296 295 296 295 290 293 293 297 293 295 296 297 297 298 299
317 316 316 317 313 317 317 314 298 293 301 298 299 302 301 299 299 301 298 296 297 294 296 297 298 298 299 297 298 297 294 291 290 290 291 293 292 296 298 296 298 296 297 298 299
315 316 309 308 316 316 315 304 293 295 298 300 300 300 298 297 298 299 297 295 293 293 295 293 292 296 296 296 294 294 293 290 285 288 290 291 289 296 295 297 298 298 298 298 298
313 308 308 305 312 315 309 297 296 297 299 298 298 297 297 295 295 296 296 295 293 292 291 291 290 293 293 295 295 293 292 294 289 288 287 292 293 296 293 294 295 296 297 297 297
310 307 304 303 311 314 304 297 297 295 296 297 297 296 295 296 293 294 293 295 292 292 294 290 288 290 292 294 295 294 295 290 291 285 284 289 289 292 291 292 294 295 296 297 297
308 304 303 305 309 309 299 297 294 295 297 296 297 295 296 295 293 292 292 293 295 291 293 291 288 288 290 291 292 291 291 290 290 289 286 286 290 296 295 295 295 296 297 298 297
306 300 303 306 303 300 300 295 296 294 296 295 296 295 294 292 291 291 291 293 294 293 289 290 289 288 289 290 291 291 290 292 288 287 288 286 288 295 295 295 296 297 298 298 298
303 301 304 304 299 298 294 293 294 293 293 293 292 293 293 291 289 290 292 294 292 291 290 291 289 288 288 289 291 289 290 289 289 289 287 286 290 294 294 295 295 295 297 297 297
301 297 300 300 297 297 294 292 291 293 293 293 292 292 291 290 290 289 291 292 293 293 293 292 289 289 289 289 290 288 288 289 289 287 288 288 291 295 295 295 295 295 296 296 297
301 297 294 295 295 295 294 293 290 290 292 293 291 291 290 288 289 289 291 292 292 296 292 292 288 287 289 288 286 286 287 288 286 289 286 290 290 293 295 296 296 296 295 295 295
301 298 295 293 292 294 292 291 290 290 291 290 289 291 290 289 290 289 291 292 291 293 292 291 288 287 286 286 286 285 288 288 288 288 288 289 288 295 296 295 294 294 294 293 294
300 298 301 290 292 294 294 292 292 293 291 292 291 291 290 290 292 292 293 292 293 292 292 289 288 286 285 284 284 284 288 289 289 290 289 287 293 294 293 293 294 294 294 293 294

GFSSW_sfc_thetae_045.txt.gz
Theta_e
322 324 325 324 323 322 322 323 324 324 325 326 327 328 330 330 328 327 315 321 326 344 342 324 324 322 325 324 325 321 316 311 307 307 308 311 309 313 314 312 312 313 313 317 324
322 321 322 322 322 323 323 324 324 324 325 326 327 329 329 329 326 313 328 342 343 345 321 319 317 319 320 319 321 317 314 308 310 311 310 310 310 310 310 310 310 311 315 320 324
323 322 322 322 323 324 323 324 324 324 325 326 328 328 328 327 319 312 337 342 341 333 321 320 319 318 315 318 316 315 311 311 311 312 311 309 308 310 310 307 307 307 310 315 318
322 323 323 323 323 324 323 324 324 325 326 327 327 328 328 325 304 314 336 338 339 323 319 318 316 314 314 312 313 311 311 311 311 309 309 308 310 306 309 307 308 309 311 312 313
321 322 323 323 323 323 324 324 324 325 326 326 327 327 324 313 309 316 331 330 319 319 317 315 313 313 311 311 311 309 309 309 309 310 310 310 307 306 304 307 309 309 310 310 311
319 321 322 323 323 323 323 323 324 324 325 326 326 326 320 306 315 317 315 315 317 317 315 316 314 314 311 310 309 310 308 307 309 309 309 307 306 307 305 307 307 308 308 308 308
319 320 322 322 322 322 322 322 323 324 324 325 326 323 314 309 316 316 315 314 316 316 312 315 314 311 311 308 310 308 305 306 307 308 306 309 304 304 306 307 306 306 306 306 306
319 320 321 321 322 321 322 322 323 323 324 325 326 320 309 314 317 313 315 314 316 318 317 317 316 311 310 310 307 305 305 301 306 307 307 306 300 305 306 306 305 305 305 305 304
319 320 320 320 321 321 321 321 322 324 325 326 321 316 305 315 311 313 314 311 313 315 316 316 316 311 309 305 303 304 298 302 302 306 306 305 302 306 306 305 304 305 305 304 304
320 319 320 320 320 320 320 320 321 323 321 321 317 308 308 306 311 312 315 313 311 311 312 312 310 307 306 303 296 299 300 301 300 304 304 304 303 305 304 304 304 304 304 304 304
319 319 320 320 320 320 317 316 313 311 312 307 307 306 307 311 313 312 313 311 311 309 304 308 304 301 304 305 304 302 300 300 303 304 301 301 302 303 303 303 303 303 303 303 304
320 320 320 320 319 318 318 313 313 315 305 310 309 309 311 312 307 311 314 307 306 303 305 304 301 305 304 304 303 302 301 301 303 303 301 302 302 305 304 302 303 303 303 303 303
320 320 320 320 317 315 317 315 321 318 307 306 309 308 309 311 307 308 311 308 305 303 304 302 304 305 303 302 301 302 300 300 299 302 304 301 300 302 304 303 303 304 304 304 303
320 320 320 318 311 318 317 320 323 321 302 302 305 308 310 311 306 311 311 309 306 303 304 304 305 302 302 301 302 298 302 300 299 299 295 300 292 301 301 299 300 301 302 303 303
320 320 319 314 318 314 318 323 322 318 291 303 305 314 310 307 308 308 310 310 304 304 304 301 301 301 301 301 302 300 301 300 300 298 297 298 293 300 301 297 299 300 302 303 303
318 317 317 317 321 319 322 321 317 300 292 301 306 304 305 306 306 307 306 308 307 304 304 303 305 303 303 303 302 302 300 300 299 297 291 297 295 298 298 299 301 302 302 302 302
317 317 316 319 316 322 321 316 300 294 303 300 302 304 304 303 302 303 302 301 299 297 297 300 300 301 302 299 302 300 298 292 292 291 292 297 294 297 302 300 302 302 301 301 302
316 317 314 314 321 321 317 306 295 298 300 304 303 303 301 302 302 302 301 299 297 297 296 295 294 299 300 299 298 298 297 292 287 289 292 295 291 297 299 301 301 303 302 301 301
315 315 315 312 317 319 311 299 299 300 303 301 302 300 300 300 298 300 299 299 297 296 294 294 294 297 297 298 298 296 293 297 292 294 290 294 297 298 297 297 299 299 300 300 301
314 313 310 310 316 316 307 300 300 300 300 301 299 301 298 300 296 297 298 298 295 294 296 295 290 295 295 297 297 296 298 292 293 287 287 292 294 294 295 295 297 298 299 300 301
311 308 307 312 314 311 302 300 299 299 300 299 300 299 299 298 298 297 296 296 297 294 296 295 292 291 293 293 295 294 293 293 293 292 288 287 292 298 297 298 298 298 300 300 301
312 303 308 313 305 308 303 299 296 298 300 299 299 299 298 297 296 296 295 296 297 296 293 294 293 290 292 293 294 294 294 294 290 290 292 290 290 300 298 298 298 299 300 301 302
307 305 309 310 300 300 299 297 297 297 297 297 296 297 297 296 293 294 295 297 295 294 293 295 293 290 290 292 293 290 294 293 294 292 288 287 291 298 297 297 298 297 299 299 300
305 300 303 307 304 301 299 297 295 296 296 296 295 296 295 293 294 293 294 295 295 295 294 294 293 291 289 291 292 291 292 293 292 289 290 291 294 298 299 298 299 299 299 299 299
307 303 300 299 299 300 299 298 294 293 295 296 294 294 293 291 292 291 294 294 294 297 295 294 290 292 292 292 292 290 290 291 290 291 288 291 291 295 297 297 297 298 297 297 297
305 302 301 300 298 298 293 295 294 292 294 293 292 294 293 292 293 291 294 294 294 296 294 295 290 291 289 291 289 287 290 291 291 291 291 291 291 298 297 298 297 298 298 296 297
305 304 305 295 298 299 299 297 295 296 294 295 294 294 292 294 295 295 297 295 295 294 294 292 291 289 287 289 289 287 292 293 293 294 293 289 294 297 296 296 297 297 297 296 296

GFSSW_sfc_thetae_048.txt.gz
Theta_e
323 324 326 327 327 325 324 324 325 325 325 326 327 328 330 330 328 324 319 321 327 345 341 327 325 328 327 333 334 333 316 308 309 310 308 313 309 311 313 309 309 311 311 316 322
322 322 322 323 323 323 324 324 325 325 325 326 327 328 329 329 322 321 329 342 344 345 322 318 320 321 322 328 326 319 315 310 312 311 310 311 310 309 310 308 307 308 313 317 321
324 322 322 322 323 323 324 324 324 325 325 326 328 329 329 326 320 312 334 337 340 336 321 319 319 319 322 323 321 318 311 312 313 313 311 311 308 311 309 305 305 305 308 312 314
323 323 324 323 324 324 324 324 324 325 326 326 328 328 328 323 304 313 336 337 339 325 319 317 317 319 319 316 319 311 312 314 316 313 311 310 310 306 306 305 308 308 308 309 308
321 322 323 323 324 324 324 324 325 325 326 326 327 327 323 314 309 317 335 331 319 319 316 317 313 320 313 315 314 312 310 310 311 312 310 311 308 305 303 306 307 309 309 306 306
319 321 322 323 323 323 324 324 324 324 325 325 326 326 318 308 315 316 316 316 317 318 316 317 314 314 313 312 310 312 310 308 309 308 309 306 306 306 305 307 306 307 305 304 304
319 320 321 322 323 323 323 323 323 324 324 324 325 322 316 308 316 315 316 315 317 317 316 315 314 311 313 311 314 309 304 305 307 307 307 309 303 302 305 306 304 304 302 303 303
319 320 321 322 321 322 322 322 323 324 324 325 326 319 309 315 317 314 315 314 318 319 319 320 318 316 312 312 308 303 302 298 305 307 307 305 297 305 304 304 303 303 300 301 301
319 320 321 321 321 322 322 322 322 323 324 326 319 317 305 317 311 313 315 311 314 316 321 315 318 314 313 304 300 302 295 298 302 307 306 302 300 304 304 303 302 300 300 300 299
320 320 320 320 321 321 321 321 323 321 321 320 319 308 307 306 311 312 315 314 312 314 313 314 310 305 304 301 293 296 297 299 298 302 303 301 299 303 303 302 301 301 300 299 299
319 320 320 320 320 320 318 315 312 312 314 307 306 306 307 311 314 312 313 311 312 310 304 310 302 298 302 304 303 300 298 297 300 304 302 300 300 302 302 301 300 300 299 299 299
320 321 320 320 320 320 315 312 312 315 304 310 309 309 311 312 307 310 314 307 307 302 306 304 297 305 306 305 302 301 298 298 303 303 300 299 298 303 302 300 301 301 299 299 299
320 321 320 320 320 314 314 316 321 320 306 306 309 308 308 310 307 308 311 309 305 303 303 299 304 305 303 304 300 300 298 298 297 302 302 299 297 300 303 302 301 301 301 300 299
320 320 320 320 310 316 316 320 323 322 301 300 304 307 309 311 306 312 311 309 306 302 305 303 305 303 303 300 302 297 302 301 299 297 291 299 287 295 299 297 298 299 299 299 299
319 320 320 317 314 313 318 323 323 318 290 303 305 313 310 307 308 308 312 310 304 304 305 302 303 302 300 301 303 299 303 300 300 295 293 293 289 293 298 295 296 297 298 299 299
318 319 318 316 317 320 321 322 317 299 291 300 306 303 303 306 306 308 307 310 309 303 304 302 306 304 302 303 303 303 299 299 298 294 286 292 291 292 294 296 297 298 298 299 299
317 317 314 319 314 322 321 316 299 293 304 300 301 304 303 303 303 304 303 301 299 296 296 300 300 301 302 299 302 300 295 288 286 286 287 295 292 291 296 297 297 298 298 299 298
317 317 318 315 320 322 317 306 294 299 301 305 303 303 300 303 302 302 301 298 300 297 294 293 292 299 301 299 295 298 294 287 282 283 286 294 287 292 297 298 297 299 299 298 297
315 314 315 314 319 319 310 298 297 301 303 302 302 299 300 301 299 300 300 298 296 295 292 292 292 297 298 299 298 295 290 295 288 289 285 289 292 294 294 294 294 295 296 296 297
312 312 313 313 318 314 306 300 300 301 302 303 298 301 298 299 296 298 298 298 296 295 296 294 288 296 295 297 297 294 296 288 288 282 280 287 288 288 290 291 293 293 293 296 297
310 307 308 314 314 309 299 299 299 301 303 300 300 300 300 299 299 298 295 297 298 295 296 294 291 290 293 292 293 291 289 290 289 287 281 280 285 291 293 294 293 294 295 296 297
313 301 310 313 303 306 302 300 297 299 301 300 300 300 299 299 298 298 295 297 298 297 294 293 290 287 291 293 295 293 292 291 285 285 287 284 285 294 294 294 295 294 296 296 297
308 305 310 310 298 300 300 298 299 298 299 298 298 298 299 298 294 296 296 298 298 296 293 294 289 285 286 290 292 289 292 292 290 288 284 280 284 294 294 293 294 292 293 295 295
305 300 304 306 306 300 299 298 295 298 298 297 296 297 296 294 296 294 295 296 297 297 295 295 291 288 285 287 291 288 291 292 288 282 284 285 289 293 293 293 293 293 293 293 295
307 305 301 298 299 300 301 299 296 293 296 297 294 295 295 292 292 292 295 294 295 298 295 293 288 290 291 292 291 290 289 290 287 288 283 287 288 291 292 291 291 292 294 293 294
304 303 302 300 299 299 295 296 295 293 294 293 293 295 295 292 292 292 295 294 294 295 294 294 288 290 287 292 289 287 289 289 289 290 289 289 288 293 293 293 292 292 294 294 294
307 306 305 298 300 299 299 297 296 295 295 296 296 295 293 293 295 295 295 295 294 294 293 292 289 286 284 289 289 285 290 291 290 292 290 285 290 293 292 294 293 293 294 294 293

GFSSW_sfc_thetae_051.txt.gz
Theta_e
323 325 326 329 329 329 327 325 325 326 326 326 327 328 329 330 328 323 318 324 330 346 342 327 325 320 322 319 321 316 306 299 300 303 302 306 305 307 308 305 306 308 308 312 317
323 322 323 324 325 326 325 325 325 325 326 326 327 328 329 329 320 318 327 338 341 342 321 316 314 314 311 316 316 308 301 303 307 306 304 307 306 306 304 303 302 304 309 313 313
324 322 322 322 323 324 325 325 325 325 325 326 328 329 328 327 317 311 336 334 339 337 322 319 316 316 312 313 310 309 302 307 310 310 307 307 305 308 304 300 301 302 304 308 308
323 323 323 323 323 324 324 325 325 325 325 326 327 328 328 320 302 310 333 337 340 331 319 316 313 310 309 308 310 303 307 310 311 310 308 306 306 302 302 301 305 304 304 305 303
322 322 323 323 323 324 324 324 325 325 325 326 326 328 320 312 308 314 335 333 324 320 315 314 309 308 306 306 307 304 305 307 307 308 306 307 304 301 300 303 305 306 305 302 302
320 320 321 322 323 323 324 324 324 324 325 325 326 326 315 306 311 312 315 314 316 318 313 311 308 308 306 305 304 306 306 305 306 305 306 304 302 303 301 303 303 304 301 300 301
319 320 321 322 323 323 323 323 323 323 324 325 325 319 314 309 310 309 313 311 315 317 315 313 311 306 306 304 308 304 299 301 302 303 303 304 299 299 302 303 301 300 298 299 300
318 319 320 321 322 322 322 322 323 324 323 325 326 316 308 312 309 311 312 312 315 316 318 315 314 311 307 305 303 298 296 292 299 303 304 301 292 301 301 300 299 298 296 298 298
318 319 320 321 322 321 322 322 322 323 324 325 317 312 301 316 308 310 311 311 312 313 315 314 315 308 305 297 293 294 288 291 297 303 302 298 294 299 300 300 298 295 295 296 296
318 319 321 321 321 321 321 321 321 321 321 318 317 306 306 304 309 310 310 313 310 311 311 310 304 298 298 294 287 290 290 292 294 300 300 297 295 298 299 299 298 295 295 296 295
319 320 321 320 320 320 317 311 307 306 311 305 305 303 304 308 310 307 311 310 309 305 298 304 296 292 295 298 298 295 292 291 294 301 298 295 296 298 299 297 296 296 294 295 296
319 320 320 321 321 319 312 309 308 308 300 308 307 306 308 308 304 307 311 303 303 297 300 297 292 299 303 301 299 297 293 293 297 301 297 295 296 298 299 298 299 297 295 295 295
319 320 321 321 319 312 310 312 316 314 299 305 308 305 306 308 305 304 308 304 300 298 297 293 300 304 302 299 298 296 293 293 293 298 298 295 293 295 297 297 299 299 298 296 295
320 321 321 320 308 311 308 316 317 315 292 298 303 306 307 309 304 310 308 306 302 296 299 297 302 301 299 298 298 292 299 299 297 292 286 294 283 290 293 293 296 296 295 296 295
319 319 320 317 309 310 314 316 314 310 284 300 303 311 307 304 305 307 309 306 300 299 297 294 298 297 297 299 300 296 300 297 296 290 287 288 285 287 293 291 293 294 295 296 296
317 318 318 313 310 313 315 314 310 293 287 299 303 301 300 303 303 307 305 305 304 299 299 298 302 299 298 301 300 300 296 294 293 289 282 287 287 286 290 293 293 293 295 297 296
316 317 315 317 309 314 314 308 291 286 301 297 298 301 299 298 300 301 299 295 293 289 288 295 296 298 300 295 298 296 289 282 282 282 282 290 287 288 292 293 295 295 294 296 296
315 316 315 314 311 313 309 298 287 296 297 303 302 301 297 299 298 299 297 293 293 291 288 288 287 294 298 294 291 293 290 283 279 280 282 290 284 287 291 293 294 296 295 295 295
314 307 309 307 311 309 302 290 290 296 301 300 300 295 295 298 296 296 293 292 290 290 286 285 287 294 295 295 294 290 285 289 284 282 279 283 286 290 291 291 292 292 293 293 293
303 303 304 307 309 306 297 294 293 299 300 300 294 296 292 294 292 292 292 294 292 293 290 287 282 292 293 294 294 290 292 285 284 278 276 281 282 285 287 288 290 291 291 293 294
301 298 301 305 305 300 291 291 296 299 301 297 295 296 295 294 292 291 291 294 296 293 291 287 285 285 289 287 288 287 285 286 285 283 278 276 281 288 288 289 289 288 291 294 295
301 293 301 304 296 294 292 295 298 298 299 298 296 296 293 293 291 291 291 292 295 293 289 288 285 282 285 288 291 289 287 286 281 280 281 278 281 289 290 291 292 291 293 293 295
299 294 300 302 290 289 292 295 296 296 296 296 295 296 294 292 288 291 293 296 294 293 289 289 283 279 282 287 289 284 287 288 285 283 279 276 281 290 289 290 291 290 292 292 293
295 291 294 296 294 292 291 292 291 295 295 295 293 293 291 289 291 289 291 294 294 295 295 292 285 283 280 282 286 283 288 288 285 276 279 281 283 288 289 289 289 289 289 290 292
295 293 293 289 292 290 291 293 291 290 292 292 290 291 290 286 288 287 291 291 292 297 292 289 284 285 287 289 288 287 287 287 284 284 280 283 285 287 288 287 288 289 292 291 292
294 293 292 290 291 289 290 288 291 290 290 289 289 292 288 286 287 287 290 289 289 291 289 288 283 285 283 288 287 285 287 287 287 287 285 286 285 289 290 289 290 290 291 292 292
296 296 297 292 290 290 289 290 292 291 291 292 291 289 289 290 290 289 289 290 290 290 288 287 284 281 278 286 286 281 287 288 287 288 287 282 286 290 289 291 290 291 291 291 291

GFSSW_sfc_thetae_054.txt.gz
Theta_e
325 325 327 328 329 329 329 326 325 326 326 326 327 327 329 330 327 321 316 325 327 345 343 324 323 320 320 316 319 315 300 297 299 300 300 305 303 306 306 304 305 307 307 311 315
324 323 323 324 325 326 325 324 325 325 325 326 326 328 328 329 319 316 333 334 341 341 319 316 313 314 309 314 314 308 300 300 305 304 301 306 304 304 303 301 301 303 307 309 310
325 323 323 322 322 323 324 324 325 325 325 326 327 327 328 325 316 316 336 335 341 337 320 318 316 314 313 311 308 307 302 305 308 306 307 305 304 307 302 299 300 302 304 306 305
324 324 323 323 323 323 324 324 324 325 325 326 326 328 328 319 301 310 335 337 343 330 319 315 312 310 307 305 309 303 307 308 309 308 306 303 305 301 302 301 304 303 304 303 302
322 322 322 323 323 324 324 324 324 325 325 325 326 327 317 310 312 312 336 333 323 319 315 313 308 308 304 305 305 303 304 307 306 306 305 305 302 300 299 302 303 304 303 300 300
320 320 321 322 322 323 324 324 324 324 324 325 325 327 313 305 310 312 312 312 316 320 313 313 307 308 304 304 303 305 305 304 305 304 304 302 300 301 300 302 302 301 299 298 299
319 320 321 321 322 323 323 323 323 323 323 324 324 321 313 310 309 308 311 309 313 317 315 314 312 306 305 303 306 304 299 300 301 302 302 303 298 298 300 301 300 298 296 297 297
318 319 320 321 322 322 322 322 323 323 323 324 325 317 307 314 308 309 311 310 314 315 316 315 314 309 305 305 301 297 296 291 297 301 302 300 293 298 300 299 298 297 295 297 296
317 318 319 321 321 322 322 322 322 322 323 324 317 311 304 315 306 308 310 309 311 311 313 313 313 306 303 296 292 293 287 290 294 302 301 297 293 299 299 299 297 294 294 295 294
317 318 318 321 321 321 321 321 320 320 320 318 317 305 307 303 307 309 308 311 308 308 309 307 303 298 297 293 286 288 288 291 291 298 299 295 294 297 298 297 297 294 293 294 294
318 318 320 320 320 320 315 309 305 305 309 303 305 303 303 306 309 306 310 309 307 303 297 302 296 291 293 297 295 294 291 291 293 300 297 295 295 296 298 296 295 293 293 293 294
318 319 320 320 320 319 312 307 307 305 299 308 307 305 306 306 303 305 309 301 301 296 299 295 292 296 301 300 298 295 292 291 296 300 296 295 295 297 297 297 298 296 294 294 293
319 320 320 321 319 312 307 310 313 312 297 303 306 303 304 306 303 303 306 303 298 296 295 292 298 302 300 298 297 295 292 291 292 296 295 293 292 293 296 296 297 296 296 295 294
320 320 320 320 307 307 304 312 313 311 291 296 301 304 304 308 302 308 306 304 300 295 297 295 300 300 297 296 296 290 298 297 296 291 286 292 282 289 291 292 294 295 294 294 293
319 319 319 317 309 308 312 313 312 306 283 298 301 309 304 303 304 305 307 304 298 298 296 293 296 296 296 297 298 294 299 295 294 288 286 286 284 287 290 289 292 294 294 294 293
318 318 318 313 308 310 313 312 307 290 285 296 302 299 298 301 302 305 302 303 302 297 296 295 300 298 297 299 298 299 294 292 290 287 281 285 285 284 288 291 291 292 294 295 294
317 318 314 315 307 312 311 305 287 286 298 295 296 299 297 296 298 299 297 293 291 288 287 293 295 296 298 293 296 294 287 280 280 281 281 287 284 285 290 290 292 294 294 294 294
315 316 314 313 310 309 306 297 285 294 295 301 300 298 294 298 296 297 295 290 291 290 287 287 286 293 296 293 291 291 288 282 279 279 282 286 283 287 290 292 291 294 294 294 294
314 305 306 307 311 308 300 289 289 293 298 298 298 293 293 296 296 294 291 289 289 288 286 284 287 293 294 293 293 289 285 288 283 280 278 281 286 290 289 290 291 291 292 293 294
302 301 302 306 307 304 296 293 291 297 298 299 292 295 291 292 291 290 290 292 291 291 289 285 282 290 292 293 292 288 291 284 282 276 276 280 280 283 286 286 288 289 289 291 293
299 297 303 304 304 299 289 290 294 298 299 296 294 293 293 292 291 289 290 292 294 291 289 286 284 283 287 286 286 286 284 284 284 281 277 275 279 286 286 288 288 288 291 292 292
299 292 300 303 294 290 291 293 298 296 297 296 295 294 292 292 289 289 290 291 293 292 287 286 284 281 283 287 289 288 285 284 280 279 278 276 280 288 286 290 291 290 291 291 292
297 292 298 301 289 287 290 293 295 295 294 294 293 294 292 290 286 290 291 294 293 292 288 287 281 278 281 286 288 283 285 286 284 281 278 275 279 288 287 288 289 288 288 291 291
293 290 293 294 292 290 290 290 290 293 294 292 291 292 290 288 289 288 289 293 293 294 296 291 283 282 280 282 285 283 286 286 283 275 278 279 281 286 288 287 288 288 289 290 291
293 292 291 287 290 289 290 292 289 288 291 290 288 290 288 285 286 287 290 289 291 296 290 287 281 283 285 287 287 286 286 286 283 282 280 281 283 286 287 285 287 288 291 291 291
293 291 289 288 289 289 288 289 289 289 288 288 287 290 287 286 286 286 290 288 287 289 287 287 281 283 282 287 286 285 286 287 285 285 284 284 283 288 289 288 289 289 290 290 290
295 293 293 291 287 288 287 289 290 290 289 291 290 288 287 288 289 288 288 288 290 288 287 286 283 280 278 284 284 279 285 286 286 286 285 281 284 288 288 290 289 289 288 289 289

GFSSW_sfc_thetae_057.txt.gz
Theta_e
325 325 326 328 329 330 330 329 327 326 326 326 327 327 328 329 327 318 310 322 324 343 341 322 320 315 317 315 317 313 300 296 298 298 299 303 301 305 305 303 305 305 306 309 314
325 325 324 325 325 326 325 324 325 325 325 326 326 327 328 328 317 314 327 336 338 341 318 314 311 312 308 312 311 306 299 299 303 303 300 304 302 303 302 301 302 304 306 308 311
324 325 324 323 323 323 323 324 324 325 325 326 326 327 327 326 313 312 341 339 339 338 319 317 314 310 308 309 307 306 303 304 306 305 306 304 302 305 301 298 301 303 304 304 305
324 325 324 323 323 323 324 324 325 325 325 325 326 327 327 318 297 308 338 340 339 332 318 314 312 306 306 304 307 302 305 306 308 308 304 302 303 301 301 300 303 305 304 302 302
322 322 322 323 323 324 324 324 324 325 325 325 325 326 317 308 311 314 338 334 325 320 316 314 306 305 306 305 305 302 304 306 305 305 304 304 301 299 299 301 301 303 302 300 299
320 320 321 322 322 323 323 324 324 324 324 324 325 325 311 302 312 310 311 310 317 319 314 312 308 307 304 304 302 304 303 302 304 303 303 301 299 300 299 301 300 300 298 297 298
320 320 321 321 322 322 323 323 323 323 323 323 324 320 310 308 308 305 309 308 314 318 313 314 312 306 304 303 304 303 299 299 300 301 300 301 296 297 299 300 298 297 295 296 296
318 319 320 320 321 322 322 322 322 323 323 323 324 315 306 317 307 307 309 308 312 317 318 318 312 309 306 303 299 296 294 290 296 300 300 298 291 297 299 298 297 295 293 294 295
316 318 319 319 320 321 322 322 322 323 323 323 315 309 303 314 304 307 307 307 309 310 312 316 314 307 304 295 291 292 287 289 293 300 299 296 293 297 298 298 296 294 293 294 293
317 317 318 318 319 321 321 321 321 319 318 318 316 304 306 302 307 308 306 309 307 306 307 306 301 298 296 291 286 288 288 289 289 295 297 294 294 295 296 296 296 294 293 293 293
317 317 317 318 320 320 316 307 303 304 307 303 303 302 304 308 310 307 308 306 305 302 297 301 295 290 294 295 294 293 290 290 291 297 296 294 294 296 297 295 294 293 292 292 292
318 318 319 319 320 319 311 304 305 303 298 308 308 306 308 307 305 306 309 301 299 294 298 295 291 295 298 299 297 294 291 290 294 298 296 293 294 296 296 296 297 296 293 293 292
318 318 319 319 319 312 305 307 313 309 295 302 306 305 305 305 304 302 307 300 296 295 294 291 296 300 299 296 295 293 291 290 291 295 294 293 291 292 295 295 297 296 296 295 293
318 319 320 320 308 306 305 308 311 308 289 295 301 304 305 308 302 307 305 302 298 294 296 294 298 298 296 294 295 289 296 296 295 290 286 292 283 289 290 292 293 293 292 293 292
319 319 320 317 307 308 311 312 310 304 281 296 302 307 303 302 302 304 306 303 296 296 295 292 295 295 294 295 297 293 298 294 293 288 286 286 283 286 290 290 291 291 292 293 293
319 318 318 314 308 310 311 310 304 289 283 294 300 298 297 300 300 303 300 302 300 296 295 294 298 296 296 297 297 298 293 290 289 286 280 284 283 285 287 289 291 291 293 294 293
318 317 315 313 307 309 309 302 287 286 296 293 294 297 295 294 296 298 295 291 290 286 286 292 293 295 297 293 295 293 286 281 279 280 279 286 283 285 288 289 290 292 294 294 293
316 317 314 313 309 308 304 296 284 292 293 299 297 296 293 296 294 295 293 288 289 289 286 285 285 292 294 291 289 289 286 281 278 279 282 285 282 286 288 290 290 292 293 293 293
314 305 306 307 310 306 298 288 288 292 296 296 296 291 291 294 294 293 289 289 288 287 286 283 285 291 293 292 292 287 285 287 282 279 277 280 284 288 289 289 290 291 292 292 293
301 301 302 305 307 302 295 292 291 295 297 297 291 293 290 291 290 289 289 291 290 290 288 284 281 288 291 291 291 288 290 283 281 276 275 278 279 283 285 287 289 290 291 291 293
298 296 302 303 304 297 288 290 293 296 297 294 293 292 292 291 290 288 289 291 292 290 288 285 283 282 286 284 284 286 284 283 282 280 277 275 278 284 284 287 286 288 289 290 291
297 291 299 301 293 288 290 292 298 295 296 295 294 293 291 290 288 287 289 290 292 291 286 285 282 280 283 286 288 286 284 283 279 277 277 275 280 287 285 287 288 288 290 290 291
296 291 297 300 288 287 289 292 293 293 292 293 291 293 291 289 286 289 289 292 292 290 287 286 280 277 280 284 286 282 285 285 283 280 277 275 279 287 287 288 288 288 288 289 290
292 289 292 293 290 289 288 288 289 292 292 291 290 290 289 286 288 288 287 291 292 292 297 290 282 281 279 281 284 282 284 284 282 275 277 278 280 285 286 286 286 288 288 289 290
291 290 290 287 290 287 289 290 288 287 290 289 287 288 287 284 284 286 288 287 290 296 289 286 280 281 283 285 285 284 285 285 282 281 279 281 282 284 284 285 286 287 289 289 290
293 290 288 286 288 288 290 288 289 287 288 287 286 288 285 284 285 285 288 286 286 288 285 285 280 282 281 286 285 284 286 285 285 283 282 282 282 285 287 286 288 287 288 288 289
292 292 292 289 285 286 286 288 290 289 288 289 288 287 286 287 288 287 288 289 289 287 286 284 282 280 278 282 283 280 283 285 284 284 284 281 283 286 286 288 288 288 288 289 289

GFSSW_sfc_thetae_060.txt.gz
Theta_e
325 325 325 326 328 329 329 329 328 327 326 326 326 327 328 329 327 314 308 314 326 338 340 320 318 314 315 314 315 310 299 295 298 297 298 301 301 304 304 303 304 304 305 309 313
324 325 325 325 325 326 325 325 325 325 325 326 326 327 327 328 316 312 322 339 338 339 320 314 310 311 308 311 310 305 299 299 303 302 299 302 301 302 301 301 302 302 305 309 308
323 324 325 324 323 323 323 324 324 325 325 325 326 326 326 324 310 307 338 343 339 335 325 319 314 311 307 308 306 305 302 303 305 304 304 303 301 303 300 297 302 303 304 305 302
322 323 324 324 323 323 323 324 324 325 325 325 325 325 327 315 296 307 344 342 337 330 320 319 314 308 305 303 306 302 304 305 306 306 304 301 303 300 299 299 302 305 303 302 299
320 322 322 322 323 323 324 324 324 325 325 324 324 325 315 307 308 319 338 335 325 318 315 316 310 307 303 303 303 301 303 304 304 304 302 303 300 299 299 299 302 302 302 300 298
320 320 321 321 322 322 323 323 324 324 324 324 324 324 308 302 312 309 310 311 315 316 314 314 309 307 304 303 301 302 302 301 303 302 302 300 298 299 298 299 299 300 298 298 297
319 320 320 321 321 322 322 323 323 323 323 323 323 319 309 308 311 304 308 306 313 315 312 316 314 309 304 302 304 302 298 297 299 300 299 300 294 296 298 299 297 296 295 296 296
319 318 319 320 320 321 322 322 322 322 322 323 324 313 305 317 312 306 307 306 314 316 315 319 314 308 305 303 299 296 294 291 295 299 299 297 291 295 298 297 295 295 293 294 295
317 317 317 319 319 319 321 321 322 322 322 323 312 307 303 316 303 305 306 305 309 310 312 315 312 304 302 296 292 292 289 289 292 299 298 295 291 295 297 297 295 293 292 293 292
316 316 317 318 318 319 321 321 320 319 317 319 314 303 305 299 304 306 305 308 305 306 306 305 300 299 295 293 289 289 288 289 289 294 296 293 293 294 295 295 295 294 292 292 292
317 316 317 317 318 320 315 305 300 302 306 302 304 303 302 306 307 305 308 306 304 301 294 299 293 292 300 296 293 291 290 289 291 295 294 292 293 295 295 294 294 293 292 292 292
316 317 317 318 319 319 310 301 302 303 298 305 307 307 307 307 302 304 307 300 298 293 296 294 290 294 297 297 296 293 290 289 293 297 295 293 293 296 295 294 296 295 294 293 292
318 318 318 318 318 311 306 303 312 306 295 301 306 302 304 306 302 300 305 301 298 293 293 291 294 299 298 295 294 292 289 289 290 294 293 292 290 292 293 294 295 295 294 294 293
318 319 319 319 308 305 305 308 309 306 289 294 299 303 304 306 301 306 304 302 297 293 293 293 297 297 295 294 294 288 295 295 293 290 285 291 282 288 290 292 292 293 292 293 293
319 319 320 316 305 308 311 310 309 303 281 296 299 306 304 301 300 303 306 303 296 295 294 290 294 294 293 294 295 292 296 293 292 287 285 285 283 286 290 290 291 292 292 292 293
319 319 318 315 311 310 310 308 303 289 281 293 299 298 299 300 300 301 300 301 299 294 294 293 297 295 294 296 296 296 291 289 288 286 280 283 282 284 286 289 289 290 293 293 293
318 318 316 311 308 308 307 299 288 285 295 292 294 297 295 295 295 296 293 290 289 284 285 290 292 293 296 292 294 291 287 281 279 280 279 285 283 285 288 289 288 289 290 293 293
316 317 314 314 308 308 303 296 284 291 291 298 295 294 291 295 293 294 291 288 288 288 285 285 284 290 293 290 288 287 286 280 277 278 280 284 281 286 288 289 289 291 291 292 292
314 305 305 306 308 305 297 286 287 290 295 295 294 289 289 293 293 292 288 288 286 286 285 283 283 290 291 291 291 287 284 286 281 278 277 280 282 287 288 289 289 290 292 292 293
301 299 301 303 306 301 294 291 289 294 295 295 289 291 288 289 289 289 287 289 288 288 287 284 281 287 290 291 290 287 289 282 280 276 274 277 278 281 284 286 288 287 287 289 290
298 297 301 300 302 296 287 289 292 295 296 293 291 291 290 289 289 287 288 290 291 288 287 283 283 281 285 284 284 285 283 282 281 279 277 275 278 283 283 286 285 286 288 289 289
295 292 298 301 293 288 290 291 297 294 295 294 293 292 291 289 287 286 288 288 291 289 284 284 282 279 281 284 287 285 283 283 279 276 276 274 279 286 284 285 287 286 288 288 289
295 291 296 300 288 288 288 291 293 293 291 292 291 292 290 288 285 288 288 291 291 289 285 285 280 277 279 283 285 281 283 283 281 280 277 275 279 286 285 286 286 286 287 289 290
291 288 291 292 289 289 287 288 288 291 291 290 289 289 287 285 288 287 286 290 291 291 298 289 280 280 278 280 283 280 283 283 281 274 276 278 279 283 285 284 286 287 287 287 289
290 289 289 287 289 288 288 288 287 287 289 288 286 287 286 283 284 285 287 286 289 295 287 284 279 279 282 283 283 283 284 283 281 280 279 280 281 282 283 284 285 286 288 288 289
292 290 287 285 287 287 289 287 288 286 286 286 285 287 284 284 283 285 287 284 284 287 284 284 280 281 279 284 284 283 285 284 283 282 281 281 281 285 285 286 286 286 288 288 288
291 291 291 288 285 286 286 288 289 288 287 288 287 286 285 286 287 286 287 287 288 286 284 283 282 280 278 281 282 280 282 284 283 283 283 280 283 286 285 287 287 287 288 288 288

GFSSW_sfc_thetae_063.txt.gz
Theta_e
323 325 326 325 326 327 328 328 328 327 326 326 327 327 328 328 326 314 308 318 325 336 337 320 321 318 319 320 320 315 309 303 304 302 305 305 305 307 308 308 309 310 313 316 317
321 323 325 325 325 325 325 325 325 325 325 326 326 327 327 327 317 310 320 334 344 334 317 315 313 314 315 316 316 313 309 308 308 307 305 305 306 306 307 307 308 309 312 314 314
320 322 324 325 324 324 324 324 324 325 325 326 326 326 326 324 309 308 334 336 344 332 322 320 316 312 313 315 312 311 310 308 307 308 308 306 305 306 306 304 309 310 312 310 310
319 321 324 324 324 323 324 324 324 325 325 325 325 325 326 317 298 311 341 344 344 327 321 319 316 312 313 309 310 308 307 308 309 309 307 305 307 305 305 306 307 313 313 308 309
319 321 322 322 322 323 323 324 324 324 324 324 324 325 315 308 305 316 341 342 330 320 317 317 313 313 309 308 308 307 307 306 307 306 305 306 304 304 304 305 308 309 309 306 306
320 320 321 321 322 322 323 323 323 324 324 323 323 324 311 299 314 311 314 318 317 317 315 317 313 313 309 307 308 306 305 305 306 305 305 304 302 304 304 304 305 307 307 304 304
320 319 320 320 321 321 322 322 323 323 323 323 323 319 310 304 318 311 308 309 314 317 313 316 317 312 312 306 308 305 303 303 303 304 303 304 300 301 303 303 303 304 305 303 302
318 319 318 319 320 320 321 321 321 322 322 323 323 317 301 316 318 313 308 310 317 319 317 318 319 314 309 308 302 300 300 300 300 303 303 302 298 300 302 302 302 302 301 302 300
318 318 319 318 320 318 319 320 321 322 322 322 316 310 303 318 306 307 309 308 311 314 316 317 315 308 307 300 298 297 297 295 298 302 302 300 298 300 301 301 301 301 300 300 300
317 317 316 317 317 318 320 320 320 320 317 318 315 304 306 301 306 307 310 309 308 312 310 308 305 301 298 299 295 296 293 293 295 298 300 298 298 300 300 300 301 300 299 299 299
317 317 316 316 317 317 315 306 300 302 307 300 304 304 303 306 309 307 311 308 308 305 300 302 299 296 300 301 298 297 295 294 295 298 298 297 297 300 301 299 299 300 299 298 298
316 317 318 318 317 318 311 300 302 306 299 306 305 306 309 309 303 305 309 302 303 297 301 299 295 300 302 300 299 297 294 294 296 299 298 296 296 300 299 299 299 300 299 298 298
316 317 318 317 317 313 307 303 311 307 299 301 305 305 305 308 303 303 307 303 299 298 298 294 298 300 299 297 296 296 294 294 294 296 296 295 294 296 297 298 299 300 300 300 299
317 318 318 319 310 306 304 310 311 307 291 295 300 304 307 308 302 307 308 304 301 296 297 297 300 298 297 296 297 293 298 297 296 294 290 294 287 292 293 297 296 297 297 298 299
319 318 319 318 305 308 312 311 311 305 282 297 301 309 307 302 303 303 307 305 299 297 298 295 297 297 297 297 298 295 298 296 294 291 291 290 288 291 293 294 295 295 297 297 298
319 318 318 315 312 311 311 308 307 292 283 295 301 299 300 302 302 303 302 302 302 297 298 297 300 298 298 297 298 297 293 292 291 289 285 287 287 289 290 292 293 294 295 297 297
319 319 317 313 306 309 307 303 291 287 296 292 295 297 297 298 298 298 294 292 292 290 291 294 295 297 299 295 297 294 292 287 284 284 283 288 286 290 292 293 292 292 295 297 298
317 317 315 315 311 311 304 296 286 292 292 298 297 296 293 297 296 296 295 290 291 291 288 287 287 294 295 295 293 292 292 286 281 282 284 287 285 289 292 293 293 294 296 297 297
314 306 307 307 308 307 299 287 288 292 295 296 296 292 293 295 295 293 291 290 290 291 289 288 288 293 293 294 295 291 289 290 284 282 282 285 287 292 292 292 292 292 293 293 295
302 299 301 302 306 301 294 292 291 294 296 297 290 293 290 292 292 292 291 292 291 291 292 289 285 290 292 294 293 293 292 287 285 281 279 282 283 287 289 290 290 291 291 293 294
297 296 301 299 302 296 288 289 293 296 297 295 293 292 292 291 291 290 290 292 292 291 291 288 288 287 290 290 289 289 287 285 286 284 282 281 284 288 289 289 289 290 291 292 293
296 293 299 301 294 288 290 292 297 294 295 295 294 294 293 291 290 289 290 291 292 292 288 288 286 283 286 288 291 290 288 287 285 282 281 281 285 290 289 289 290 290 291 293 294
294 293 297 300 289 288 290 292 293 293 291 293 292 293 292 289 288 290 290 292 293 291 289 288 284 281 284 287 289 287 287 285 284 284 281 283 285 288 289 289 290 291 292 293 294
291 289 292 293 290 291 289 289 289 292 292 291 290 291 290 288 290 288 288 291 293 293 297 291 283 283 282 286 287 285 285 286 286 283 282 284 285 287 288 289 291 291 292 293 294
290 289 289 288 291 289 290 290 288 288 290 289 288 289 289 285 286 287 289 288 291 295 289 287 283 284 285 286 286 286 286 284 284 284 284 285 283 287 288 289 291 291 292 293 294
291 290 287 285 287 288 289 288 289 287 288 288 287 288 286 286 287 287 288 286 287 289 287 287 284 285 284 286 286 285 286 286 285 285 284 284 285 288 290 291 291 292 292 292 292
292 291 291 287 285 287 287 289 290 288 287 289 288 287 286 287 288 288 288 288 289 288 286 286 284 284 284 283 284 283 285 286 287 286 287 284 288 290 289 290 291 292 291 291 292

GFSSW_sfc_thetae_066.txt.gz
Theta_e
321 322 324 326 326 326 327 327 327 327 326 326 327 327 328 328 327 318 310 321 326 337 338 322 322 321 323 326 325 323 316 312 313 311 312 312 312 311 313 313 318 320 321 327 335
321 321 322 325 326 325 325 325 325 325 326 326 327 327 327 327 318 311 324 335 340 343 321 318 317 318 320 322 323 320 316 315 317 316 313 311 312 311 311 312 315 316 318 328 330
321 320 321 324 325 324 324 324 324 325 325 326 326 326 326 324 309 308 339 338 343 339 322 322 320 316 316 320 319 319 316 316 314 314 314 312 310 313 311 310 314 314 319 325 328
322 320 322 324 324 323 324 324 325 325 325 325 325 325 326 317 297 316 343 344 346 327 321 322 320 315 314 314 317 314 313 314 314 314 312 311 313 310 312 313 314 317 322 325 326
321 320 321 322 322 322 323 323 324 324 324 324 324 324 318 307 306 317 338 344 330 322 317 321 318 316 312 313 313 313 312 312 312 311 312 312 311 311 311 312 313 318 322 323 326
320 320 320 321 321 322 322 323 323 323 324 324 323 323 311 301 314 318 319 325 321 319 318 321 320 317 313 310 309 311 312 310 310 310 310 309 308 308 311 312 314 317 319 321 323
319 320 320 320 320 321 321 322 322 323 323 323 323 319 309 306 317 321 316 314 318 318 317 319 320 316 313 309 310 309 307 308 309 310 308 310 306 307 310 312 313 316 318 318 319
319 319 319 319 319 320 320 320 321 321 322 323 323 317 304 314 319 319 318 313 319 320 319 321 321 316 312 311 306 305 307 304 306 307 307 306 308 307 309 310 311 313 316 315 315
318 318 318 319 318 319 319 319 321 322 322 322 317 311 302 320 313 316 314 311 317 318 319 319 319 314 309 307 303 302 304 306 305 307 306 304 307 306 308 308 310 311 312 313 313
317 318 317 317 317 317 318 319 321 320 318 318 315 308 310 306 310 311 314 315 312 314 312 312 313 312 309 306 301 299 299 302 306 304 304 303 304 307 307 307 308 310 310 310 311
317 318 317 317 317 317 317 314 305 306 309 302 305 306 308 313 313 310 313 312 313 311 306 308 310 308 310 309 308 306 302 301 300 302 302 303 303 305 308 307 307 309 309 308 309
316 317 318 317 317 317 316 306 305 309 303 309 305 306 310 313 305 309 313 306 306 304 307 304 303 312 310 304 302 301 299 300 300 302 302 302 302 306 305 305 306 307 308 308 309
315 316 317 316 316 315 312 309 314 312 304 304 308 305 307 310 305 305 310 307 303 302 304 307 306 303 303 303 304 302 300 300 297 300 301 300 299 301 302 304 304 306 307 309 308
316 317 317 318 312 313 308 313 316 314 298 298 303 306 309 311 304 309 311 307 303 300 302 302 303 302 301 300 301 298 300 300 298 297 294 299 291 299 300 302 302 303 305 306 308
317 317 318 318 312 311 315 316 315 310 287 300 303 312 310 306 306 305 309 309 302 301 302 299 301 301 300 300 301 299 302 300 298 298 296 295 293 297 300 299 300 302 303 304 306
317 318 318 316 314 315 316 313 310 297 287 297 303 302 303 305 304 305 305 308 307 303 303 301 303 303 301 301 302 302 300 299 298 297 291 293 293 294 297 296 299 302 303 303 304
318 318 317 317 313 316 314 307 297 289 298 295 297 300 301 300 301 301 300 300 299 295 296 300 299 301 303 300 301 300 298 292 290 290 289 293 291 296 297 297 298 299 302 303 304
318 318 318 317 318 316 309 303 290 295 296 301 299 299 297 300 299 299 298 296 297 298 297 295 292 298 299 299 298 298 298 292 285 288 291 292 290 295 296 298 299 301 303 304 304
316 316 314 314 316 315 305 295 295 297 298 298 299 295 296 298 299 298 298 296 295 297 296 294 292 296 297 299 299 296 295 296 291 290 289 293 293 296 297 297 298 299 301 300 301
312 309 310 310 315 308 303 296 297 298 299 299 293 296 293 296 297 297 296 296 294 295 297 296 291 294 295 298 298 298 298 292 294 286 285 289 290 294 294 295 296 297 298 299 301
308 305 308 308 311 306 298 297 298 299 299 299 297 297 297 296 297 296 295 295 296 294 296 296 295 291 294 295 295 294 294 293 293 291 287 286 290 296 296 296 296 297 298 299 300
307 299 306 309 302 302 299 298 298 298 300 299 300 299 298 297 296 295 295 295 295 295 294 293 296 292 291 292 294 295 294 295 291 288 290 290 290 295 296 296 296 296 298 299 300
304 305 306 308 298 298 299 296 297 297 296 297 297 297 297 295 294 295 295 294 296 295 294 295 292 289 288 291 293 292 293 293 292 293 290 288 291 295 295 295 296 297 298 299 299
304 299 301 304 301 299 297 297 296 296 296 296 296 296 296 294 296 294 293 294 296 298 296 296 292 290 290 291 293 290 290 292 293 290 291 290 292 292 294 294 296 297 298 299 299
303 300 299 297 299 299 298 297 295 294 296 295 294 295 295 292 293 293 293 292 295 297 294 294 290 290 290 290 291 291 291 290 290 293 289 291 290 293 295 296 297 298 298 298 298
303 300 297 297 295 298 296 297 295 294 295 294 293 293 293 294 295 293 294 293 293 294 293 293 291 291 289 290 290 289 292 291 291 291 290 291 291 297 296 297 296 297 297 297 297
305 302 300 293 295 297 298 298 297 295 293 294 294 294 293 293 295 296 296 296 296 294 292 292 292 291 290 289 290 289 292 292 292 293 293 290 294 295 294 295 296 297 297 296 296

GFSSW_sfc_thetae_069.txt.gz
Theta_e
321 322 321 323 326 326 326 326 326 326 326 327 327 327 328 328 327 320 313 320 327 336 336 325 324 323 326 325 329 328 318 313 315 314 315 318 318 316 316 315 317 323 323 330 338
321 322 321 322 324 326 325 325 325 325 326 326 327 327 327 327 319 313 324 334 339 340 320 322 319 321 320 322 325 320 317 317 320 320 317 316 317 314 312 313 316 318 323 331 337
321 322 321 322 324 325 324 324 325 325 326 326 326 326 326 325 312 308 341 338 337 338 323 324 322 320 317 322 322 321 317 321 319 320 319 315 314 316 313 313 317 317 319 327 331
320 322 321 322 324 324 324 324 325 325 325 325 325 325 326 319 298 317 341 341 343 327 322 322 322 317 315 316 322 315 321 320 318 316 316 314 316 313 314 317 318 319 321 325 329
320 321 321 322 322 323 323 323 324 324 324 325 324 324 319 309 307 317 333 338 331 324 319 320 321 319 315 317 319 315 317 316 317 315 315 316 314 314 314 317 316 318 321 324 326
320 320 321 321 321 322 322 323 323 324 323 324 324 323 315 303 316 317 318 326 327 322 319 321 324 325 317 314 313 315 315 313 313 313 314 313 313 311 316 317 315 317 319 322 324
319 319 320 320 320 321 321 322 322 322 322 323 324 320 311 308 317 321 319 315 322 322 319 322 327 321 321 314 314 313 310 311 312 312 312 314 310 310 316 315 314 316 318 320 323
318 319 319 319 319 319 320 320 320 321 322 323 323 317 307 317 318 315 317 317 316 319 322 324 324 324 318 315 311 310 312 306 310 309 310 309 309 313 313 312 312 315 317 319 320
317 318 318 317 318 318 319 319 320 321 323 322 317 313 305 320 312 315 318 312 316 318 321 323 322 318 315 311 308 308 306 308 310 311 310 306 309 309 311 310 311 313 315 317 317
317 317 317 317 317 318 319 319 321 321 320 318 315 307 310 307 314 315 318 314 314 316 314 316 317 313 312 310 302 306 306 309 308 312 307 306 307 311 309 309 310 311 312 314 315
316 317 317 317 317 318 317 317 310 309 310 305 306 305 309 314 313 310 313 313 314 313 309 312 310 307 312 313 312 310 309 307 308 303 302 304 307 308 310 310 309 310 310 311 312
315 316 317 317 318 318 316 310 309 311 303 311 308 307 310 311 306 309 314 308 308 305 312 307 306 313 316 314 311 308 307 307 307 303 302 306 305 307 308 308 308 309 310 311 312
315 315 317 318 317 315 314 312 316 315 305 307 310 308 308 310 306 306 311 309 306 305 310 306 309 311 314 307 305 306 305 304 302 303 304 301 299 303 305 306 306 307 309 310 312
316 316 317 318 313 315 312 315 319 318 300 300 304 307 310 311 304 311 313 309 305 304 308 310 307 306 307 308 308 305 308 304 302 298 294 301 292 300 303 304 304 306 307 309 310
316 317 317 317 316 314 317 319 318 313 288 301 304 313 311 307 306 306 312 310 303 304 307 302 302 303 304 304 308 305 304 302 302 299 298 297 294 298 302 301 302 304 306 307 309
317 318 317 317 317 316 318 315 313 299 288 298 304 303 304 306 305 307 307 311 311 304 305 304 308 306 304 304 304 305 303 302 301 299 292 296 295 296 299 298 300 304 305 306 307
319 318 316 318 316 318 316 312 298 291 300 296 298 302 302 301 301 303 302 302 300 297 299 301 301 303 305 301 303 303 300 293 292 292 291 296 294 297 299 299 301 302 304 305 307
319 318 318 317 319 318 313 304 291 298 296 302 300 300 298 300 301 301 300 299 301 301 300 296 293 301 302 302 300 300 300 293 287 289 293 296 292 296 299 302 303 304 305 306 306
317 317 315 316 319 317 308 297 296 298 300 300 298 296 297 298 300 300 300 299 299 300 298 298 294 299 300 302 302 299 295 300 295 295 291 294 296 298 299 300 302 302 303 303 304
314 311 310 317 317 313 304 299 300 301 300 300 295 298 295 298 297 298 298 299 298 298 301 299 293 298 298 301 301 300 301 294 295 287 287 292 292 294 295 297 299 300 300 302 303
312 304 311 314 316 307 298 300 301 302 301 299 299 298 298 296 298 297 297 298 298 298 300 300 298 294 297 297 298 297 296 296 296 294 289 288 292 300 298 299 299 300 301 302 302
309 300 310 314 303 305 300 301 298 301 303 301 302 301 300 299 298 299 297 299 298 298 297 298 299 293 294 296 297 298 298 298 292 291 292 291 291 299 300 300 300 300 301 302 302
304 305 310 311 299 302 304 300 301 300 300 299 299 300 301 300 297 299 298 297 298 298 297 299 296 290 290 293 295 294 296 297 296 295 291 289 291 299 299 298 300 300 301 301 302
306 299 304 306 307 302 301 300 299 300 300 299 299 299 298 298 299 297 296 296 298 300 297 299 296 294 291 293 296 292 294 295 295 291 292 293 294 295 297 297 298 300 301 301 301
305 302 303 299 301 302 302 301 298 297 299 299 298 298 298 295 297 296 297 295 298 298 297 298 293 293 293 293 293 293 293 293 292 294 291 294 292 296 297 298 299 300 300 300 300
303 302 303 301 301 301 299 299 298 299 298 297 296 298 298 296 297 296 297 297 295 296 296 296 293 293 291 293 293 291 294 294 294 294 294 294 293 300 301 300 299 299 299 299 299
308 310 303 300 300 298 300 300 300 301 297 297 297 297 296 296 298 300 300 299 299 296 295 294 295 293 291 293 293 291 295 296 296 296 295 291 295 298 296 297 298 299 299 298 298

GFSSW_sfc_thetae_072.txt.gz
Theta_e
322 322 323 322 323 325 327 326 326 326 326 327 327 328 327 328 327 318 311 318 326 341 335 322 324 325 326 327 329 332 317 312 313 315 315 318 316 318 315 313 315 318 324 327 335
321 322 323 322 322 324 326 325 325 326 326 326 327 327 327 327 317 312 323 337 340 341 317 318 319 322 320 323 326 320 315 315 320 318 317 317 317 312 310 310 312 316 323 333 335
320 321 323 321 323 325 325 325 325 325 326 326 326 326 326 324 311 308 342 346 338 336 318 318 321 321 317 321 322 321 313 320 321 322 321 316 316 315 310 309 313 314 317 326 330
320 320 322 321 322 324 324 324 324 325 325 325 325 325 326 318 298 315 339 339 342 323 316 318 317 317 316 314 322 315 319 320 323 319 319 314 316 312 312 314 315 316 319 323 324
319 321 320 321 322 323 323 323 324 324 324 324 324 325 318 307 307 317 334 331 330 324 314 316 316 318 314 316 319 316 318 319 318 317 316 317 313 314 312 315 314 317 320 320 322
318 320 320 321 321 322 322 322 323 323 323 323 324 324 313 301 317 317 315 316 325 320 316 319 318 323 319 317 315 315 318 316 314 316 315 314 313 312 314 315 313 313 315 318 319
318 319 320 320 320 320 321 321 322 321 322 322 323 320 310 306 317 318 317 316 317 324 317 320 321 322 322 315 316 315 312 312 313 314 311 312 310 308 314 314 311 311 312 315 318
318 319 319 320 320 319 319 320 320 321 321 322 323 316 305 317 319 316 316 314 316 319 322 323 323 323 321 317 313 311 312 305 310 311 310 309 306 310 312 310 309 310 310 313 316
318 318 319 318 317 317 318 319 320 321 322 323 316 312 304 320 312 315 314 311 315 314 318 321 323 318 320 310 306 308 302 306 306 314 310 307 305 308 309 309 308 307 309 313 313
317 317 318 318 319 318 319 319 321 321 319 319 315 305 308 308 313 313 313 314 311 312 314 315 315 311 311 308 300 303 302 306 306 313 312 307 304 309 313 307 306 305 306 309 311
317 317 318 317 318 318 316 315 310 309 310 304 306 304 306 312 315 311 315 312 312 311 305 310 307 304 306 310 311 309 307 305 305 307 309 307 306 309 311 307 306 304 305 305 309
317 316 318 318 319 318 314 311 308 310 302 310 310 309 309 310 304 308 313 305 307 303 308 306 303 310 313 311 309 309 306 306 306 304 303 304 305 309 311 306 305 304 303 305 305
317 316 317 319 319 315 312 312 317 316 304 308 310 309 309 310 305 305 309 308 305 303 305 304 307 312 311 310 308 308 304 305 303 302 306 303 298 301 304 305 305 304 305 305 305
317 318 318 319 313 317 312 318 319 317 299 300 303 307 308 310 304 311 311 309 305 302 306 306 309 309 311 307 308 302 308 307 305 299 295 299 288 297 300 301 302 302 303 304 305
317 317 318 317 312 312 315 318 316 313 286 302 303 312 310 306 306 305 314 309 302 304 307 305 304 306 305 307 309 303 306 305 305 298 295 295 290 293 299 298 298 300 302 302 305
316 317 318 315 315 316 319 316 312 298 286 298 303 303 302 305 304 306 306 311 310 304 305 304 308 308 307 304 305 305 302 301 300 295 287 293 292 290 293 294 297 300 301 302 302
318 319 316 316 313 319 317 310 297 290 301 297 298 302 302 301 302 301 301 300 299 296 296 300 301 304 306 301 305 303 297 290 288 287 286 294 291 291 295 297 299 299 299 301 301
318 318 317 316 317 317 313 303 291 296 297 301 300 300 298 301 301 300 299 297 302 300 299 294 291 300 305 302 298 298 297 290 284 285 288 295 287 289 297 299 300 301 300 301 301
317 314 313 316 319 317 306 296 295 297 301 299 299 296 297 300 300 300 299 299 298 298 294 295 293 299 301 302 300 298 293 298 291 291 286 290 291 293 297 297 299 298 299 299 300
312 312 311 317 318 312 302 297 299 302 301 302 294 297 292 297 297 298 298 299 299 299 299 297 290 298 298 301 301 299 299 291 291 283 282 288 288 288 292 294 296 296 296 297 299
310 304 312 317 315 306 296 298 300 303 302 299 298 297 298 298 298 297 298 298 299 300 301 298 296 293 297 296 296 295 294 294 292 291 284 282 285 293 293 295 294 295 297 297 298
307 299 311 314 302 303 300 301 299 302 304 301 301 301 300 298 295 297 298 298 299 299 297 299 295 290 292 295 297 296 295 295 288 286 288 285 284 295 295 296 297 296 298 298 298
303 303 311 310 296 299 304 302 302 300 301 300 300 303 302 299 296 300 299 299 300 299 296 296 293 287 288 291 293 292 295 296 293 291 286 282 285 295 295 295 296 295 296 297 298
304 298 303 304 303 299 299 300 300 302 300 300 299 300 299 298 300 298 297 298 300 300 300 297 294 291 287 290 293 290 292 293 291 285 286 287 288 291 293 294 294 295 297 296 298
303 298 303 296 299 299 300 301 298 298 300 300 298 298 297 295 297 296 297 296 299 299 298 295 291 291 291 292 292 292 292 292 289 290 285 289 290 292 293 294 295 296 297 297 297
300 301 303 299 301 298 298 298 298 300 299 298 296 299 297 295 294 294 297 296 296 296 295 295 291 291 289 292 292 290 292 292 292 292 291 291 289 295 295 295 294 295 296 295 295
307 307 302 299 299 297 296 298 300 301 299 299 297 297 296 296 298 298 298 297 297 295 293 292 291 290 287 293 292 288 292 293 293 293 292 287 291 294 292 294 293 293 296 295 295

GFSSW_sfc_thetae_075.txt.gz
Theta_e
321 322 322 324 323 324 325 326 326 326 326 327 327 327 327 328 327 317 309 316 322 339 335 319 320 320 321 317 321 324 310 307 310 311 312 315 310 311 311 311 312 316 320 323 328
320 321 322 324 322 324 325 326 325 325 326 326 326 327 327 327 317 310 321 330 339 342 316 312 313 317 313 314 318 313 308 310 317 316 314 316 311 308 306 306 310 315 326 329 330
319 321 321 322 322 324 324 325 325 325 325 325 325 325 326 325 309 308 342 342 345 337 317 314 313 313 311 315 315 315 308 316 319 322 319 315 311 310 305 303 310 312 323 328 327
319 320 321 321 322 323 324 324 324 324 324 324 324 325 325 318 292 313 337 337 343 333 315 313 313 309 309 308 315 311 317 319 318 320 316 314 312 307 307 309 312 314 322 325 325
318 320 321 321 322 322 323 323 323 324 324 323 324 324 318 305 305 316 331 326 318 329 312 309 309 309 308 311 315 312 315 319 314 316 316 314 310 308 308 310 312 316 320 321 322
319 319 320 320 321 321 321 321 322 323 322 323 323 323 312 299 315 317 316 315 315 322 315 310 311 314 313 313 311 314 316 316 314 314 314 310 310 311 310 310 309 314 316 317 319
319 319 319 320 321 321 320 320 321 321 322 322 323 319 309 304 315 315 315 313 314 316 313 313 314 312 317 312 314 311 307 309 311 313 310 313 308 307 311 310 308 308 310 314 317
318 319 319 319 320 318 318 319 321 321 321 322 322 315 302 315 315 314 315 313 314 314 315 319 318 314 313 313 310 306 306 299 308 310 309 309 303 307 308 308 307 308 306 311 314
318 318 318 319 319 318 319 319 320 321 322 323 315 310 302 320 312 315 314 310 310 311 311 318 316 312 316 305 300 303 296 300 301 310 308 308 302 308 314 310 304 304 305 310 312
318 319 318 318 318 319 320 320 320 319 319 319 315 302 306 306 310 311 312 312 307 309 307 308 309 305 307 301 294 296 297 301 301 309 309 304 305 311 315 314 309 305 303 307 310
318 319 318 318 318 319 315 309 303 305 309 302 305 303 306 309 311 307 310 307 307 304 299 305 300 298 304 306 306 304 301 300 304 312 309 307 307 308 308 307 305 304 302 300 307
316 319 318 318 319 319 313 307 307 307 300 309 308 308 310 311 303 306 309 301 301 298 303 300 297 305 309 310 307 306 302 301 302 304 301 303 302 306 309 308 304 304 303 302 300
316 318 318 319 318 313 309 310 314 312 300 305 310 308 309 310 304 304 306 303 301 299 300 297 302 309 308 306 305 304 301 300 301 302 301 301 297 299 303 302 303 303 304 304 304
316 317 317 319 311 312 310 316 313 312 293 300 304 307 308 310 304 309 311 307 301 298 301 301 307 306 305 304 307 300 306 305 299 296 291 299 286 291 296 297 298 299 299 301 302
317 317 317 317 307 306 313 315 312 308 283 301 303 311 308 305 306 305 313 308 300 301 301 301 303 303 303 306 307 302 305 303 300 295 290 291 286 288 294 293 294 296 299 300 301
318 317 317 312 309 311 314 314 310 296 286 298 303 302 301 303 304 306 306 309 308 302 304 304 308 305 301 304 306 304 299 298 294 291 284 289 288 286 289 291 293 295 297 299 301
318 318 316 315 307 313 312 305 292 287 301 296 298 302 301 299 301 300 300 299 295 292 294 299 299 302 306 298 302 299 293 285 284 282 282 290 287 287 291 294 295 295 296 298 298
317 317 316 315 314 312 306 297 285 294 295 302 301 300 297 300 299 298 296 295 300 297 294 290 288 297 304 300 294 295 292 286 282 281 285 291 284 287 294 296 297 297 297 297 298
316 308 309 311 314 311 299 289 291 293 300 298 298 294 294 299 298 296 294 295 295 298 292 292 289 298 299 301 299 294 290 295 287 286 282 286 286 290 294 295 295 295 296 296 296
305 304 307 314 313 306 295 293 294 299 302 301 293 296 293 295 295 294 294 297 298 298 297 295 286 295 297 298 297 294 296 287 286 279 278 284 283 284 289 292 293 293 293 294 295
303 297 306 312 309 300 290 293 298 301 301 298 297 296 296 296 295 294 295 297 297 297 297 294 293 290 293 291 291 291 290 290 289 287 281 279 282 289 290 293 292 292 294 294 294
299 292 305 308 296 296 292 298 301 301 301 299 298 298 296 295 294 294 296 298 298 297 293 295 291 285 288 291 293 292 291 290 284 283 284 281 282 291 293 294 294 293 295 294 295
297 295 303 303 289 290 295 298 300 299 298 297 296 299 298 297 294 297 296 299 298 298 294 293 289 282 284 287 289 288 291 292 290 286 283 280 283 292 291 292 293 293 293 295 295
296 291 295 296 295 292 292 293 295 299 298 298 295 297 294 295 297 295 294 297 298 299 300 296 289 286 283 285 288 285 289 291 287 281 281 283 284 288 290 291 292 293 293 294 295
295 291 294 288 291 292 292 294 293 294 296 295 293 294 293 290 292 293 294 294 296 300 295 291 286 287 287 289 289 289 290 289 286 286 283 286 286 289 290 291 292 293 294 293 294
293 294 295 293 294 292 293 291 293 296 295 293 292 295 292 289 290 290 294 291 290 292 290 291 287 287 286 290 289 288 290 290 289 289 287 287 286 291 291 291 291 292 293 293 293
298 300 295 293 291 291 292 293 295 295 294 295 293 291 292 293 293 292 293 293 293 291 289 288 287 286 283 290 289 285 289 290 290 290 290 285 289 291 290 292 291 291 293 292 291

GFSSW_sfc_thetae_078.txt.gz
Theta_e
320 322 322 323 323 323 325 325 326 325 326 326 327 327 327 327 326 315 308 313 319 330 340 319 315 318 320 314 319 321 308 306 309 311 312 314 308 310 312 311 312 316 319 322 326
320 320 321 322 323 322 324 325 325 325 325 325 326 326 326 326 317 309 319 327 330 333 324 313 310 312 311 312 315 312 306 308 315 317 312 313 309 308 307 308 310 317 321 325 326
320 320 321 322 322 322 323 324 324 324 324 324 323 324 325 324 307 306 335 332 335 339 324 312 312 312 309 312 312 312 307 314 316 317 319 313 308 309 305 303 310 317 320 324 324
320 319 321 321 321 322 322 323 323 323 323 323 323 323 324 316 289 308 339 337 331 321 320 310 308 306 306 306 312 310 316 318 318 316 314 313 313 305 305 306 311 322 324 325 324
320 320 320 321 321 322 322 322 322 323 323 323 323 322 317 304 304 314 325 322 316 321 315 307 306 307 305 308 311 310 314 318 317 314 312 313 309 307 307 309 312 322 325 325 325
319 320 320 320 321 321 321 321 322 322 322 322 323 322 311 297 312 315 315 314 314 312 315 308 307 310 309 310 309 313 315 316 313 312 314 308 311 312 308 309 312 320 321 322 323
319 320 320 320 320 320 319 319 320 320 321 322 322 317 308 303 313 313 313 311 312 312 309 313 309 307 311 310 314 310 308 307 308 310 309 314 305 306 307 308 311 313 314 318 320
318 319 319 319 319 319 320 320 321 321 321 322 322 314 301 313 313 313 314 312 314 314 312 314 312 311 309 311 309 306 304 298 306 307 307 311 301 309 314 308 305 307 309 312 315
317 318 318 318 318 319 319 320 321 321 322 322 315 308 300 318 310 315 314 309 311 310 309 312 315 309 309 302 300 302 295 298 300 308 308 307 302 308 314 310 306 304 304 308 311
316 317 318 318 318 318 320 320 320 318 318 318 315 303 305 305 310 311 310 312 307 306 306 304 305 301 305 299 294 294 296 299 297 304 306 303 302 309 314 315 313 309 305 306 311
316 318 318 317 318 318 316 309 304 302 308 302 303 303 305 309 313 308 310 308 306 302 294 302 297 296 301 305 303 301 300 299 302 309 305 301 304 308 311 310 309 307 302 301 307
316 316 317 317 318 318 312 306 307 307 299 308 307 307 309 310 303 307 308 299 299 294 299 300 295 303 308 309 306 303 299 298 299 309 304 305 305 309 310 307 307 304 302 300 300
315 316 317 317 318 312 309 309 314 309 298 303 309 307 308 309 304 303 306 301 298 296 299 296 300 307 306 306 304 303 300 298 297 301 300 299 296 299 303 302 302 302 301 301 300
316 317 317 318 309 308 308 315 313 310 292 298 303 305 307 310 302 309 310 306 302 297 299 299 304 305 303 303 305 299 305 304 301 297 293 298 288 290 295 295 298 298 297 298 299
317 317 317 317 304 306 310 312 312 307 282 301 302 310 306 304 304 304 313 307 300 300 300 297 301 301 301 303 306 302 305 304 302 295 290 290 286 288 292 291 294 294 296 296 298
317 318 317 311 308 310 311 310 308 292 284 298 304 302 302 304 303 305 306 308 307 302 302 300 306 304 301 304 305 304 298 297 295 291 285 289 288 286 289 291 292 293 295 296 298
317 318 316 313 301 311 310 304 291 285 298 295 298 301 299 298 300 299 299 297 295 292 291 298 299 303 306 298 302 300 295 286 284 282 282 288 287 289 289 292 294 294 294 295 294
317 317 314 314 312 311 305 297 284 293 293 301 300 300 295 299 298 298 295 294 299 298 294 291 288 297 303 299 296 296 296 286 280 280 283 288 284 287 291 294 295 296 295 295 295
315 306 307 310 313 309 300 288 290 291 298 298 298 294 293 298 297 295 293 294 294 298 294 293 290 298 300 302 299 293 291 293 286 284 282 284 285 289 292 292 293 293 294 294 294
304 301 303 312 312 304 295 292 293 298 300 300 292 296 292 294 295 293 293 295 295 297 295 292 286 294 297 298 300 295 297 287 285 279 277 281 281 284 288 290 292 292 292 293 293
301 295 303 311 306 298 290 292 297 301 300 298 295 295 295 294 293 293 294 295 296 297 295 292 290 289 293 292 293 292 292 291 289 285 280 278 282 287 290 292 291 291 292 293 293
297 288 303 305 292 292 291 297 300 298 299 298 297 299 296 296 292 294 296 297 297 296 292 293 290 285 288 291 293 292 290 289 284 282 281 279 281 289 291 294 294 292 293 293 294
296 294 301 301 287 287 292 296 297 296 296 296 294 297 296 294 293 295 296 299 298 297 293 292 288 282 284 287 288 287 290 290 287 285 281 278 282 290 289 291 292 291 292 293 293
294 290 294 294 292 290 289 292 293 298 296 296 294 294 293 292 295 293 294 297 297 298 300 297 290 285 282 284 286 283 287 289 286 281 281 282 283 286 289 290 291 291 292 293 294
294 289 292 287 290 290 290 292 291 292 296 294 292 292 291 288 290 292 294 293 295 300 294 291 286 285 287 288 288 287 288 288 285 284 282 284 285 288 289 290 292 293 292 292 292
293 293 294 291 292 290 291 288 292 294 293 293 290 292 291 288 290 288 291 290 290 291 289 289 286 286 284 288 288 286 288 288 288 287 285 286 286 289 290 289 290 291 292 291 291
298 299 295 292 289 288 289 291 294 294 295 293 292 290 289 292 292 292 292 292 291 289 288 286 286 285 281 288 288 285 288 288 288 288 288 284 287 289 288 290 290 290 291 291 290

GFSSW_sfc_thetae_081.txt.gz
Theta_e
321 320 321 322 322 323 323 325 323 325 325 325 324 325 325 326 325 314 307 311 319 329 332 322 314 315 318 313 317 320 307 305 308 310 311 313 309 310 312 311 312 318 317 319 323
320 320 320 322 322 322 322 324 324 324 324 323 324 324 324 325 315 309 317 324 330 336 321 314 307 309 309 310 313 311 305 307 314 315 311 313 308 306 309 310 311 316 320 322 325
320 320 320 321 321 321 322 322 323 323 322 322 322 322 323 323 307 302 324 333 332 327 325 319 309 308 306 310 310 310 306 312 315 316 317 313 307 307 308 305 312 316 317 321 323
319 320 320 320 321 321 321 322 322 322 322 323 322 322 323 315 288 304 328 329 328 318 318 317 309 302 303 304 311 308 313 315 316 314 313 311 309 304 308 308 312 319 321 321 320
319 319 320 320 320 321 320 321 321 321 321 321 322 322 316 303 302 313 324 320 314 312 316 306 303 303 303 305 308 308 313 317 316 314 311 311 308 305 304 308 314 322 321 321 322
319 319 319 320 320 320 320 320 320 321 321 320 321 321 309 296 310 313 313 311 312 310 308 309 304 307 305 307 305 310 312 314 315 312 313 308 308 308 307 309 319 321 320 321 322
318 318 319 319 319 319 320 320 321 321 321 321 320 317 307 303 312 311 312 310 311 310 307 311 308 303 306 306 312 312 308 308 308 309 309 313 304 303 308 308 315 318 317 320 322
318 318 318 318 318 319 320 320 320 321 321 321 321 315 301 313 312 313 313 311 313 313 312 311 312 305 307 308 307 305 303 299 305 307 306 308 300 306 312 309 309 313 315 317 319
317 318 318 318 318 319 319 320 321 322 321 321 315 309 299 315 308 312 314 309 309 309 309 312 309 303 304 300 297 299 294 296 300 308 306 305 300 305 313 309 306 305 308 312 313
317 317 318 318 318 319 320 320 320 318 318 319 315 304 305 303 308 310 310 310 306 304 304 303 304 299 299 298 291 293 295 296 296 303 306 303 302 307 312 313 306 304 306 309 310
317 317 318 318 318 319 315 309 303 302 305 301 302 303 305 309 311 308 310 307 304 300 294 299 295 293 296 301 301 300 298 297 299 305 302 302 303 305 311 311 310 310 306 302 305
317 317 318 318 318 318 311 305 305 305 297 306 306 306 309 309 302 306 307 298 297 293 296 296 291 299 303 307 303 301 300 297 299 307 302 301 301 306 309 308 307 308 304 300 304
317 317 316 318 318 310 307 308 313 308 297 302 307 306 307 307 303 303 305 302 297 293 295 293 298 305 306 306 303 300 298 296 298 301 299 300 297 300 303 305 302 300 300 300 301
317 317 317 318 308 307 307 313 312 309 291 296 302 305 306 308 301 309 308 304 301 296 297 297 303 303 301 301 304 297 304 302 300 297 292 298 289 292 294 297 296 296 296 297 299
316 317 318 317 304 305 309 310 309 305 281 299 301 309 306 302 303 303 310 306 300 299 299 295 300 299 299 301 305 300 305 303 300 295 292 291 288 291 290 291 293 294 295 296 297
317 317 318 309 305 308 310 309 307 290 282 296 302 301 300 302 302 304 304 307 306 302 300 298 304 302 300 302 305 304 298 296 295 292 286 291 291 290 289 291 291 292 294 295 296
318 317 315 314 300 309 308 303 290 284 296 294 296 300 298 296 299 298 297 296 294 289 290 297 298 301 304 297 300 299 294 284 284 286 285 289 288 292 290 291 293 294 292 293 293
317 317 314 314 310 309 304 296 284 292 291 299 298 298 293 297 297 298 295 295 298 298 293 291 289 296 302 298 295 295 294 285 281 280 283 288 284 288 290 293 293 294 293 293 293
314 304 305 308 312 308 296 286 289 291 295 296 296 292 292 296 296 295 292 293 294 299 292 291 290 300 300 300 300 294 291 297 286 283 282 283 285 288 291 291 292 292 292 292 292
302 301 301 311 310 301 292 290 292 297 298 297 289 293 290 292 293 293 292 295 294 297 298 294 288 295 298 299 298 295 300 289 287 280 278 280 281 284 287 289 291 291 290 291 291
299 294 300 310 304 295 287 289 295 300 298 296 293 293 293 292 292 290 293 295 296 296 295 292 291 289 292 292 293 291 289 288 287 284 279 278 282 287 289 291 290 291 291 291 291
296 287 301 303 292 289 289 295 300 297 298 296 295 296 294 294 291 291 293 297 296 295 292 293 288 285 287 292 293 293 289 290 285 283 280 279 282 287 288 292 292 291 292 292 293
294 293 301 301 287 286 290 294 296 295 295 295 293 295 295 291 289 292 294 298 297 296 291 292 289 282 283 286 289 289 291 289 287 284 280 278 282 289 288 291 292 291 291 292 293
292 288 293 294 291 288 288 290 291 296 295 295 293 293 291 289 292 292 294 296 296 295 301 295 289 285 282 284 286 283 287 288 286 281 281 281 283 285 287 290 290 290 292 291 292
292 287 291 287 289 289 289 290 290 291 293 293 291 291 289 287 288 288 291 293 294 299 293 291 287 285 286 288 286 285 286 287 285 284 283 284 284 287 289 290 292 292 291 291 291
291 290 292 290 290 289 290 287 290 293 291 291 289 292 289 287 288 287 289 289 289 291 289 288 285 285 284 287 287 286 287 287 286 285 285 285 285 289 288 289 290 290 291 291 290
297 296 294 291 287 286 286 289 292 292 294 293 290 288 288 290 291 290 291 291 290 288 287 286 285 283 281 287 288 285 288 287 287 287 287 283 287 288 287 289 289 290 291 291 290

GFSSW_sfc_thetae_084.txt.gz
Theta_e
320 320 320 321 322 322 322 323 325 324 324 323 323 324 324 325 325 313 306 310 318 333 334 319 313 312 315 311 316 319 307 304 308 309 311 313 310 310 312 313 314 318 315 317 331
320 320 320 320 322 321 322 322 322 322 323 324 324 323 324 325 314 308 317 326 333 333 321 313 305 307 306 308 311 311 305 307 314 315 311 313 309 307 309 310 310 314 317 325 335
320 320 320 320 321 321 321 321 322 321 321 322 323 323 322 322 304 298 323 328 334 326 317 319 316 306 303 307 308 309 305 310 315 316 316 313 309 310 309 306 311 314 315 326 331
320 320 320 320 320 320 320 320 321 321 321 321 321 322 324 312 286 304 325 325 325 316 316 316 313 299 300 302 309 305 311 313 315 314 313 310 310 304 310 311 312 318 318 323 329
319 320 320 320 320 320 320 320 321 321 321 321 320 321 314 302 300 311 323 318 312 311 315 308 301 300 300 303 305 307 310 314 314 313 311 311 307 305 307 309 312 318 319 320 326
319 319 320 320 320 320 320 321 321 322 321 320 320 321 307 296 308 310 311 311 311 308 306 309 302 304 303 304 304 307 311 314 315 310 312 307 307 306 305 308 316 317 317 318 321
319 319 320 320 320 320 320 321 321 321 321 320 320 316 307 302 311 311 312 309 310 309 304 308 309 302 301 303 310 308 306 307 310 308 308 310 304 303 309 309 315 314 314 317 319
318 319 319 319 320 320 320 321 322 322 322 321 320 314 301 313 312 312 312 310 311 311 310 310 310 305 300 305 305 305 305 299 306 306 306 307 299 305 310 310 313 314 315 317 319
318 318 318 319 319 320 320 321 322 321 321 321 312 306 299 314 307 310 312 308 309 309 309 312 308 302 300 297 295 298 293 295 299 305 305 305 299 304 311 310 310 312 314 317 318
318 318 317 318 318 319 320 320 320 319 318 318 314 301 303 302 308 309 309 310 306 304 303 301 302 296 295 294 290 291 293 294 296 302 304 301 301 306 310 309 308 308 310 314 318
317 318 318 317 318 318 314 307 302 299 303 300 301 301 304 308 311 307 309 306 303 298 292 297 293 291 293 297 299 298 297 295 297 303 302 301 302 305 309 311 309 306 305 305 307
317 318 317 317 318 318 310 303 303 304 297 304 304 305 308 308 301 304 307 297 296 291 294 293 289 296 300 300 299 300 299 297 298 304 300 300 301 305 307 309 310 310 309 308 302
317 317 317 318 318 309 306 306 311 307 296 301 305 305 306 306 301 301 303 299 295 293 295 291 295 300 300 300 300 301 298 298 297 300 298 299 297 299 305 307 306 302 305 303 301
317 317 317 318 306 306 305 311 309 308 290 294 300 303 306 307 300 307 305 302 300 295 296 295 300 300 300 299 301 295 302 301 300 297 292 297 289 294 296 299 297 296 297 298 298
317 317 317 317 305 302 307 308 308 303 280 297 301 308 306 301 301 302 309 304 298 298 296 292 297 297 298 299 303 297 304 300 299 293 291 290 289 292 290 292 294 294 296 296 296
318 317 317 307 304 306 308 307 306 289 281 294 301 300 299 300 301 304 302 306 306 300 300 297 303 301 298 301 303 302 298 297 293 291 285 292 291 291 289 291 291 292 295 295 295
317 317 314 314 300 308 307 301 289 283 294 292 295 298 297 295 298 298 296 297 295 291 291 295 296 300 304 296 299 299 294 285 284 284 285 288 289 295 291 290 292 294 293 292 292
316 316 313 313 309 309 302 293 281 290 290 296 297 297 293 296 296 297 293 294 298 298 293 289 287 295 299 296 294 294 294 286 281 281 284 288 286 291 292 292 293 293 292 292 292
313 302 302 306 310 307 294 285 287 290 294 294 295 290 290 295 295 293 290 291 293 300 290 288 289 297 299 299 298 293 290 293 284 281 281 284 285 288 291 291 292 291 291 291 292
301 299 299 309 309 299 290 289 290 297 295 296 288 291 288 291 291 291 291 293 293 297 297 294 286 295 300 298 295 294 297 292 288 279 277 279 280 285 287 289 290 289 290 290 290
297 292 299 309 302 293 286 287 293 299 298 294 292 291 291 291 291 289 291 295 295 295 294 293 291 289 296 292 291 290 288 289 292 287 282 279 282 287 288 290 290 290 290 290 291
295 287 299 301 291 287 287 293 299 296 296 295 294 293 292 291 290 289 291 294 296 294 291 292 289 285 288 292 292 293 290 290 285 282 280 281 283 287 287 290 292 291 291 291 291
293 293 301 301 285 284 289 293 294 294 293 293 292 295 294 289 287 290 294 296 295 294 290 290 287 281 283 288 291 291 291 289 288 285 279 279 283 289 287 289 291 291 290 291 291
291 286 292 293 289 287 287 289 290 295 293 294 292 292 290 288 290 290 290 296 295 294 302 295 289 284 281 283 285 284 288 288 286 282 280 281 284 285 287 290 290 290 291 290 291
291 286 289 286 287 287 288 289 288 289 293 292 290 290 288 285 286 286 289 291 294 298 292 289 285 284 285 287 285 285 285 286 284 284 283 284 284 287 288 289 290 291 290 290 290
290 289 290 288 288 285 289 286 287 290 290 290 287 289 288 286 287 285 287 286 287 290 288 288 284 284 283 288 286 285 287 286 285 284 284 283 284 288 286 288 289 290 290 290 289
295 296 293 289 285 285 285 288 291 291 292 293 290 288 287 289 290 290 290 290 289 287 286 285 284 283 281 287 287 285 287 287 285 286 286 283 286 287 286 288 288 289 290 290 289

GFSSW_sfc_thetae_087.txt.gz
Theta_e
320 321 321 321 321 322 322 323 323 323 322 323 324 323 323 325 323 314 306 312 321 334 330 321 314 313 317 315 320 323 312 308 311 313 316 315 315 316 318 318 320 323 321 323 336
320 320 320 321 321 321 321 321 322 322 321 322 323 323 323 324 314 308 318 324 335 333 316 315 307 310 310 312 315 317 310 310 317 319 317 316 315 314 314 316 316 320 322 332 338
320 320 320 321 321 321 321 321 321 322 322 322 322 322 322 320 303 304 328 327 328 324 315 320 316 307 306 311 311 313 309 314 317 319 318 316 313 315 313 312 318 319 321 332 335
319 319 321 321 321 321 322 322 322 322 323 322 322 321 323 312 291 306 325 325 325 317 319 317 313 303 302 305 311 307 313 315 317 319 316 314 314 309 314 319 312 321 326 332 333
319 320 320 321 321 321 321 322 322 323 322 322 321 321 314 303 302 311 320 317 313 311 315 311 305 302 301 304 307 308 312 315 318 315 313 313 310 310 311 316 317 322 328 331 332
319 320 320 321 321 321 321 322 322 322 322 321 321 320 308 296 310 311 313 312 311 309 308 310 306 305 302 304 305 309 312 314 317 313 314 311 309 309 309 314 318 320 322 329 331
319 319 320 320 320 321 321 321 322 322 322 322 321 316 307 302 313 313 313 310 311 310 306 308 311 306 304 302 308 309 306 311 314 313 312 312 307 307 312 313 318 318 319 323 329
319 319 319 319 319 320 321 321 322 322 323 322 320 314 301 313 314 313 313 311 312 312 310 310 311 308 305 305 303 305 307 301 310 310 310 312 307 309 313 316 317 318 318 319 322
318 318 319 318 319 320 320 320 322 321 322 321 314 307 300 314 308 311 313 309 310 310 310 312 309 304 303 298 295 301 296 300 303 309 307 309 305 308 313 313 316 318 319 320 321
318 318 318 318 318 319 319 320 320 319 319 318 314 302 303 303 309 311 311 312 307 305 304 304 303 299 297 295 286 294 297 299 301 304 306 305 305 308 312 311 313 316 318 320 320
317 318 318 318 318 319 315 307 303 301 306 302 301 302 304 309 311 308 310 307 305 301 295 299 295 293 295 296 297 299 299 299 301 305 305 304 305 307 311 313 311 311 313 315 319
317 317 317 318 319 318 310 304 305 306 298 305 304 304 307 309 302 306 309 300 299 293 296 296 292 297 300 298 297 294 295 298 303 304 304 303 304 308 310 311 313 312 310 310 309
317 317 317 318 318 309 307 308 311 309 298 302 305 304 306 307 303 303 305 301 297 295 295 293 295 300 297 298 295 294 294 298 300 302 303 302 301 304 308 310 312 313 314 314 314
317 317 317 317 306 305 307 310 309 309 291 295 301 305 307 307 301 308 306 303 300 297 297 295 299 297 297 296 299 293 302 302 300 300 295 300 293 300 303 305 306 309 305 309 307
317 317 316 315 304 302 309 309 309 304 282 297 301 309 306 303 303 305 309 306 299 299 299 295 298 298 296 297 302 297 304 302 300 298 297 295 296 299 295 297 301 302 301 303 303
317 317 316 307 305 306 308 308 306 290 284 294 301 300 299 301 302 305 304 308 307 301 301 299 303 302 300 302 303 302 300 298 296 296 291 296 296 296 296 298 297 298 300 301 301
316 317 314 313 299 309 307 302 290 284 295 293 295 298 297 296 298 300 297 298 296 290 292 296 297 301 303 298 302 301 298 289 288 289 288 291 293 298 296 295 297 298 299 299 299
315 314 312 312 309 310 301 293 284 291 291 296 297 296 293 297 297 297 294 294 300 298 292 288 288 296 300 298 296 297 297 289 283 286 289 291 289 296 295 296 296 297 298 297 298
311 302 302 305 309 307 295 286 287 291 295 294 294 291 291 295 295 294 293 293 295 300 290 288 288 298 300 300 300 295 293 297 287 285 286 289 291 293 294 294 294 295 296 296 296
302 299 299 308 309 299 291 289 290 297 296 296 290 293 289 291 292 292 291 295 294 297 300 294 288 296 300 299 298 298 300 293 293 283 281 284 285 292 291 293 294 294 295 295 295
298 292 301 308 301 294 286 287 293 298 298 294 292 292 292 291 292 291 292 296 296 295 296 296 292 291 298 295 292 294 292 292 295 290 285 283 288 292 292 294 294 295 295 295 295
294 289 298 301 291 287 288 293 298 296 296 295 295 294 292 292 291 291 292 295 296 295 292 294 291 286 291 298 294 295 292 294 291 285 285 284 289 292 292 292 296 295 295 295 295
292 292 301 301 287 285 289 292 294 294 293 293 293 295 295 291 288 291 293 298 297 295 292 292 290 284 285 291 294 294 294 291 290 289 283 284 289 291 293 292 295 296 295 294 294
291 286 292 294 290 289 288 289 290 294 293 293 292 292 290 289 291 290 291 296 296 296 302 295 290 287 284 287 289 289 290 291 290 286 285 286 289 292 293 293 293 295 295 294 294
290 287 290 287 288 288 289 289 289 289 293 292 290 289 288 285 287 287 290 291 293 297 293 291 286 287 287 288 288 287 287 288 287 288 287 289 287 291 292 293 295 296 294 293 293
289 289 291 289 289 288 289 287 288 290 290 290 288 290 288 286 288 286 288 288 289 291 289 289 286 286 285 290 288 286 288 287 287 288 287 287 288 292 291 292 293 294 293 293 293
294 295 294 289 286 286 286 288 291 291 292 293 291 289 288 290 290 291 291 291 290 289 288 287 286 285 283 287 288 285 289 289 288 288 289 287 292 292 291 291 293 293 294 294 293

GFSSW_sfc_thetae_090.txt.gz
Theta_e
321 321 321 321 322 321 322 322 323 323 323 323 324 324 324 325 324 318 310 319 327 337 328 320 313 315 318 318 322 325 314 311 314 315 318 323 321 322 325 322 325 326 326 329 339
320 321 321 321 322 322 322 322 323 323 323 324 324 324 324 324 317 314 319 325 331 330 315 315 307 311 312 313 318 317 312 313 320 321 321 323 322 321 320 321 321 324 328 335 339
321 320 320 321 321 321 321 321 322 323 323 323 323 323 323 322 308 313 327 326 327 325 318 320 316 309 307 313 312 313 309 316 319 322 324 322 321 322 320 318 321 321 328 335 337
320 320 320 321 321 322 322 322 322 323 323 323 323 322 323 316 296 314 323 323 325 318 319 314 311 303 302 303 309 307 311 314 318 322 322 320 322 319 321 323 324 325 331 335 335
320 320 321 322 322 322 322 323 323 324 323 323 323 322 318 307 303 313 319 319 316 314 311 308 305 305 300 302 305 306 308 312 316 319 321 322 320 320 319 325 321 321 330 333 335
320 320 321 321 321 321 322 322 323 323 323 323 323 321 313 300 314 314 315 315 314 314 311 312 306 308 304 303 302 306 309 308 312 317 319 316 318 314 319 322 320 324 327 333 334
319 320 320 320 320 321 321 322 322 323 323 323 322 318 311 306 316 318 317 314 314 314 310 311 311 307 306 302 306 306 301 306 311 309 316 318 314 312 320 317 320 322 326 330 333
319 319 320 320 320 320 321 321 322 323 323 321 321 317 308 317 320 317 317 315 316 316 314 314 313 310 308 307 303 301 304 296 304 312 313 315 308 318 319 316 317 321 324 325 331
319 319 319 319 319 320 320 321 321 323 322 321 317 312 305 317 313 315 316 312 313 314 314 313 310 306 306 300 296 298 292 298 299 312 312 312 308 317 318 317 318 321 322 324 326
318 318 319 319 319 320 320 320 322 322 320 320 317 308 310 308 313 314 316 314 310 309 307 307 306 301 301 298 289 291 292 296 298 305 312 310 311 313 316 316 319 321 323 324 325
318 318 318 318 319 319 319 316 310 309 310 306 307 307 309 314 315 313 314 311 309 305 300 302 298 296 297 298 298 296 294 294 300 305 308 308 309 311 314 314 316 320 322 323 323
318 318 318 318 318 318 318 309 308 309 304 310 309 308 311 312 307 310 313 305 303 300 301 299 296 301 302 299 297 296 294 295 301 305 307 306 309 313 313 314 315 316 319 321 322
318 318 317 318 318 315 315 312 315 313 304 307 310 308 310 311 307 307 309 306 302 299 301 298 300 304 300 298 296 296 295 294 297 305 308 305 303 309 313 314 316 317 318 318 319
318 318 317 317 311 313 313 315 316 314 301 300 304 309 310 310 305 312 311 306 303 299 301 300 303 300 299 297 298 293 299 297 300 300 296 307 293 304 310 311 313 316 317 317 316
317 317 317 315 311 308 311 315 316 312 289 302 304 314 310 306 306 307 311 308 302 302 302 299 301 300 298 297 300 296 301 298 299 300 301 301 297 303 308 308 312 314 317 317 318
316 317 317 313 313 312 315 314 314 298 288 298 303 302 303 304 305 308 306 310 309 302 301 301 306 303 302 304 304 304 301 301 301 300 292 298 299 299 303 307 310 312 313 313 312
316 315 315 315 306 315 314 311 298 292 300 297 298 301 301 299 301 303 302 301 299 294 292 297 299 303 303 300 305 303 298 290 288 286 289 299 298 302 306 304 305 304 307 309 308
315 313 314 315 316 315 311 302 291 295 296 301 299 300 296 300 299 300 300 298 302 300 294 290 289 298 302 300 298 298 298 291 285 288 291 296 294 299 303 302 302 302 306 306 305
312 312 311 313 315 315 304 293 294 297 299 298 299 296 296 298 298 298 298 297 298 302 293 290 291 300 302 303 302 298 296 297 290 292 294 296 298 302 299 300 300 302 303 303 303
311 308 311 314 316 308 300 294 296 300 300 299 293 296 294 296 296 297 296 299 299 299 303 295 289 298 300 303 301 300 302 291 292 287 286 291 292 297 298 299 300 300 302 301 302
308 301 311 314 311 304 294 294 297 302 301 297 296 295 296 295 296 295 296 298 300 299 299 300 294 292 300 297 295 298 296 298 298 294 290 289 291 298 298 298 300 301 302 302 302
305 295 308 310 300 299 296 297 298 299 300 299 299 298 296 297 295 295 295 297 299 299 295 299 294 288 294 301 301 295 295 299 295 291 292 292 293 297 298 298 302 301 301 301 301
299 301 309 309 293 295 296 296 298 297 297 297 296 297 298 295 292 295 297 301 300 298 296 297 294 289 289 295 297 296 298 296 295 297 292 291 293 298 300 299 302 301 300 300 300
300 294 302 306 300 297 295 295 294 299 297 298 297 297 295 294 296 294 295 298 300 299 302 299 294 291 288 289 291 291 295 296 296 293 292 293 296 299 299 299 300 301 301 301 301
301 295 298 293 296 297 296 295 294 293 298 298 294 294 292 291 293 292 295 296 298 298 297 296 292 292 293 293 292 292 291 293 292 294 291 293 293 297 299 298 302 303 301 300 300
297 297 299 298 295 295 294 293 292 293 295 293 293 295 294 292 293 292 293 294 294 297 296 296 292 292 289 292 293 290 292 292 291 292 293 294 293 297 297 299 301 302 300 300 300
303 304 300 294 293 293 292 293 293 295 296 297 296 294 293 295 296 297 297 297 296 294 293 293 292 291 288 291 292 290 292 293 292 293 293 291 295 297 297 297 300 301 301 301 301

GFSSW_sfc_thetae_093.txt.gz
Theta_e
321 322 322 322 322 323 323 324 324 324 324 325 325 325 325 325 325 321 312 321 328 336 332 319 314 315 318 318 323 326 314 311 314 316 318 324 322 328 329 326 326 326 326 331 337
322 322 321 322 322 322 322 323 323 323 324 324 325 325 324 324 320 314 321 327 332 331 317 315 308 310 310 311 316 315 310 311 319 320 319 323 324 324 322 323 324 324 330 335 337
321 321 322 322 322 322 322 323 323 323 324 325 324 324 324 323 312 312 326 327 328 327 316 317 315 310 306 310 310 311 308 312 315 320 322 322 323 326 322 320 324 323 327 334 334
321 321 321 322 322 323 323 323 324 325 325 325 324 324 324 320 298 313 323 324 326 321 317 313 311 306 303 302 308 304 309 311 312 316 320 320 324 322 323 324 329 328 329 334 333
321 321 321 322 322 322 323 323 324 325 324 323 324 324 321 310 306 316 319 322 318 317 312 310 306 305 302 303 304 302 305 309 311 313 316 321 321 321 322 327 327 326 328 333 334
320 321 321 322 321 322 322 323 323 324 324 324 323 322 317 304 314 316 316 317 316 316 313 312 308 308 304 303 302 304 305 307 308 309 313 312 315 320 323 327 325 324 324 331 334
320 321 321 321 321 321 322 322 323 324 324 324 322 321 314 309 317 319 319 317 317 316 312 313 312 308 307 303 307 305 301 303 304 308 307 313 311 313 322 323 322 323 326 329 333
320 320 320 320 321 321 322 322 323 324 323 322 321 320 310 318 321 319 320 318 318 318 316 316 315 310 307 308 305 301 300 296 304 303 308 307 303 313 319 321 319 322 324 327 331
319 320 320 320 320 321 322 322 322 323 321 321 320 316 307 318 315 318 319 314 316 316 316 315 312 308 306 302 299 299 293 295 298 306 303 307 302 311 315 320 319 321 322 326 330
319 319 319 319 320 321 321 322 323 322 322 322 320 312 313 310 316 317 319 316 313 312 310 309 307 303 303 299 291 294 294 296 295 300 304 303 306 310 312 318 318 321 322 322 326
319 319 319 319 319 319 320 319 313 313 314 309 310 309 312 316 318 315 316 314 312 309 303 306 300 298 301 301 300 297 295 294 297 301 300 303 305 309 312 318 317 320 321 321 322
319 319 319 318 319 319 319 311 309 312 306 314 313 312 315 315 309 313 316 308 307 302 305 303 298 304 304 303 300 297 294 294 297 300 300 301 303 309 312 316 317 319 321 321 322
318 319 318 318 318 317 316 312 318 316 307 310 312 311 312 313 309 309 312 310 305 302 303 299 302 305 302 300 298 297 294 294 294 298 301 302 300 305 310 316 317 319 322 322 321
317 318 318 317 313 313 315 316 319 317 303 303 306 310 312 313 308 314 314 309 306 302 303 302 305 303 301 299 299 293 299 297 296 294 292 303 293 301 306 312 315 317 318 318 320
318 317 317 316 313 309 312 316 319 316 291 303 305 315 312 307 308 309 315 309 303 303 303 299 301 301 299 299 302 296 301 298 297 294 296 298 295 299 305 306 311 316 318 318 318
318 316 316 317 314 314 316 317 316 301 290 300 305 304 304 305 305 309 309 312 311 304 304 302 307 305 303 304 304 304 299 298 298 297 288 293 296 296 300 304 309 315 318 319 320
317 315 315 316 309 317 317 312 300 293 302 298 300 304 302 301 303 304 303 302 300 295 296 300 300 305 305 301 304 303 296 286 286 288 289 297 293 298 306 310 310 312 316 319 319
315 313 315 316 319 319 315 304 292 298 298 303 302 302 299 302 301 302 301 298 302 300 297 293 290 300 304 301 298 299 296 289 282 285 289 299 294 298 306 307 307 308 313 313 311
313 315 314 317 320 319 308 295 295 299 301 300 301 298 298 301 300 301 300 298 299 300 293 293 292 303 303 305 302 298 293 298 287 290 287 293 299 302 304 304 306 307 307 308 308
311 309 313 318 320 313 302 296 297 302 302 300 295 298 295 298 298 299 298 300 298 300 302 298 291 300 303 305 303 300 301 291 292 287 285 291 292 293 300 302 303 304 306 305 306
311 302 314 317 316 306 296 297 298 302 302 298 297 297 298 297 298 297 297 300 300 299 301 300 297 296 301 298 297 298 297 296 298 295 288 287 289 298 298 302 303 304 305 304 305
305 299 312 316 301 303 296 299 299 300 303 301 300 299 298 298 297 297 296 299 302 301 296 300 296 292 294 302 303 299 295 298 291 290 295 292 290 302 302 304 305 303 304 304 305
300 302 312 313 298 298 299 298 299 298 299 299 298 299 300 297 294 297 298 302 302 300 298 299 295 290 292 297 299 295 300 299 299 297 292 290 291 302 303 304 304 303 303 303 303
301 298 304 307 304 298 296 295 296 301 299 300 299 300 298 296 299 296 297 300 302 300 303 302 296 293 288 291 295 292 294 300 298 294 293 293 295 299 300 301 303 303 303 302 303
301 299 301 299 300 298 297 295 293 293 300 300 297 297 296 293 294 295 297 298 300 300 300 299 291 295 295 295 295 294 293 294 293 294 290 294 294 297 298 300 303 304 303 302 302
299 297 301 299 298 296 294 293 293 293 295 293 294 296 297 294 295 293 296 296 295 299 298 299 292 295 293 294 295 293 296 296 295 294 293 294 294 299 300 302 303 303 303 302 302
304 306 301 299 297 296 297 295 293 295 295 298 297 295 292 294 297 298 298 298 298 296 295 295 294 293 291 294 294 292 293 294 295 296 295 292 296 300 299 300 302 303 303 303 303

GFSSW_sfc_thetae_096.txt.gz
Theta_e
322 323 323 323 323 323 323 324 324 324 325 326 326 326 326 326 325 322 313 322 327 334 333 321 316 313 316 318 321 325 311 307 310 313 315 322 320 326 327 324 325 324 324 329 333
322 323 323 323 323 323 324 324 324 325 325 325 326 326 326 325 320 315 322 329 330 331 318 313 311 312 309 311 314 313 308 308 315 317 316 320 320 323 321 321 321 321 328 332 332
322 322 323 323 323 324 324 324 325 325 326 326 325 325 325 324 315 312 327 325 328 327 316 315 314 311 306 308 308 309 305 310 311 313 315 315 319 324 320 317 321 320 326 329 329
322 322 323 323 323 323 324 324 324 325 326 326 325 325 325 320 297 316 323 324 327 324 316 311 310 308 304 302 305 301 306 307 310 312 311 310 319 319 320 322 325 327 329 330 328
321 322 322 323 323 323 323 323 324 325 325 325 325 325 321 313 307 319 322 324 319 316 312 309 307 306 301 303 303 300 302 305 307 308 309 312 312 316 319 324 326 328 326 329 329
321 322 322 322 322 322 323 323 324 325 325 325 325 324 318 305 315 317 316 317 317 315 313 312 307 308 303 301 300 303 302 302 305 306 307 306 310 312 316 322 323 325 323 329 330
321 321 322 321 321 322 322 323 324 324 325 325 324 321 315 308 317 320 319 318 318 316 312 314 312 307 306 302 306 304 299 301 302 303 305 307 302 306 313 317 321 321 322 323 330
320 321 321 321 321 321 322 323 323 324 324 323 323 321 311 318 320 319 320 317 319 318 316 317 315 309 306 307 304 299 299 292 300 302 303 303 296 305 313 314 315 320 320 321 327
321 320 320 320 320 321 322 322 323 324 324 322 319 317 307 318 315 318 319 314 316 316 317 316 312 307 307 300 296 298 291 293 296 302 301 299 296 306 309 311 312 317 319 321 323
320 320 320 320 320 321 321 323 325 323 323 323 320 312 313 310 315 317 319 317 312 313 310 309 307 302 302 298 290 293 292 294 294 299 300 298 296 303 308 308 310 315 319 319 322
319 320 320 319 320 320 319 319 311 314 313 308 309 309 311 315 318 315 317 314 313 309 302 307 300 296 299 302 301 299 296 294 296 299 297 295 297 301 306 309 309 313 317 317 323
318 319 319 319 319 319 317 310 309 311 304 314 313 312 314 315 308 313 316 308 307 301 305 302 297 303 303 303 301 299 295 294 296 298 296 295 294 299 306 309 311 315 316 317 318
319 318 319 319 319 315 315 311 318 317 305 310 313 310 311 312 308 309 312 309 304 301 301 298 301 305 303 300 297 297 295 294 293 296 297 295 292 295 303 308 314 316 317 319 318
319 318 317 317 314 312 314 314 318 318 301 304 307 310 311 313 306 314 314 309 305 300 302 300 305 302 301 298 299 293 299 297 295 293 286 295 285 294 301 303 310 313 314 316 317
319 318 317 315 312 308 312 315 318 315 290 303 306 314 311 306 307 309 315 309 302 302 302 298 300 299 298 299 301 296 300 297 297 292 290 290 288 294 301 300 308 311 313 315 317
319 318 316 315 315 314 315 315 315 301 290 300 305 304 304 306 306 308 308 312 310 303 302 301 307 304 301 303 303 304 299 297 296 293 284 289 291 292 297 300 307 311 313 314 315
318 317 314 316 309 317 318 311 298 293 302 298 299 302 301 301 302 303 302 301 297 291 292 298 300 304 305 300 303 301 295 284 283 284 283 294 290 292 300 304 305 308 310 314 314
316 314 316 314 318 319 314 303 291 298 298 303 301 300 298 301 301 301 300 297 299 296 292 290 289 298 303 300 297 298 294 286 278 283 286 294 288 294 305 306 308 310 314 316 314
313 314 313 317 319 317 306 294 294 297 300 298 298 296 297 300 299 299 298 297 298 297 290 291 292 301 303 303 302 296 293 296 287 289 287 288 294 300 304 303 304 305 306 306 306
308 309 311 317 319 313 301 296 297 301 300 299 292 297 293 296 296 296 297 300 297 299 300 296 289 299 302 305 304 300 300 290 289 283 281 288 287 289 296 299 301 301 300 302 303
308 302 313 317 315 304 296 296 298 302 302 297 295 294 295 295 296 295 296 299 299 298 299 297 294 293 299 298 295 296 294 296 294 292 286 283 286 295 296 299 299 299 300 301 302
305 298 311 313 300 302 296 298 299 298 302 300 300 298 297 297 294 295 295 297 301 300 295 298 293 288 293 300 302 299 295 297 290 288 290 288 286 297 300 300 300 300 304 303 303
300 302 312 310 296 297 300 298 299 298 298 298 297 300 299 295 292 296 297 302 302 299 296 296 291 286 289 294 296 293 295 299 297 296 290 287 290 298 299 299 300 298 299 300 302
301 297 303 305 304 296 296 296 296 302 299 300 298 300 297 295 297 295 295 301 302 301 305 301 293 289 285 289 292 290 293 294 296 291 290 290 291 293 297 299 299 299 299 299 300
300 298 300 298 299 299 298 296 294 293 299 300 297 297 295 291 292 292 295 296 299 301 300 296 289 292 293 294 293 292 292 292 290 289 285 289 290 293 295 297 300 300 300 299 299
298 297 300 297 299 297 296 295 294 294 294 293 292 295 295 291 292 290 293 294 293 297 295 296 290 292 290 295 294 292 294 294 294 293 291 292 291 296 297 299 298 298 299 298 298
303 305 301 298 297 295 296 296 295 295 296 296 296 293 290 292 295 295 295 294 293 292 292 293 292 290 287 294 294 289 291 293 293 292 290 288 292 296 295 298 297 298 299 299 299

GFSSW_sfc_thetae_099.txt.gz
Theta_e
323 323 324 324 324 324 325 325 326 326 326 327 327 327 327 327 326 318 312 319 323 332 333 319 320 314 312 309 316 319 305 303 306 310 313 320 317 325 326 323 325 326 324 327 331
323 323 323 324 324 324 325 325 325 326 326 327 327 327 326 326 317 312 322 326 329 330 320 309 309 309 302 305 306 308 303 305 313 314 313 313 311 322 319 318 320 322 327 330 331
323 323 323 324 324 324 324 324 325 325 326 327 327 326 326 323 311 313 328 323 328 328 320 314 311 309 300 301 303 303 301 308 309 311 311 309 308 324 320 316 322 321 324 328 328
322 322 323 323 324 324 324 324 325 326 327 327 326 326 326 319 294 316 326 325 330 326 319 310 306 300 298 296 301 296 302 307 309 311 309 306 309 311 320 321 327 328 326 328 326
322 322 323 323 323 324 324 324 324 326 326 326 327 326 319 310 303 323 327 323 320 316 311 308 302 300 296 298 298 296 298 303 304 304 304 305 305 307 316 319 324 326 329 328 326
322 322 322 322 322 323 323 323 324 325 325 325 326 325 315 300 312 316 315 315 317 314 311 310 305 305 299 298 295 299 299 300 301 301 303 303 304 305 310 322 322 324 326 327 328
322 322 322 322 322 322 322 323 323 324 324 326 325 321 312 307 312 313 317 315 317 316 311 313 311 305 303 299 303 301 295 297 298 300 299 303 299 301 309 314 319 320 321 324 328
322 322 322 321 321 321 322 323 323 323 324 325 324 315 306 315 314 316 317 315 317 316 315 314 313 307 304 304 302 297 295 289 296 298 300 299 292 300 305 307 308 316 317 319 327
321 321 321 321 321 321 323 323 323 325 325 325 316 311 304 320 312 315 315 313 314 314 314 316 312 304 304 296 291 293 287 289 293 299 298 296 293 299 304 306 306 310 317 319 318
320 320 320 320 320 321 322 322 324 323 323 322 320 305 310 307 313 314 313 315 311 311 309 307 302 297 296 293 288 291 290 292 291 296 297 294 292 298 302 305 305 305 316 318 319
320 319 319 320 320 321 316 311 304 304 308 303 305 306 309 313 315 311 315 312 311 306 297 302 298 293 296 297 298 296 294 293 296 299 294 293 293 295 298 300 302 304 309 317 319
320 320 319 319 318 319 313 306 306 307 300 310 311 310 312 312 306 310 313 304 303 297 300 296 292 299 302 302 299 296 293 291 295 298 294 292 292 295 296 299 302 304 306 311 317
320 320 319 318 318 312 309 308 313 312 300 308 311 309 310 310 306 307 310 306 301 297 297 293 297 304 302 299 297 295 293 293 293 296 295 291 289 291 296 297 303 308 312 315 318
320 319 318 317 310 307 307 310 312 313 296 302 305 309 311 313 305 313 312 307 302 297 299 297 303 301 299 298 299 292 299 298 295 291 284 290 282 288 292 295 299 306 310 316 318
319 318 317 316 306 306 308 310 310 309 284 302 305 313 308 305 305 307 313 307 299 300 297 293 298 298 298 298 300 296 301 297 296 291 287 289 283 286 292 295 298 303 309 315 317
319 318 316 311 309 309 311 311 308 295 286 299 305 302 300 303 303 306 307 309 307 301 297 295 303 303 300 302 302 302 299 297 295 292 281 287 286 285 292 295 299 304 310 313 314
318 317 313 313 304 311 312 305 291 288 299 296 297 299 298 297 300 301 299 295 291 286 287 292 297 301 303 297 301 301 293 282 279 281 282 292 287 288 298 302 303 304 307 310 312
317 315 313 313 310 312 308 296 285 295 294 300 297 297 294 299 297 297 295 291 294 292 287 284 285 295 300 297 295 296 293 284 276 280 284 289 285 293 301 305 306 308 310 310 311
313 305 306 310 315 310 299 288 288 293 297 295 295 292 293 296 295 294 292 293 293 293 286 286 288 298 299 301 299 294 293 294 285 287 285 287 291 299 302 303 304 305 305 305 306
302 302 303 314 314 306 294 292 293 299 298 297 289 294 289 291 292 291 291 295 295 297 294 291 285 294 299 301 300 296 300 290 289 283 277 286 286 288 297 299 300 300 304 305 307
302 297 307 312 308 298 289 290 296 299 300 295 292 292 292 292 292 290 292 296 297 296 296 291 287 287 293 293 291 292 291 295 294 289 285 281 284 296 295 297 296 296 299 301 301
300 292 307 307 294 293 289 295 299 297 299 298 297 295 293 293 291 290 291 294 298 296 292 293 288 283 288 295 298 293 290 296 288 287 290 288 285 295 296 297 298 297 299 299 300
295 295 306 303 289 288 292 297 298 297 297 296 295 297 296 293 289 292 293 299 298 296 292 292 286 281 284 288 291 288 291 292 295 293 286 281 285 295 295 295 296 295 299 301 299
295 290 297 297 295 288 289 293 293 298 297 298 296 296 294 292 293 290 290 296 297 298 305 299 289 285 281 285 288 287 290 290 290 283 284 286 286 290 293 294 295 295 296 297 298
294 290 296 292 293 291 292 292 292 291 296 295 293 294 291 288 289 289 290 291 295 302 295 290 285 287 289 291 291 289 290 291 287 286 282 286 287 290 292 296 296 297 297 297 297
292 290 294 291 294 292 293 291 292 292 290 289 288 292 290 286 287 285 288 287 288 291 289 290 285 288 286 292 291 289 291 291 290 289 288 289 288 294 296 296 296 295 296 296 297
296 298 296 294 293 291 291 292 293 292 293 294 292 289 287 289 291 291 291 290 290 286 285 286 286 285 282 289 290 286 288 289 288 289 287 285 290 292 292 294 293 294 297 296 296

GFSSW_sfc_thetae_102.txt.gz
Theta_e
323 324 324 325 325 325 325 326 326 326 326 327 328 328 327 327 326 317 306 312 321 331 332 320 316 315 309 306 311 315 303 300 304 308 312 318 314 324 325 321 324 327 323 327 330
323 323 324 324 325 325 325 325 326 326 326 327 328 328 327 326 317 310 316 328 329 331 317 311 306 308 301 302 303 304 300 303 311 312 311 311 309 320 319 316 318 322 326 329 331
323 323 323 324 324 325 325 325 325 325 327 327 327 326 326 324 306 309 328 326 329 330 319 315 311 307 299 299 299 299 299 307 309 311 311 308 307 314 317 314 319 319 322 329 331
323 323 323 324 324 324 324 324 325 325 327 327 327 327 327 318 293 311 329 327 331 325 314 310 305 299 297 295 299 293 299 300 307 310 309 306 306 311 319 320 326 328 324 327 328
322 323 323 323 323 323 324 324 324 325 326 326 326 327 318 305 302 318 330 325 317 315 311 308 301 299 295 296 297 294 296 300 301 302 302 303 302 303 315 322 327 329 327 327 328
322 323 323 323 323 323 323 323 324 324 324 325 326 325 313 298 310 317 319 313 316 313 310 309 306 305 299 298 295 297 299 299 300 300 300 300 301 304 308 321 323 325 325 326 327
322 323 322 322 322 322 323 323 323 323 324 325 325 320 311 304 311 311 314 313 315 314 310 311 310 304 302 298 302 300 295 297 298 298 297 300 296 298 305 319 317 320 322 326 327
322 322 321 321 321 322 322 323 323 323 324 325 324 315 304 316 312 314 315 313 315 315 314 313 312 307 303 303 301 296 294 288 296 297 298 297 289 297 302 302 310 315 322 325 326
321 320 319 319 320 321 322 322 324 325 325 325 315 310 302 319 311 313 314 312 313 313 313 315 310 303 302 295 291 292 286 289 292 299 297 295 290 297 299 300 301 302 314 320 324
320 320 320 320 320 321 321 322 324 322 322 322 319 301 306 306 312 313 312 314 310 309 307 306 301 296 295 291 285 289 289 291 291 295 297 294 292 295 298 298 299 301 304 315 322
320 320 320 320 320 320 316 306 303 299 306 301 303 305 307 311 313 310 313 311 309 304 296 300 294 291 294 296 296 294 292 291 295 299 295 294 293 294 296 295 295 297 300 307 316
321 320 319 319 319 319 310 305 305 306 299 308 309 309 311 310 305 308 312 303 302 296 298 295 291 297 301 301 298 296 292 291 294 297 295 294 292 294 295 295 295 296 299 305 312
320 320 318 318 318 310 307 306 311 311 299 305 310 308 308 309 304 305 309 304 299 296 296 291 296 302 301 298 296 295 292 292 292 296 295 291 290 291 294 295 296 297 300 304 309
320 319 318 318 305 306 305 309 308 311 294 300 303 307 309 310 303 311 310 305 300 296 297 294 301 300 299 297 298 291 298 297 296 293 286 290 282 287 290 292 294 299 301 309 318
319 318 317 316 304 304 307 308 309 307 283 300 303 311 306 304 303 305 311 305 298 298 295 290 294 296 297 297 299 295 301 298 297 293 290 290 284 285 290 292 297 299 302 306 318
319 318 316 310 306 308 310 310 308 292 284 297 303 300 298 301 301 304 305 305 304 297 294 293 299 301 298 301 300 302 299 295 293 291 282 288 285 283 291 295 298 303 305 305 315
319 317 314 312 303 309 310 303 289 286 297 294 295 296 295 295 298 298 295 292 289 285 285 290 293 299 301 295 299 299 293 283 278 281 282 289 286 285 295 299 301 302 304 307 309
317 315 312 312 309 310 305 294 285 293 292 298 296 295 293 296 295 295 293 290 293 290 285 283 283 293 298 294 293 295 294 285 275 280 282 290 284 291 298 302 304 304 306 309 310
312 301 305 309 311 308 296 286 287 292 296 294 294 290 290 294 293 292 290 290 291 291 285 284 285 296 296 297 297 293 290 294 286 287 282 287 292 296 302 302 304 304 305 305 309
301 301 301 311 311 301 292 291 291 297 297 295 288 291 286 289 290 289 289 294 293 295 292 288 283 292 295 298 298 294 297 289 289 281 275 284 285 287 297 298 301 304 304 305 307
300 294 302 309 304 296 288 289 295 298 298 293 291 290 290 289 289 288 289 294 295 294 294 289 285 286 291 289 289 289 288 294 291 290 283 278 282 293 293 296 296 301 306 304 303
297 290 303 304 293 292 290 293 299 296 297 296 295 294 291 291 289 289 289 292 296 295 290 291 286 282 286 292 294 290 288 292 286 285 289 286 284 293 293 295 297 297 298 299 301
292 292 304 301 289 290 290 295 297 296 295 295 294 295 294 291 288 290 291 297 296 294 290 290 285 280 282 286 290 287 289 291 293 290 285 280 285 294 293 294 295 297 298 298 298
292 288 296 297 294 290 289 291 292 298 296 296 294 295 292 290 292 289 289 294 295 294 304 297 287 284 280 283 286 285 289 290 289 280 281 283 284 290 292 292 294 295 295 296 298
292 290 294 290 292 291 292 292 290 290 295 295 291 292 289 286 287 287 288 288 291 298 292 289 283 285 287 289 289 288 288 289 285 284 280 283 285 288 292 293 294 295 296 296 296
289 288 291 289 292 291 293 291 291 291 290 288 287 290 287 285 287 285 287 285 286 289 286 286 282 285 285 289 289 288 289 288 287 285 285 287 286 291 292 294 293 294 295 294 294
294 296 294 292 290 290 291 292 293 292 292 293 291 288 286 288 290 291 290 290 289 286 284 283 284 283 280 287 287 284 286 287 286 288 286 284 287 291 291 292 291 292 294 294 294

GFSSW_sfc_thetae_105.txt.gz
Theta_e
323 324 324 325 325 325 325 326 326 326 327 328 328 328 328 327 325 316 300 308 319 332 330 315 311 309 306 303 308 314 302 298 302 306 310 316 311 322 324 321 323 326 321 325 332
323 323 324 324 325 325 325 325 326 326 326 328 328 328 327 327 315 307 315 327 329 332 316 310 306 307 299 300 301 302 299 301 309 310 310 311 308 307 314 316 317 322 325 328 333
323 323 324 324 324 324 324 325 325 325 326 327 327 327 327 324 302 304 325 328 329 331 318 315 311 305 298 297 296 298 297 305 306 307 308 308 306 307 313 311 316 317 321 326 330
323 323 323 324 324 324 324 324 324 325 326 326 326 327 327 315 294 307 330 329 332 319 311 308 303 298 295 293 297 292 297 298 300 304 305 303 305 302 315 314 321 323 324 325 327
323 323 323 324 324 324 323 324 324 325 325 325 326 326 317 301 301 312 333 325 314 313 310 306 301 299 294 295 296 292 295 299 300 300 300 301 300 301 302 315 321 328 326 326 325
323 323 323 323 323 323 323 323 324 324 324 325 326 325 309 297 309 313 319 312 314 312 309 308 304 304 298 297 294 296 297 298 299 299 299 298 298 301 303 310 320 325 324 324 326
322 322 321 321 321 321 322 323 323 323 324 325 325 319 308 302 309 308 314 311 313 313 309 310 309 303 301 297 301 299 294 296 296 297 296 298 294 295 301 307 314 319 322 325 325
322 322 321 320 320 321 322 322 323 323 323 324 323 313 302 315 311 312 312 312 314 313 312 312 311 306 301 302 300 295 292 288 296 297 298 296 288 297 299 298 298 307 315 323 325
321 320 320 320 320 321 322 323 325 325 324 324 313 309 299 318 309 312 312 310 311 311 311 314 309 301 301 294 290 291 287 288 292 298 297 294 290 296 300 297 297 298 304 319 323
320 320 320 320 321 322 322 321 325 323 321 321 317 297 302 303 310 312 310 312 308 308 306 304 299 295 294 291 285 288 288 290 290 296 296 294 292 295 297 296 295 295 298 309 322
321 320 320 320 320 321 313 304 301 297 305 300 301 303 305 310 311 308 311 309 307 302 295 299 293 290 293 295 295 293 291 290 293 297 294 293 293 294 296 295 293 294 294 298 311
321 320 319 319 320 318 308 304 303 305 297 307 307 307 310 309 303 306 310 302 300 295 296 294 289 296 299 300 297 295 292 291 294 297 294 293 293 294 294 294 295 294 294 295 300
320 320 319 318 318 308 305 304 308 309 298 304 309 306 307 308 302 303 307 302 298 295 294 290 295 301 300 298 295 294 292 291 292 297 295 292 289 291 293 294 295 295 296 300 299
320 320 319 317 306 305 303 308 307 310 293 297 302 305 307 308 301 310 309 304 299 295 296 292 298 296 297 296 296 290 297 297 296 294 288 294 283 290 292 291 293 299 299 302 305
320 319 318 314 303 303 306 308 309 305 282 299 302 309 304 302 301 303 309 304 297 297 294 289 291 294 295 295 297 293 299 297 295 291 290 289 286 285 290 293 297 301 303 305 305
320 319 317 308 305 307 309 308 307 290 283 296 301 296 296 298 299 303 299 300 301 293 292 291 296 298 297 299 298 299 297 294 291 288 281 288 287 282 291 295 298 301 303 305 306
319 318 314 311 301 308 309 302 289 285 296 294 293 295 294 294 296 296 293 291 288 284 284 289 291 295 299 293 296 297 291 282 277 278 282 289 287 285 293 298 301 300 302 308 310
317 314 312 310 308 309 302 292 284 292 291 297 294 294 291 294 293 293 291 288 291 288 284 282 282 291 296 292 290 293 290 286 275 278 281 290 284 291 299 302 306 306 307 311 313
311 300 302 306 310 306 294 286 286 290 294 293 292 288 288 292 291 290 288 289 290 290 284 283 283 293 295 294 295 291 287 291 286 287 281 286 292 296 301 302 305 305 304 305 310
299 299 300 310 308 300 292 290 290 295 295 294 287 290 285 288 289 288 287 292 292 293 291 287 282 289 293 296 296 293 294 287 287 280 278 282 283 286 292 297 299 304 302 302 304
297 292 299 307 303 295 288 289 294 296 297 292 289 288 288 288 288 286 288 292 294 293 292 288 284 285 289 287 286 287 285 291 289 289 282 278 282 290 292 295 295 299 300 301 300
294 288 301 302 292 290 289 292 298 294 296 294 294 292 290 290 288 287 288 290 295 294 289 289 285 281 285 290 291 289 285 289 283 280 287 286 283 292 291 295 297 297 300 299 300
290 290 301 299 288 289 290 294 295 294 293 294 293 294 292 289 286 289 290 295 293 292 287 289 283 278 281 285 288 286 288 287 291 287 283 278 283 294 292 293 294 296 297 298 298
291 287 294 295 292 291 289 292 292 296 295 295 293 293 290 288 290 288 288 293 293 294 301 294 285 281 278 281 285 284 287 288 286 279 279 281 284 288 292 292 294 293 295 295 295
290 288 292 289 291 289 292 292 291 290 293 294 290 291 288 284 286 286 288 288 290 294 290 287 282 282 285 287 287 287 287 287 283 283 280 282 284 288 290 290 291 294 295 294 294
288 287 290 291 292 291 292 290 291 291 290 288 287 289 288 285 287 285 286 285 284 287 284 284 279 283 283 287 287 286 288 288 285 284 284 285 285 290 291 291 292 291 293 293 292
292 294 293 291 289 290 290 291 292 293 292 291 290 288 286 288 289 289 289 288 287 285 283 282 281 281 279 285 286 283 285 286 285 286 285 283 286 290 289 291 290 291 293 292 292

GFSSW_sfc_thetae_108.txt.gz
Theta_e
323 324 325 325 325 325 325 326 326 326 326 327 328 328 328 328 325 311 300 307 319 332 328 313 310 307 304 302 306 312 300 295 300 304 308 313 309 317 323 318 321 324 321 325 331
323 324 324 325 325 325 325 325 325 326 326 327 327 327 328 327 314 304 315 326 330 333 314 309 305 306 299 298 300 301 298 299 307 308 307 310 308 306 307 308 314 322 324 331 331
323 324 324 324 324 324 324 324 325 325 326 326 326 327 327 322 300 301 326 327 330 329 316 313 309 303 297 296 295 297 295 303 302 304 304 304 303 307 307 306 313 315 321 328 329
323 324 324 324 324 324 324 324 324 325 325 326 326 327 326 312 293 305 330 330 331 317 310 306 302 297 294 292 296 291 296 297 298 301 300 299 301 301 308 307 312 318 322 328 327
323 323 323 323 323 323 323 323 324 324 325 325 326 327 316 300 301 309 334 321 312 312 308 305 301 298 294 294 295 291 293 298 300 300 299 299 297 298 299 307 313 320 323 325 328
323 322 322 321 321 321 322 322 324 324 324 324 326 325 307 297 308 310 315 311 313 311 308 307 303 303 298 296 294 295 296 297 298 298 298 297 297 297 300 302 305 318 321 323 327
322 322 321 321 321 321 322 323 324 323 324 324 325 319 305 302 308 308 312 309 312 312 308 308 308 302 301 297 300 299 294 296 295 296 296 297 294 293 298 299 302 312 319 322 324
322 321 320 320 320 321 323 323 323 324 323 324 323 311 300 313 311 311 310 310 312 312 311 310 309 305 300 301 298 294 292 289 296 297 298 295 290 297 298 297 297 296 304 321 322
321 320 320 320 320 322 323 323 326 325 325 324 312 307 297 316 308 310 310 309 310 310 310 314 307 300 300 293 290 291 286 288 292 297 297 293 291 297 300 298 296 295 295 306 321
320 321 320 320 321 322 322 321 326 322 320 320 316 296 301 302 308 310 309 311 307 307 304 303 298 294 293 291 285 287 287 289 289 295 295 293 292 296 298 296 295 294 293 294 311
321 321 320 320 321 322 311 301 298 296 303 298 300 300 303 308 309 306 310 307 305 300 294 297 293 289 292 294 294 292 291 289 294 297 294 293 293 295 297 295 294 293 293 294 295
321 321 320 320 319 318 307 303 302 304 294 305 306 306 308 308 302 304 308 301 299 294 295 292 288 294 298 299 296 294 291 290 294 297 294 294 293 297 297 296 295 295 294 293 294
320 320 320 319 317 308 304 302 307 307 296 302 307 306 306 307 301 302 306 301 296 294 292 289 293 299 297 296 294 292 290 290 291 296 296 295 289 291 295 294 294 297 299 301 302
320 320 319 317 307 304 302 307 307 308 291 295 301 303 305 306 299 308 307 302 297 293 294 291 295 294 294 294 294 289 295 295 294 290 285 295 282 289 292 292 297 299 300 302 303
320 319 318 315 301 302 305 308 309 302 282 297 301 307 300 301 300 301 306 302 295 293 292 287 290 291 293 294 295 292 297 295 293 289 285 289 284 284 292 292 296 300 302 304 306
321 319 317 306 303 305 308 308 305 290 282 294 299 295 295 298 298 300 298 299 298 291 291 291 294 294 295 298 296 298 295 291 289 286 281 289 285 283 290 294 296 301 303 307 309
319 318 313 310 299 307 308 300 288 284 294 292 292 294 292 292 294 294 292 290 287 283 282 287 289 293 297 291 293 296 289 280 278 277 276 290 287 288 296 300 303 303 305 309 311
317 314 310 310 307 308 300 292 284 291 290 295 293 292 289 292 291 292 290 287 290 288 283 280 280 289 294 290 288 292 289 282 279 279 281 289 284 290 298 302 305 306 306 309 312
311 298 300 304 309 304 294 286 287 289 293 291 290 287 287 290 290 289 287 288 289 289 283 282 282 291 293 293 293 288 286 290 285 282 281 280 290 296 297 297 300 304 304 304 305
298 296 298 308 306 298 291 290 290 294 294 293 285 288 284 287 288 287 286 291 291 292 290 285 281 287 291 294 293 293 293 285 284 276 277 280 281 286 291 294 298 301 300 300 300
294 289 297 305 301 293 288 288 293 296 296 291 288 287 287 287 286 285 287 290 292 292 291 287 284 284 287 286 284 286 284 288 287 286 277 280 281 291 291 294 297 300 301 300 300
291 285 298 299 291 288 288 292 298 294 295 294 292 291 289 288 286 286 287 289 292 291 285 288 283 280 283 288 289 287 284 287 282 281 284 282 284 291 291 295 298 297 299 298 298
289 287 298 297 287 287 290 293 295 293 293 293 292 293 291 288 285 288 289 294 292 289 285 287 282 277 279 283 286 285 286 286 288 284 280 276 280 290 293 292 295 295 294 295 296
289 285 293 293 291 290 288 290 291 296 294 293 291 292 289 287 289 287 287 292 291 293 299 293 284 280 276 279 283 283 286 286 284 278 278 280 282 287 289 291 292 293 294 294 294
288 287 291 288 290 289 290 292 290 290 293 292 289 291 288 283 285 285 287 287 289 293 287 285 280 281 283 285 285 285 285 286 283 282 279 281 282 287 288 290 291 293 293 293 293
286 285 289 290 291 290 292 290 290 291 292 290 287 290 288 285 287 286 285 283 284 286 282 283 278 281 280 285 285 284 287 286 285 283 283 284 284 289 290 291 291 291 292 291 292
290 292 292 291 289 289 289 291 292 292 292 292 290 288 286 288 289 290 288 287 286 285 282 282 280 280 278 283 284 282 285 285 283 285 284 282 286 289 289 291 290 291 292 291 291

GFSSW_sfc_thetae_111.txt.gz
Theta_e
324 324 325 325 325 325 325 326 326 326 326 327 328 328 329 328 325 313 304 311 321 332 327 314 313 309 308 307 311 317 306 301 304 306 308 314 311 316 324 315 320 326 325 327 333
324 324 324 325 325 325 325 325 325 325 326 327 327 328 328 327 314 306 319 324 330 334 315 311 308 308 304 303 305 308 303 302 309 311 309 310 307 309 307 307 311 321 328 331 333
324 324 325 325 324 324 324 324 325 325 326 326 326 327 327 324 305 305 327 327 331 325 318 314 309 305 302 301 300 302 299 304 306 305 305 303 303 306 305 305 311 309 324 329 330
324 324 324 323 323 323 323 323 324 325 326 326 326 327 327 314 297 309 334 331 329 318 313 308 306 302 298 297 300 296 298 300 301 302 301 300 303 301 305 307 312 314 324 330 329
323 323 323 323 323 322 323 323 324 325 326 325 326 327 318 305 306 311 336 321 314 315 310 308 304 302 299 299 299 296 297 299 301 302 301 302 300 300 301 306 313 314 322 328 330
323 323 322 321 321 322 323 324 324 325 324 325 326 325 309 301 310 312 315 313 315 313 311 309 306 306 301 299 298 299 299 300 301 301 301 299 300 300 302 305 304 307 314 322 329
322 321 320 320 321 322 323 324 324 324 324 324 325 318 308 305 311 312 313 312 314 314 310 311 310 306 304 300 303 301 297 299 300 300 300 300 298 297 301 302 303 303 309 324 326
321 320 320 321 321 322 323 324 324 324 323 324 324 315 303 314 314 313 314 313 315 315 314 314 313 307 304 304 301 297 297 294 301 301 301 300 294 301 305 301 303 304 301 308 326
321 320 320 320 321 322 323 325 326 325 324 324 315 309 301 318 309 312 314 311 312 312 313 313 309 303 302 297 295 295 291 292 295 300 299 298 296 302 305 303 302 304 302 301 310
321 321 320 321 321 322 322 322 326 320 319 319 314 301 304 303 309 311 314 313 310 309 306 305 302 299 297 296 289 291 291 293 293 298 299 297 296 301 303 302 302 302 303 301 301
321 321 320 320 320 321 310 301 299 299 304 301 302 301 304 309 311 308 312 310 308 303 298 300 296 293 296 296 297 295 293 292 296 300 297 296 297 299 302 302 301 302 302 301 301
321 321 320 320 319 318 307 303 303 304 297 305 306 306 308 309 303 305 311 304 303 297 299 295 292 297 298 299 298 296 293 293 296 299 297 296 295 299 299 299 299 299 302 304 306
321 320 320 319 316 308 304 304 307 309 297 303 308 307 307 308 303 303 308 304 300 297 296 293 295 299 297 297 295 294 292 292 293 297 298 295 293 295 299 300 302 305 305 308 308
321 320 319 317 307 305 304 308 308 310 292 296 302 305 306 308 301 309 308 305 301 296 296 294 296 294 295 294 296 290 296 296 295 292 287 295 284 291 297 298 300 304 305 307 309
321 320 318 314 303 302 306 309 310 303 284 298 301 307 302 302 301 302 305 305 298 296 296 290 291 292 294 294 297 293 298 296 294 291 290 290 286 290 296 294 295 301 305 308 311
321 319 317 305 303 306 309 309 304 291 284 295 299 295 296 298 298 300 299 300 300 294 292 293 296 295 298 298 298 299 296 293 291 289 285 288 287 288 291 293 296 303 304 308 313
320 318 312 309 300 307 308 300 290 285 295 293 293 294 293 293 295 295 294 292 290 286 285 288 291 294 298 293 295 298 292 285 284 283 283 290 288 289 294 297 299 303 304 308 312
318 313 306 309 307 308 301 292 285 291 291 295 293 293 291 293 292 292 292 290 292 290 285 284 283 291 295 293 291 294 292 285 278 280 283 289 285 290 296 300 303 306 305 305 307
309 297 299 303 308 303 295 287 288 290 294 292 291 288 289 291 291 290 291 290 292 292 287 285 284 292 294 295 296 292 289 294 286 285 283 286 291 295 297 297 300 304 303 302 303
299 294 295 308 306 297 292 290 291 295 294 293 287 290 286 288 289 288 289 293 292 294 293 290 283 289 292 297 294 294 296 288 287 279 279 285 285 285 290 293 299 301 300 301 302
293 288 295 305 300 294 289 289 293 296 296 291 289 289 289 289 289 288 289 292 293 293 293 290 287 286 289 289 287 289 288 290 291 289 283 281 286 293 292 296 297 299 300 300 300
290 284 296 299 291 288 288 291 297 294 296 295 293 292 290 290 289 288 289 291 292 293 287 291 286 282 286 290 290 291 288 289 285 284 288 287 286 294 294 297 298 297 298 299 298
287 286 298 296 287 287 291 292 295 293 293 293 293 294 293 290 287 289 290 295 293 291 289 290 285 280 281 287 289 287 289 289 289 288 285 283 285 293 294 295 296 296 296 297 298
287 283 291 293 290 290 288 290 291 295 294 294 293 294 291 289 291 289 289 293 293 295 299 294 286 283 279 282 286 284 286 288 287 283 283 284 286 290 292 294 295 295 295 296 296
288 286 290 288 289 290 290 291 290 290 293 293 291 292 290 286 287 287 289 289 290 293 289 287 282 284 285 286 285 285 285 286 286 286 284 285 286 291 293 294 295 295 295 295 295
285 284 288 288 290 290 291 289 290 291 291 291 289 292 289 287 289 288 288 286 287 288 286 285 281 283 282 286 286 285 287 287 287 287 286 286 287 294 295 295 295 295 294 294 294
291 290 292 290 288 288 288 290 291 292 292 293 293 289 288 289 290 291 290 289 289 287 284 284 283 283 280 284 285 284 287 287 287 288 287 285 291 293 293 294 295 295 295 294 294

GFSSW_sfc_thetae_114.txt.gz
Theta_e
324 325 325 325 326 326 326 326 326 326 326 328 328 328 329 329 328 317 310 315 324 334 329 317 316 313 314 314 319 322 305 300 303 304 306 315 314 319 321 319 317 321 326 331 341
324 325 325 325 325 325 325 325 325 326 326 327 328 328 329 328 318 313 318 324 331 335 317 313 310 311 308 307 312 310 303 300 307 308 308 311 312 314 313 316 316 318 326 333 340
324 324 324 324 324 324 324 324 324 325 326 327 327 327 328 326 310 311 325 327 332 325 319 315 312 309 305 306 304 306 300 303 305 308 309 308 308 310 309 308 313 314 317 331 336
324 324 324 324 324 324 324 324 324 325 327 327 326 327 328 318 300 314 328 329 327 320 317 313 312 306 304 302 304 300 303 304 304 305 304 303 305 303 304 306 311 313 314 320 331
324 323 323 322 322 322 323 324 325 326 326 326 326 327 322 310 310 316 334 325 319 318 315 313 310 308 304 305 304 301 304 305 306 306 307 308 305 305 305 308 310 310 313 318 325
323 322 321 322 322 323 324 324 325 326 325 325 326 326 315 305 316 317 317 317 318 317 314 314 311 310 306 305 304 305 306 306 307 307 307 304 305 303 306 308 308 308 309 312 316
321 321 321 321 322 323 324 324 325 325 325 325 325 322 312 309 318 319 317 316 317 317 313 315 314 311 309 305 307 306 302 305 305 306 305 304 302 302 306 308 307 308 310 310 318
321 321 321 322 322 323 323 324 326 324 324 324 324 320 308 319 322 317 318 317 318 318 316 316 316 311 308 309 306 302 302 299 304 305 305 303 297 305 309 308 308 309 310 310 310
321 320 320 320 321 322 322 325 327 325 324 324 320 315 306 319 313 317 318 314 315 316 317 315 313 308 307 303 301 302 296 297 300 306 304 303 299 306 310 309 308 309 309 310 311
321 321 321 321 321 322 320 323 324 321 322 321 316 308 310 308 313 315 318 316 313 312 310 309 309 305 305 301 292 295 296 297 297 302 303 301 301 305 308 307 307 309 309 310 310
321 321 320 321 320 320 316 312 309 307 312 306 307 306 308 315 315 313 316 314 312 309 301 306 302 297 299 301 301 299 297 297 300 303 301 300 300 302 305 305 304 306 308 309 308
321 321 320 320 319 315 315 309 309 310 305 309 310 311 312 314 307 311 316 307 306 301 303 301 298 301 302 301 300 299 297 297 300 302 301 299 298 300 305 305 306 307 308 310 312
321 321 320 319 318 315 312 309 313 314 306 307 311 311 310 312 306 308 310 308 304 301 299 297 298 301 299 299 297 298 295 296 297 300 301 299 296 298 303 306 306 308 311 312 312
321 321 319 317 313 312 310 313 316 317 301 301 305 308 309 309 304 310 309 307 304 299 299 298 299 297 298 297 298 294 299 299 298 296 291 298 290 296 300 301 303 306 308 311 314
321 320 318 313 312 309 312 317 318 315 292 302 304 310 307 305 304 305 307 306 300 300 299 295 296 295 296 296 299 296 302 299 298 296 295 295 291 294 298 294 298 302 306 310 314
321 320 317 311 314 313 317 317 315 299 291 299 303 299 300 302 302 304 304 306 303 297 297 296 299 298 299 300 299 302 300 298 297 296 291 292 290 291 291 293 296 301 305 307 311
320 319 313 312 308 316 317 312 298 293 299 297 297 298 297 297 298 299 299 297 295 292 292 295 295 298 299 297 300 301 298 294 291 291 288 294 292 291 295 297 299 303 304 306 309
318 312 310 313 316 316 313 302 293 296 296 299 297 297 296 297 296 297 297 296 297 295 293 290 289 294 298 296 295 297 297 291 283 285 289 295 289 293 297 302 306 306 305 305 306
310 307 308 313 315 314 305 297 297 297 299 297 295 294 294 295 296 296 295 295 296 296 291 290 290 296 297 299 300 295 293 298 290 290 288 292 294 298 300 303 304 304 303 302 304
310 302 304 314 315 309 302 297 298 300 298 297 293 295 292 293 294 294 293 296 295 297 298 294 288 293 295 300 299 297 299 292 295 285 283 288 289 289 296 298 301 303 301 300 302
304 296 305 315 309 304 297 298 298 301 300 296 294 294 294 294 294 293 293 296 297 295 297 295 291 291 294 292 292 295 294 294 295 293 287 285 288 296 297 299 299 301 302 300 299
299 292 307 308 299 300 298 298 300 299 300 298 298 296 295 296 294 293 293 296 297 295 291 295 292 288 289 294 295 295 293 292 290 287 293 290 290 299 299 300 301 301 302 300 300
295 295 306 304 294 296 298 297 299 297 297 297 296 298 297 295 292 294 295 297 296 295 293 296 291 287 288 292 293 291 292 292 293 294 289 288 290 298 300 300 300 300 302 299 301
295 291 299 301 300 297 297 296 295 298 298 298 297 298 295 293 296 294 294 296 296 296 300 298 293 289 286 288 290 288 289 291 291 290 289 290 291 296 297 299 300 299 302 301 301
296 293 299 293 295 296 298 298 295 293 297 297 294 295 294 291 292 293 295 295 293 296 294 295 289 289 290 290 290 289 288 290 289 293 289 290 290 294 298 300 300 301 301 301 301
295 293 294 297 296 295 295 295 295 295 296 295 294 296 295 293 294 293 294 294 294 293 292 291 288 288 288 290 290 289 292 292 292 293 292 292 291 298 300 301 301 301 301 301 300
299 298 297 295 295 293 294 296 296 297 298 299 298 296 293 296 299 298 299 297 296 293 291 290 290 287 287 289 290 289 292 293 294 294 292 289 295 300 299 299 301 301 302 301 300

GFSSW_sfc_thetae_117.txt.gz
Theta_e
325 326 326 326 326 326 326 326 326 326 327 328 329 329 330 330 329 322 312 317 324 336 335 318 317 313 315 314 318 318 306 301 303 303 306 312 312 318 321 319 321 322 326 331 341
325 325 325 325 325 325 325 325 325 326 326 327 328 328 329 329 322 315 320 324 332 338 319 315 312 312 310 309 312 310 305 304 308 308 307 309 310 313 314 314 315 317 324 331 340
324 325 325 325 324 324 325 325 325 326 326 328 328 328 329 328 315 313 325 327 332 330 320 318 315 311 307 308 307 306 302 305 305 307 307 307 308 311 308 306 311 314 319 328 332
324 324 323 323 323 323 324 324 325 326 327 328 327 327 328 324 303 316 327 327 330 323 319 316 315 310 307 305 307 302 305 305 307 308 307 304 307 305 306 306 310 312 316 319 323
324 323 323 323 323 323 324 325 326 327 327 327 327 327 325 314 311 320 326 327 322 320 316 314 311 310 306 307 307 305 306 308 309 309 308 309 307 306 307 310 311 310 310 311 314
323 322 322 322 322 323 324 325 326 326 326 326 326 326 321 306 319 320 319 319 319 319 316 315 312 312 309 307 306 308 307 307 308 308 308 306 307 308 308 310 309 309 309 310 313
322 322 321 321 322 323 324 324 326 326 325 326 326 325 315 311 321 322 320 319 319 319 315 316 316 312 311 307 310 308 304 307 306 307 306 307 302 304 309 309 308 309 309 310 311
321 321 321 321 321 323 323 324 325 324 324 325 325 322 310 321 323 320 321 319 320 320 318 319 318 313 310 312 309 305 305 300 306 306 307 305 299 307 310 309 308 310 311 311 312
321 321 321 320 321 322 322 325 326 325 325 325 323 318 308 319 315 319 320 315 317 318 318 317 316 310 310 305 303 304 297 299 302 307 305 304 301 307 311 310 309 310 311 311 311
321 322 322 321 321 321 321 323 323 320 324 322 318 311 312 309 316 317 319 318 314 314 313 311 310 306 305 301 293 295 297 299 299 304 304 302 302 306 308 307 307 308 310 311 311
321 322 321 321 321 320 316 316 312 310 314 309 309 307 309 315 318 315 317 315 314 311 302 307 303 299 300 302 301 300 298 298 302 304 302 301 301 302 306 307 307 307 310 310 311
321 322 321 320 319 319 316 310 312 315 306 312 312 312 314 315 309 312 316 308 306 302 304 302 299 302 303 302 301 299 298 298 302 303 302 301 299 303 305 306 307 307 308 311 312
321 321 321 319 318 316 315 311 317 318 308 308 312 311 312 312 307 309 310 308 304 301 301 298 301 301 300 300 298 299 297 297 297 302 303 300 298 300 303 305 306 307 309 310 312
321 321 320 317 312 315 313 317 320 320 303 304 306 311 311 309 306 311 310 307 304 300 301 299 301 299 299 298 299 295 301 301 300 298 293 301 291 298 301 302 303 305 307 310 312
320 320 320 317 315 312 314 321 322 318 294 304 306 312 309 306 306 307 310 307 301 300 299 297 297 298 297 297 300 298 302 301 301 298 297 296 292 295 300 296 299 302 306 307 309
320 320 318 314 316 315 320 321 319 302 293 301 306 302 302 304 304 306 305 308 305 300 300 298 301 300 300 301 302 303 302 302 301 299 291 294 292 293 294 295 298 304 305 305 308
320 319 316 311 312 319 321 317 301 295 302 300 300 300 300 300 301 300 300 299 297 294 295 297 297 300 301 299 302 301 299 294 291 291 289 296 293 294 299 300 303 303 303 305 307
319 317 312 312 318 319 317 305 295 299 300 302 300 299 298 299 299 299 299 298 299 298 295 292 290 295 299 299 296 298 298 291 283 286 289 296 290 295 303 304 306 306 303 304 306
316 311 307 311 318 317 308 298 299 302 303 300 298 296 297 298 298 298 298 298 298 298 293 292 292 298 298 301 300 297 294 299 292 294 291 294 295 302 304 304 304 304 302 302 304
311 305 304 316 317 313 304 299 302 304 302 302 297 299 296 296 296 297 296 299 298 298 300 296 290 296 296 300 301 298 300 294 296 286 285 290 290 290 297 300 303 303 300 301 304
308 298 309 318 316 306 298 301 302 305 303 300 299 298 298 297 297 296 296 298 299 298 299 296 293 294 296 295 294 297 296 296 297 294 288 286 289 298 298 301 301 303 300 300 303
304 292 311 316 299 299 297 302 303 303 303 300 301 300 299 299 297 296 296 298 301 298 295 297 295 291 292 297 298 297 294 295 290 289 293 292 291 301 301 303 303 302 302 302 303
299 298 311 310 293 295 300 300 302 301 301 300 299 301 301 298 295 297 297 300 299 298 296 298 294 290 290 294 296 293 294 293 293 296 292 288 290 301 302 303 304 304 301 301 302
300 292 301 303 301 297 297 297 297 303 301 301 301 301 299 297 298 295 295 298 299 298 300 299 296 293 289 291 294 291 293 293 292 290 291 291 290 297 299 301 304 305 303 300 301
301 296 299 294 296 298 299 298 297 295 300 301 298 299 298 294 294 293 297 297 297 299 298 297 293 294 294 293 293 292 291 291 290 293 290 292 291 295 299 302 305 305 306 305 303
300 296 299 297 297 296 296 296 296 298 298 296 297 299 299 296 296 294 297 297 297 297 296 296 292 291 291 295 292 291 293 294 294 295 294 295 293 299 303 304 304 305 305 304 304
309 306 299 296 296 295 296 295 297 300 299 301 299 299 297 299 301 302 302 301 300 296 295 294 293 292 290 293 293 291 295 295 295 297 296 291 297 301 300 301 302 305 306 304 304